<?xml version="1.0" encoding="UTF-8" standalone="no" ?>
<gpx xmlns="http://www.topografix.com/GPX/1/1" xmlns:xsi="http://www.w3.org/2001/XMLSchema-instance" xsi:schemaLocation="http://www.topografix.com/GPX/1/1 http://www.topografix.com/GPX/1/1/gpx.xsd" version="1.1" creator="VisuGPX - https://www.visugpx.com">
  <metadata>
    <name>Mercredi 9 septembre 26</name>
  </metadata>
  <trk>
    <name><![CDATA[Mercredi 9 septembre 26]]></name>
    <extensions>
      <line xmlns="http://www.topografix.com/GPX/gpx_style/0/2">
        <width>7</width>
      </line>
    </extensions>
    <trkseg>
      <trkpt lat="43.3868" lon="-1.66339">
        <ele>1</ele>
        <time>2026-08-23T12:36:14.000Z</time>
      </trkpt>
      <trkpt lat="43.38678" lon="-1.66335">
        <ele>1</ele>
        <time>2026-08-23T12:36:15.000Z</time>
      </trkpt>
      <trkpt lat="43.3867" lon="-1.66331">
        <ele>4</ele>
        <time>2026-08-23T12:36:16.000Z</time>
      </trkpt>
      <trkpt lat="43.38668" lon="-1.66327">
        <ele>4</ele>
        <time>2026-08-23T12:36:17.000Z</time>
      </trkpt>
      <trkpt lat="43.38667" lon="-1.66317">
        <ele>1</ele>
        <time>2026-08-23T12:36:18.000Z</time>
      </trkpt>
      <trkpt lat="43.38655" lon="-1.66312">
        <ele>1</ele>
        <time>2026-08-23T12:36:20.000Z</time>
      </trkpt>
      <trkpt lat="43.38651" lon="-1.66308">
        <ele>1</ele>
        <time>2026-08-23T12:36:21.000Z</time>
      </trkpt>
      <trkpt lat="43.38634" lon="-1.66254">
        <ele>3</ele>
        <time>2026-08-23T12:36:29.000Z</time>
      </trkpt>
      <trkpt lat="43.38628" lon="-1.66242">
        <ele>4</ele>
        <time>2026-08-23T12:36:31.000Z</time>
      </trkpt>
      <trkpt lat="43.38621" lon="-1.66235">
        <ele>4</ele>
        <time>2026-08-23T12:36:32.000Z</time>
      </trkpt>
      <trkpt lat="43.38612" lon="-1.66229">
        <ele>4</ele>
        <time>2026-08-23T12:36:34.000Z</time>
      </trkpt>
      <trkpt lat="43.38604" lon="-1.66226">
        <ele>4</ele>
        <time>2026-08-23T12:36:35.000Z</time>
      </trkpt>
      <trkpt lat="43.38596" lon="-1.66226">
        <ele>4</ele>
        <time>2026-08-23T12:36:37.000Z</time>
      </trkpt>
      <trkpt lat="43.38583" lon="-1.66231">
        <ele>3</ele>
        <time>2026-08-23T12:36:39.000Z</time>
      </trkpt>
      <trkpt lat="43.38558" lon="-1.6625">
        <ele>3</ele>
        <time>2026-08-23T12:36:44.000Z</time>
      </trkpt>
      <trkpt lat="43.38548" lon="-1.66274">
        <ele>3</ele>
        <time>2026-08-23T12:36:48.000Z</time>
      </trkpt>
      <trkpt lat="43.38518" lon="-1.66346">
        <ele>2</ele>
        <time>2026-08-23T12:36:59.000Z</time>
      </trkpt>
      <trkpt lat="43.38491" lon="-1.66422">
        <ele>5</ele>
        <time>2026-08-23T12:37:10.000Z</time>
      </trkpt>
      <trkpt lat="43.38484" lon="-1.6644">
        <ele>6</ele>
        <time>2026-08-23T12:37:12.000Z</time>
      </trkpt>
      <trkpt lat="43.38442" lon="-1.66534">
        <ele>5</ele>
        <time>2026-08-23T12:37:27.000Z</time>
      </trkpt>
      <trkpt lat="43.38437" lon="-1.66547">
        <ele>5</ele>
        <time>2026-08-23T12:37:28.000Z</time>
      </trkpt>
      <trkpt lat="43.38433" lon="-1.66561">
        <ele>4</ele>
        <time>2026-08-23T12:37:30.000Z</time>
      </trkpt>
      <trkpt lat="43.38434" lon="-1.66573">
        <ele>4</ele>
        <time>2026-08-23T12:37:32.000Z</time>
      </trkpt>
      <trkpt lat="43.38436" lon="-1.66585">
        <ele>4</ele>
        <time>2026-08-23T12:37:34.000Z</time>
      </trkpt>
      <trkpt lat="43.3845" lon="-1.66621">
        <ele>4</ele>
        <time>2026-08-23T12:37:39.000Z</time>
      </trkpt>
      <trkpt lat="43.38459" lon="-1.66621">
        <ele>4</ele>
        <time>2026-08-23T12:37:40.000Z</time>
      </trkpt>
      <trkpt lat="43.38462" lon="-1.66624">
        <ele>4</ele>
        <time>2026-08-23T12:37:41.000Z</time>
      </trkpt>
      <trkpt lat="43.38464" lon="-1.66638">
        <ele>4</ele>
        <time>2026-08-23T12:37:43.000Z</time>
      </trkpt>
      <trkpt lat="43.3846" lon="-1.66646">
        <ele>4</ele>
        <time>2026-08-23T12:37:44.000Z</time>
      </trkpt>
      <trkpt lat="43.3847" lon="-1.66674">
        <ele>5</ele>
        <time>2026-08-23T12:37:48.000Z</time>
      </trkpt>
      <trkpt lat="43.38482" lon="-1.66695">
        <ele>5</ele>
        <time>2026-08-23T12:37:52.000Z</time>
      </trkpt>
      <trkpt lat="43.38491" lon="-1.66705">
        <ele>5</ele>
        <time>2026-08-23T12:37:54.000Z</time>
      </trkpt>
      <trkpt lat="43.38551" lon="-1.66747">
        <ele>5</ele>
        <time>2026-08-23T12:38:06.000Z</time>
      </trkpt>
      <trkpt lat="43.38574" lon="-1.66766">
        <ele>6</ele>
        <time>2026-08-23T12:38:10.000Z</time>
      </trkpt>
      <trkpt lat="43.3863" lon="-1.66831">
        <ele>7</ele>
        <time>2026-08-23T12:38:24.000Z</time>
      </trkpt>
      <trkpt lat="43.38673" lon="-1.6689">
        <ele>7</ele>
        <time>2026-08-23T12:38:34.000Z</time>
      </trkpt>
      <trkpt lat="43.38676" lon="-1.66887">
        <ele>7</ele>
        <time>2026-08-23T12:38:35.000Z</time>
      </trkpt>
      <trkpt lat="43.38684" lon="-1.66896">
        <ele>6</ele>
        <time>2026-08-23T12:38:37.000Z</time>
      </trkpt>
      <trkpt lat="43.38695" lon="-1.6691">
        <ele>6</ele>
        <time>2026-08-23T12:38:39.000Z</time>
      </trkpt>
      <trkpt lat="43.38706" lon="-1.66924">
        <ele>6</ele>
        <time>2026-08-23T12:38:42.000Z</time>
      </trkpt>
      <trkpt lat="43.38714" lon="-1.66934">
        <ele>7</ele>
        <time>2026-08-23T12:38:44.000Z</time>
      </trkpt>
      <trkpt lat="43.38729" lon="-1.66952">
        <ele>6</ele>
        <time>2026-08-23T12:38:48.000Z</time>
      </trkpt>
      <trkpt lat="43.3873" lon="-1.66954">
        <ele>6</ele>
        <time>2026-08-23T12:38:48.000Z</time>
      </trkpt>
      <trkpt lat="43.38734" lon="-1.66959">
        <ele>6</ele>
        <time>2026-08-23T12:38:49.000Z</time>
      </trkpt>
      <trkpt lat="43.38738" lon="-1.66969">
        <ele>6</ele>
        <time>2026-08-23T12:38:50.000Z</time>
      </trkpt>
      <trkpt lat="43.38746" lon="-1.66986">
        <ele>6</ele>
        <time>2026-08-23T12:38:53.000Z</time>
      </trkpt>
      <trkpt lat="43.38752" lon="-1.67001">
        <ele>6</ele>
        <time>2026-08-23T12:38:55.000Z</time>
      </trkpt>
      <trkpt lat="43.38758" lon="-1.67014">
        <ele>7</ele>
        <time>2026-08-23T12:38:57.000Z</time>
      </trkpt>
      <trkpt lat="43.38773" lon="-1.67048">
        <ele>8</ele>
        <time>2026-08-23T12:39:02.000Z</time>
      </trkpt>
      <trkpt lat="43.3878" lon="-1.6706">
        <ele>8</ele>
        <time>2026-08-23T12:39:04.000Z</time>
      </trkpt>
      <trkpt lat="43.3881" lon="-1.671">
        <ele>7</ele>
        <time>2026-08-23T12:39:12.000Z</time>
      </trkpt>
      <trkpt lat="43.38816" lon="-1.67112">
        <ele>8</ele>
        <time>2026-08-23T12:39:14.000Z</time>
      </trkpt>
      <trkpt lat="43.38831" lon="-1.67152">
        <ele>8</ele>
        <time>2026-08-23T12:39:19.000Z</time>
      </trkpt>
      <trkpt lat="43.38835" lon="-1.67163">
        <ele>9</ele>
        <time>2026-08-23T12:39:21.000Z</time>
      </trkpt>
      <trkpt lat="43.38839" lon="-1.67173">
        <ele>9</ele>
        <time>2026-08-23T12:39:23.000Z</time>
      </trkpt>
      <trkpt lat="43.38844" lon="-1.67187">
        <ele>9</ele>
        <time>2026-08-23T12:39:25.000Z</time>
      </trkpt>
      <trkpt lat="43.38852" lon="-1.67213">
        <ele>9</ele>
        <time>2026-08-23T12:39:28.000Z</time>
      </trkpt>
      <trkpt lat="43.38855" lon="-1.67236">
        <ele>10</ele>
        <time>2026-08-23T12:39:31.000Z</time>
      </trkpt>
      <trkpt lat="43.38854" lon="-1.67253">
        <ele>10</ele>
        <time>2026-08-23T12:39:33.000Z</time>
      </trkpt>
      <trkpt lat="43.38851" lon="-1.67268">
        <ele>11</ele>
        <time>2026-08-23T12:39:35.000Z</time>
      </trkpt>
      <trkpt lat="43.3884" lon="-1.67295">
        <ele>12</ele>
        <time>2026-08-23T12:39:39.000Z</time>
      </trkpt>
      <trkpt lat="43.3883" lon="-1.6731">
        <ele>14</ele>
        <time>2026-08-23T12:39:42.000Z</time>
      </trkpt>
      <trkpt lat="43.38822" lon="-1.67327">
        <ele>16</ele>
        <time>2026-08-23T12:39:45.000Z</time>
      </trkpt>
      <trkpt lat="43.38817" lon="-1.67353">
        <ele>17</ele>
        <time>2026-08-23T12:39:48.000Z</time>
      </trkpt>
      <trkpt lat="43.38814" lon="-1.67504">
        <ele>15</ele>
        <time>2026-08-23T12:40:08.000Z</time>
      </trkpt>
      <trkpt lat="43.38812" lon="-1.67583">
        <ele>15</ele>
        <time>2026-08-23T12:40:18.000Z</time>
      </trkpt>
      <trkpt lat="43.38811" lon="-1.67595">
        <ele>14</ele>
        <time>2026-08-23T12:40:19.000Z</time>
      </trkpt>
      <trkpt lat="43.38811" lon="-1.676">
        <ele>14</ele>
        <time>2026-08-23T12:40:20.000Z</time>
      </trkpt>
      <trkpt lat="43.38811" lon="-1.67664">
        <ele>12</ele>
        <time>2026-08-23T12:40:28.000Z</time>
      </trkpt>
      <trkpt lat="43.3881" lon="-1.67716">
        <ele>14</ele>
        <time>2026-08-23T12:40:35.000Z</time>
      </trkpt>
      <trkpt lat="43.3881" lon="-1.67717">
        <ele>14</ele>
        <time>2026-08-23T12:40:35.000Z</time>
      </trkpt>
      <trkpt lat="43.3881" lon="-1.67749">
        <ele>15</ele>
        <time>2026-08-23T12:40:39.000Z</time>
      </trkpt>
      <trkpt lat="43.38813" lon="-1.67788">
        <ele>16</ele>
        <time>2026-08-23T12:40:44.000Z</time>
      </trkpt>
      <trkpt lat="43.38814" lon="-1.67792">
        <ele>16</ele>
        <time>2026-08-23T12:40:45.000Z</time>
      </trkpt>
      <trkpt lat="43.38826" lon="-1.67838">
        <ele>14</ele>
        <time>2026-08-23T12:40:51.000Z</time>
      </trkpt>
      <trkpt lat="43.38829" lon="-1.67845">
        <ele>13</ele>
        <time>2026-08-23T12:40:52.000Z</time>
      </trkpt>
      <trkpt lat="43.38841" lon="-1.67882">
        <ele>10</ele>
        <time>2026-08-23T12:40:58.000Z</time>
      </trkpt>
      <trkpt lat="43.38845" lon="-1.67895">
        <ele>9</ele>
        <time>2026-08-23T12:40:59.000Z</time>
      </trkpt>
      <trkpt lat="43.38846" lon="-1.67898">
        <ele>9</ele>
        <time>2026-08-23T12:41:00.000Z</time>
      </trkpt>
      <trkpt lat="43.38849" lon="-1.67918">
        <ele>8</ele>
        <time>2026-08-23T12:41:03.000Z</time>
      </trkpt>
      <trkpt lat="43.3885" lon="-1.67931">
        <ele>8</ele>
        <time>2026-08-23T12:41:04.000Z</time>
      </trkpt>
      <trkpt lat="43.38852" lon="-1.67942">
        <ele>8</ele>
        <time>2026-08-23T12:41:06.000Z</time>
      </trkpt>
      <trkpt lat="43.38853" lon="-1.67953">
        <ele>9</ele>
        <time>2026-08-23T12:41:07.000Z</time>
      </trkpt>
      <trkpt lat="43.3886" lon="-1.67973">
        <ele>8</ele>
        <time>2026-08-23T12:41:10.000Z</time>
      </trkpt>
      <trkpt lat="43.38887" lon="-1.68021">
        <ele>6</ele>
        <time>2026-08-23T12:41:18.000Z</time>
      </trkpt>
      <trkpt lat="43.38895" lon="-1.68048">
        <ele>6</ele>
        <time>2026-08-23T12:41:22.000Z</time>
      </trkpt>
      <trkpt lat="43.38907" lon="-1.68093">
        <ele>6</ele>
        <time>2026-08-23T12:41:28.000Z</time>
      </trkpt>
      <trkpt lat="43.38912" lon="-1.68105">
        <ele>6</ele>
        <time>2026-08-23T12:41:30.000Z</time>
      </trkpt>
      <trkpt lat="43.38924" lon="-1.68152">
        <ele>6</ele>
        <time>2026-08-23T12:41:36.000Z</time>
      </trkpt>
      <trkpt lat="43.3893" lon="-1.68165">
        <ele>6</ele>
        <time>2026-08-23T12:41:38.000Z</time>
      </trkpt>
      <trkpt lat="43.38952" lon="-1.6825">
        <ele>5</ele>
        <time>2026-08-23T12:41:50.000Z</time>
      </trkpt>
      <trkpt lat="43.38953" lon="-1.68269">
        <ele>6</ele>
        <time>2026-08-23T12:41:52.000Z</time>
      </trkpt>
      <trkpt lat="43.38956" lon="-1.68281">
        <ele>7</ele>
        <time>2026-08-23T12:41:54.000Z</time>
      </trkpt>
      <trkpt lat="43.38958" lon="-1.68289">
        <ele>7</ele>
        <time>2026-08-23T12:41:55.000Z</time>
      </trkpt>
      <trkpt lat="43.38959" lon="-1.68291">
        <ele>7</ele>
        <time>2026-08-23T12:41:55.000Z</time>
      </trkpt>
      <trkpt lat="43.38985" lon="-1.68401">
        <ele>6</ele>
        <time>2026-08-23T12:42:10.000Z</time>
      </trkpt>
      <trkpt lat="43.38988" lon="-1.68427">
        <ele>6</ele>
        <time>2026-08-23T12:42:14.000Z</time>
      </trkpt>
      <trkpt lat="43.3899" lon="-1.68444">
        <ele>5</ele>
        <time>2026-08-23T12:42:16.000Z</time>
      </trkpt>
      <trkpt lat="43.38992" lon="-1.68464">
        <ele>5</ele>
        <time>2026-08-23T12:42:18.000Z</time>
      </trkpt>
      <trkpt lat="43.38991" lon="-1.68487">
        <ele>5</ele>
        <time>2026-08-23T12:42:21.000Z</time>
      </trkpt>
      <trkpt lat="43.38993" lon="-1.68488">
        <ele>5</ele>
        <time>2026-08-23T12:42:22.000Z</time>
      </trkpt>
      <trkpt lat="43.38995" lon="-1.68491">
        <ele>5</ele>
        <time>2026-08-23T12:42:22.000Z</time>
      </trkpt>
      <trkpt lat="43.39007" lon="-1.68533">
        <ele>4</ele>
        <time>2026-08-23T12:42:28.000Z</time>
      </trkpt>
      <trkpt lat="43.39004" lon="-1.68539">
        <ele>4</ele>
        <time>2026-08-23T12:42:29.000Z</time>
      </trkpt>
      <trkpt lat="43.3901" lon="-1.68553">
        <ele>4</ele>
        <time>2026-08-23T12:42:31.000Z</time>
      </trkpt>
      <trkpt lat="43.39007" lon="-1.68558">
        <ele>4</ele>
        <time>2026-08-23T12:42:32.000Z</time>
      </trkpt>
      <trkpt lat="43.39004" lon="-1.68552">
        <ele>4</ele>
        <time>2026-08-23T12:42:33.000Z</time>
      </trkpt>
      <trkpt lat="43.38967" lon="-1.6858">
        <ele>2</ele>
        <time>2026-08-23T12:42:40.000Z</time>
      </trkpt>
      <trkpt lat="43.38925" lon="-1.68605">
        <ele>2</ele>
        <time>2026-08-23T12:42:49.000Z</time>
      </trkpt>
      <trkpt lat="43.38872" lon="-1.68629">
        <ele>3</ele>
        <time>2026-08-23T12:42:59.000Z</time>
      </trkpt>
      <trkpt lat="43.38869" lon="-1.68632">
        <ele>3</ele>
        <time>2026-08-23T12:42:59.000Z</time>
      </trkpt>
      <trkpt lat="43.38868" lon="-1.68636">
        <ele>3</ele>
        <time>2026-08-23T12:43:00.000Z</time>
      </trkpt>
      <trkpt lat="43.38909" lon="-1.68752">
        <ele>5</ele>
        <time>2026-08-23T12:43:16.000Z</time>
      </trkpt>
      <trkpt lat="43.38909" lon="-1.68757">
        <ele>5</ele>
        <time>2026-08-23T12:43:17.000Z</time>
      </trkpt>
      <trkpt lat="43.38916" lon="-1.68764">
        <ele>5</ele>
        <time>2026-08-23T12:43:19.000Z</time>
      </trkpt>
      <trkpt lat="43.38962" lon="-1.68899">
        <ele>7</ele>
        <time>2026-08-23T12:43:38.000Z</time>
      </trkpt>
      <trkpt lat="43.3896" lon="-1.68906">
        <ele>8</ele>
        <time>2026-08-23T12:43:39.000Z</time>
      </trkpt>
      <trkpt lat="43.38954" lon="-1.68914">
        <ele>8</ele>
        <time>2026-08-23T12:43:40.000Z</time>
      </trkpt>
      <trkpt lat="43.38932" lon="-1.68933">
        <ele>9</ele>
        <time>2026-08-23T12:43:45.000Z</time>
      </trkpt>
      <trkpt lat="43.38923" lon="-1.68957">
        <ele>10</ele>
        <time>2026-08-23T12:43:48.000Z</time>
      </trkpt>
      <trkpt lat="43.38917" lon="-1.68966">
        <ele>11</ele>
        <time>2026-08-23T12:43:50.000Z</time>
      </trkpt>
      <trkpt lat="43.3887" lon="-1.69001">
        <ele>15</ele>
        <time>2026-08-23T12:44:00.000Z</time>
      </trkpt>
      <trkpt lat="43.38865" lon="-1.69008">
        <ele>16</ele>
        <time>2026-08-23T12:44:01.000Z</time>
      </trkpt>
      <trkpt lat="43.38855" lon="-1.69041">
        <ele>20</ele>
        <time>2026-08-23T12:44:05.000Z</time>
      </trkpt>
      <trkpt lat="43.38851" lon="-1.69048">
        <ele>21</ele>
        <time>2026-08-23T12:44:07.000Z</time>
      </trkpt>
      <trkpt lat="43.38846" lon="-1.69051">
        <ele>22</ele>
        <time>2026-08-23T12:44:08.000Z</time>
      </trkpt>
      <trkpt lat="43.38841" lon="-1.69048">
        <ele>22</ele>
        <time>2026-08-23T12:44:09.000Z</time>
      </trkpt>
      <trkpt lat="43.38824" lon="-1.69011">
        <ele>18</ele>
        <time>2026-08-23T12:44:14.000Z</time>
      </trkpt>
      <trkpt lat="43.38817" lon="-1.69005">
        <ele>17</ele>
        <time>2026-08-23T12:44:16.000Z</time>
      </trkpt>
      <trkpt lat="43.38807" lon="-1.69">
        <ele>17</ele>
        <time>2026-08-23T12:44:18.000Z</time>
      </trkpt>
      <trkpt lat="43.38784" lon="-1.68997">
        <ele>17</ele>
        <time>2026-08-23T12:44:22.000Z</time>
      </trkpt>
      <trkpt lat="43.38774" lon="-1.69004">
        <ele>17</ele>
        <time>2026-08-23T12:44:24.000Z</time>
      </trkpt>
      <trkpt lat="43.38767" lon="-1.69017">
        <ele>18</ele>
        <time>2026-08-23T12:44:26.000Z</time>
      </trkpt>
      <trkpt lat="43.38766" lon="-1.69033">
        <ele>19</ele>
        <time>2026-08-23T12:44:28.000Z</time>
      </trkpt>
      <trkpt lat="43.3877" lon="-1.69047">
        <ele>20</ele>
        <time>2026-08-23T12:44:30.000Z</time>
      </trkpt>
      <trkpt lat="43.38804" lon="-1.69087">
        <ele>24</ele>
        <time>2026-08-23T12:44:38.000Z</time>
      </trkpt>
      <trkpt lat="43.38808" lon="-1.69095">
        <ele>25</ele>
        <time>2026-08-23T12:44:39.000Z</time>
      </trkpt>
      <trkpt lat="43.38817" lon="-1.69129">
        <ele>29</ele>
        <time>2026-08-23T12:44:44.000Z</time>
      </trkpt>
      <trkpt lat="43.38846" lon="-1.69155">
        <ele>32</ele>
        <time>2026-08-23T12:44:50.000Z</time>
      </trkpt>
      <trkpt lat="43.38855" lon="-1.69173">
        <ele>32</ele>
        <time>2026-08-23T12:44:53.000Z</time>
      </trkpt>
      <trkpt lat="43.38861" lon="-1.692">
        <ele>32</ele>
        <time>2026-08-23T12:44:56.000Z</time>
      </trkpt>
      <trkpt lat="43.38858" lon="-1.69217">
        <ele>33</ele>
        <time>2026-08-23T12:44:59.000Z</time>
      </trkpt>
      <trkpt lat="43.38832" lon="-1.69308">
        <ele>39</ele>
        <time>2026-08-23T12:45:11.000Z</time>
      </trkpt>
      <trkpt lat="43.38793" lon="-1.69508">
        <ele>44</ele>
        <time>2026-08-23T12:45:38.000Z</time>
      </trkpt>
      <trkpt lat="43.38789" lon="-1.69558">
        <ele>45</ele>
        <time>2026-08-23T12:45:44.000Z</time>
      </trkpt>
      <trkpt lat="43.38784" lon="-1.69588">
        <ele>45</ele>
        <time>2026-08-23T12:45:48.000Z</time>
      </trkpt>
      <trkpt lat="43.38771" lon="-1.69628">
        <ele>45</ele>
        <time>2026-08-23T12:45:54.000Z</time>
      </trkpt>
      <trkpt lat="43.38685" lon="-1.69868">
        <ele>40</ele>
        <time>2026-08-23T12:46:29.000Z</time>
      </trkpt>
      <trkpt lat="43.38673" lon="-1.69916">
        <ele>39</ele>
        <time>2026-08-23T12:46:35.000Z</time>
      </trkpt>
      <trkpt lat="43.38664" lon="-1.69962">
        <ele>40</ele>
        <time>2026-08-23T12:46:41.000Z</time>
      </trkpt>
      <trkpt lat="43.38663" lon="-1.69971">
        <ele>41</ele>
        <time>2026-08-23T12:46:43.000Z</time>
      </trkpt>
      <trkpt lat="43.38664" lon="-1.70023">
        <ele>43</ele>
        <time>2026-08-23T12:46:49.000Z</time>
      </trkpt>
      <trkpt lat="43.38659" lon="-1.70048">
        <ele>44</ele>
        <time>2026-08-23T12:46:53.000Z</time>
      </trkpt>
      <trkpt lat="43.3865" lon="-1.70061">
        <ele>45</ele>
        <time>2026-08-23T12:46:55.000Z</time>
      </trkpt>
      <trkpt lat="43.38628" lon="-1.70069">
        <ele>44</ele>
        <time>2026-08-23T12:46:59.000Z</time>
      </trkpt>
      <trkpt lat="43.38585" lon="-1.7008">
        <ele>43</ele>
        <time>2026-08-23T12:47:07.000Z</time>
      </trkpt>
      <trkpt lat="43.3856" lon="-1.7009">
        <ele>42</ele>
        <time>2026-08-23T12:47:11.000Z</time>
      </trkpt>
      <trkpt lat="43.38544" lon="-1.70101">
        <ele>42</ele>
        <time>2026-08-23T12:47:15.000Z</time>
      </trkpt>
      <trkpt lat="43.38533" lon="-1.70106">
        <ele>41</ele>
        <time>2026-08-23T12:47:17.000Z</time>
      </trkpt>
      <trkpt lat="43.3852" lon="-1.70106">
        <ele>40</ele>
        <time>2026-08-23T12:47:19.000Z</time>
      </trkpt>
      <trkpt lat="43.38506" lon="-1.70102">
        <ele>39</ele>
        <time>2026-08-23T12:47:22.000Z</time>
      </trkpt>
      <trkpt lat="43.38494" lon="-1.70092">
        <ele>39</ele>
        <time>2026-08-23T12:47:24.000Z</time>
      </trkpt>
      <trkpt lat="43.3842" lon="-1.69989">
        <ele>36</ele>
        <time>2026-08-23T12:47:43.000Z</time>
      </trkpt>
      <trkpt lat="43.38409" lon="-1.69965">
        <ele>35</ele>
        <time>2026-08-23T12:47:46.000Z</time>
      </trkpt>
      <trkpt lat="43.38391" lon="-1.69936">
        <ele>33</ele>
        <time>2026-08-23T12:47:51.000Z</time>
      </trkpt>
      <trkpt lat="43.38357" lon="-1.69866">
        <ele>30</ele>
        <time>2026-08-23T12:48:02.000Z</time>
      </trkpt>
      <trkpt lat="43.38354" lon="-1.69849">
        <ele>29</ele>
        <time>2026-08-23T12:48:05.000Z</time>
      </trkpt>
      <trkpt lat="43.38351" lon="-1.69764">
        <ele>23</ele>
        <time>2026-08-23T12:48:16.000Z</time>
      </trkpt>
      <trkpt lat="43.38354" lon="-1.69734">
        <ele>21</ele>
        <time>2026-08-23T12:48:19.000Z</time>
      </trkpt>
      <trkpt lat="43.38346" lon="-1.69709">
        <ele>19</ele>
        <time>2026-08-23T12:48:23.000Z</time>
      </trkpt>
      <trkpt lat="43.38332" lon="-1.69643">
        <ele>14</ele>
        <time>2026-08-23T12:48:32.000Z</time>
      </trkpt>
      <trkpt lat="43.38324" lon="-1.69619">
        <ele>12</ele>
        <time>2026-08-23T12:48:35.000Z</time>
      </trkpt>
      <trkpt lat="43.38315" lon="-1.69607">
        <ele>10</ele>
        <time>2026-08-23T12:48:38.000Z</time>
      </trkpt>
      <trkpt lat="43.38289" lon="-1.69584">
        <ele>7</ele>
        <time>2026-08-23T12:48:43.000Z</time>
      </trkpt>
      <trkpt lat="43.38307" lon="-1.69518">
        <ele>6</ele>
        <time>2026-08-23T12:48:52.000Z</time>
      </trkpt>
      <trkpt lat="43.38298" lon="-1.69519">
        <ele>6</ele>
        <time>2026-08-23T12:48:54.000Z</time>
      </trkpt>
      <trkpt lat="43.38278" lon="-1.69513">
        <ele>6</ele>
        <time>2026-08-23T12:48:57.000Z</time>
      </trkpt>
      <trkpt lat="43.38243" lon="-1.695">
        <ele>6</ele>
        <time>2026-08-23T12:49:04.000Z</time>
      </trkpt>
      <trkpt lat="43.38241" lon="-1.69499">
        <ele>6</ele>
        <time>2026-08-23T12:49:04.000Z</time>
      </trkpt>
      <trkpt lat="43.38222" lon="-1.69484">
        <ele>6</ele>
        <time>2026-08-23T12:49:08.000Z</time>
      </trkpt>
      <trkpt lat="43.382" lon="-1.69453">
        <ele>6</ele>
        <time>2026-08-23T12:49:14.000Z</time>
      </trkpt>
      <trkpt lat="43.38179" lon="-1.69396">
        <ele>5</ele>
        <time>2026-08-23T12:49:22.000Z</time>
      </trkpt>
      <trkpt lat="43.38144" lon="-1.69339">
        <ele>6</ele>
        <time>2026-08-23T12:49:32.000Z</time>
      </trkpt>
      <trkpt lat="43.38135" lon="-1.69331">
        <ele>6</ele>
        <time>2026-08-23T12:49:34.000Z</time>
      </trkpt>
      <trkpt lat="43.38123" lon="-1.69331">
        <ele>7</ele>
        <time>2026-08-23T12:49:36.000Z</time>
      </trkpt>
      <trkpt lat="43.38117" lon="-1.69331">
        <ele>7</ele>
        <time>2026-08-23T12:49:37.000Z</time>
      </trkpt>
      <trkpt lat="43.38109" lon="-1.69332">
        <ele>8</ele>
        <time>2026-08-23T12:49:38.000Z</time>
      </trkpt>
      <trkpt lat="43.381" lon="-1.69324">
        <ele>8</ele>
        <time>2026-08-23T12:49:40.000Z</time>
      </trkpt>
      <trkpt lat="43.38091" lon="-1.69281">
        <ele>7</ele>
        <time>2026-08-23T12:49:46.000Z</time>
      </trkpt>
      <trkpt lat="43.38067" lon="-1.6923">
        <ele>8</ele>
        <time>2026-08-23T12:49:54.000Z</time>
      </trkpt>
      <trkpt lat="43.38058" lon="-1.69191">
        <ele>8</ele>
        <time>2026-08-23T12:49:59.000Z</time>
      </trkpt>
      <trkpt lat="43.38028" lon="-1.6914">
        <ele>9</ele>
        <time>2026-08-23T12:50:08.000Z</time>
      </trkpt>
      <trkpt lat="43.3799" lon="-1.69085">
        <ele>8</ele>
        <time>2026-08-23T12:50:17.000Z</time>
      </trkpt>
      <trkpt lat="43.37973" lon="-1.69084">
        <ele>8</ele>
        <time>2026-08-23T12:50:20.000Z</time>
      </trkpt>
      <trkpt lat="43.37964" lon="-1.69071">
        <ele>8</ele>
        <time>2026-08-23T12:50:23.000Z</time>
      </trkpt>
      <trkpt lat="43.37912" lon="-1.69012">
        <ele>6</ele>
        <time>2026-08-23T12:50:35.000Z</time>
      </trkpt>
      <trkpt lat="43.37888" lon="-1.69002">
        <ele>5</ele>
        <time>2026-08-23T12:50:39.000Z</time>
      </trkpt>
      <trkpt lat="43.37872" lon="-1.69005">
        <ele>6</ele>
        <time>2026-08-23T12:50:42.000Z</time>
      </trkpt>
      <trkpt lat="43.3784" lon="-1.69018">
        <ele>7</ele>
        <time>2026-08-23T12:50:48.000Z</time>
      </trkpt>
      <trkpt lat="43.37797" lon="-1.69045">
        <ele>10</ele>
        <time>2026-08-23T12:50:56.000Z</time>
      </trkpt>
      <trkpt lat="43.37777" lon="-1.69053">
        <ele>10</ele>
        <time>2026-08-23T12:51:00.000Z</time>
      </trkpt>
      <trkpt lat="43.37761" lon="-1.69047">
        <ele>10</ele>
        <time>2026-08-23T12:51:03.000Z</time>
      </trkpt>
      <trkpt lat="43.37577" lon="-1.68899">
        <ele>8</ele>
        <time>2026-08-23T12:51:41.000Z</time>
      </trkpt>
      <trkpt lat="43.37526" lon="-1.68863">
        <ele>8</ele>
        <time>2026-08-23T12:51:51.000Z</time>
      </trkpt>
      <trkpt lat="43.37512" lon="-1.68848">
        <ele>7</ele>
        <time>2026-08-23T12:51:54.000Z</time>
      </trkpt>
      <trkpt lat="43.37496" lon="-1.68825">
        <ele>7</ele>
        <time>2026-08-23T12:51:58.000Z</time>
      </trkpt>
      <trkpt lat="43.37475" lon="-1.68772">
        <ele>6</ele>
        <time>2026-08-23T12:52:06.000Z</time>
      </trkpt>
      <trkpt lat="43.37461" lon="-1.68754">
        <ele>6</ele>
        <time>2026-08-23T12:52:10.000Z</time>
      </trkpt>
      <trkpt lat="43.37448" lon="-1.68747">
        <ele>6</ele>
        <time>2026-08-23T12:52:12.000Z</time>
      </trkpt>
      <trkpt lat="43.37428" lon="-1.68752">
        <ele>6</ele>
        <time>2026-08-23T12:52:16.000Z</time>
      </trkpt>
      <trkpt lat="43.37404" lon="-1.68763">
        <ele>7</ele>
        <time>2026-08-23T12:52:20.000Z</time>
      </trkpt>
      <trkpt lat="43.3735" lon="-1.68765">
        <ele>9</ele>
        <time>2026-08-23T12:52:30.000Z</time>
      </trkpt>
      <trkpt lat="43.37244" lon="-1.68827">
        <ele>11</ele>
        <time>2026-08-23T12:52:50.000Z</time>
      </trkpt>
      <trkpt lat="43.3719" lon="-1.68876">
        <ele>12</ele>
        <time>2026-08-23T12:53:02.000Z</time>
      </trkpt>
      <trkpt lat="43.37175" lon="-1.68884">
        <ele>12</ele>
        <time>2026-08-23T12:53:05.000Z</time>
      </trkpt>
      <trkpt lat="43.37147" lon="-1.68883">
        <ele>10</ele>
        <time>2026-08-23T12:53:10.000Z</time>
      </trkpt>
      <trkpt lat="43.37088" lon="-1.68865">
        <ele>7</ele>
        <time>2026-08-23T12:53:20.000Z</time>
      </trkpt>
      <trkpt lat="43.37076" lon="-1.68855">
        <ele>6</ele>
        <time>2026-08-23T12:53:23.000Z</time>
      </trkpt>
      <trkpt lat="43.37072" lon="-1.68846">
        <ele>6</ele>
        <time>2026-08-23T12:53:24.000Z</time>
      </trkpt>
      <trkpt lat="43.37063" lon="-1.6883">
        <ele>6</ele>
        <time>2026-08-23T12:53:27.000Z</time>
      </trkpt>
      <trkpt lat="43.37051" lon="-1.688">
        <ele>6</ele>
        <time>2026-08-23T12:53:31.000Z</time>
      </trkpt>
      <trkpt lat="43.37045" lon="-1.68775">
        <ele>6</ele>
        <time>2026-08-23T12:53:35.000Z</time>
      </trkpt>
      <trkpt lat="43.37027" lon="-1.68693">
        <ele>7</ele>
        <time>2026-08-23T12:53:46.000Z</time>
      </trkpt>
      <trkpt lat="43.37022" lon="-1.68671">
        <ele>7</ele>
        <time>2026-08-23T12:53:49.000Z</time>
      </trkpt>
      <trkpt lat="43.37014" lon="-1.68644">
        <ele>8</ele>
        <time>2026-08-23T12:53:53.000Z</time>
      </trkpt>
      <trkpt lat="43.37011" lon="-1.68627">
        <ele>8</ele>
        <time>2026-08-23T12:53:55.000Z</time>
      </trkpt>
      <trkpt lat="43.36998" lon="-1.68606">
        <ele>8</ele>
        <time>2026-08-23T12:53:58.000Z</time>
      </trkpt>
      <trkpt lat="43.36971" lon="-1.6856">
        <ele>9</ele>
        <time>2026-08-23T12:54:06.000Z</time>
      </trkpt>
      <trkpt lat="43.36942" lon="-1.68516">
        <ele>10</ele>
        <time>2026-08-23T12:54:14.000Z</time>
      </trkpt>
      <trkpt lat="43.36932" lon="-1.68503">
        <ele>11</ele>
        <time>2026-08-23T12:54:16.000Z</time>
      </trkpt>
      <trkpt lat="43.36905" lon="-1.6849">
        <ele>12</ele>
        <time>2026-08-23T12:54:21.000Z</time>
      </trkpt>
      <trkpt lat="43.36887" lon="-1.68478">
        <ele>14</ele>
        <time>2026-08-23T12:54:25.000Z</time>
      </trkpt>
      <trkpt lat="43.36879" lon="-1.68482">
        <ele>14</ele>
        <time>2026-08-23T12:54:26.000Z</time>
      </trkpt>
      <trkpt lat="43.36875" lon="-1.6849">
        <ele>14</ele>
        <time>2026-08-23T12:54:28.000Z</time>
      </trkpt>
      <trkpt lat="43.36839" lon="-1.6858">
        <ele>14</ele>
        <time>2026-08-23T12:54:41.000Z</time>
      </trkpt>
      <trkpt lat="43.36791" lon="-1.6864">
        <ele>14</ele>
        <time>2026-08-23T12:54:52.000Z</time>
      </trkpt>
      <trkpt lat="43.36764" lon="-1.68668">
        <ele>15</ele>
        <time>2026-08-23T12:54:58.000Z</time>
      </trkpt>
      <trkpt lat="43.36754" lon="-1.68676">
        <ele>15</ele>
        <time>2026-08-23T12:55:01.000Z</time>
      </trkpt>
      <trkpt lat="43.36684" lon="-1.68711">
        <ele>16</ele>
        <time>2026-08-23T12:55:14.000Z</time>
      </trkpt>
      <trkpt lat="43.36658" lon="-1.68726">
        <ele>16</ele>
        <time>2026-08-23T12:55:19.000Z</time>
      </trkpt>
      <trkpt lat="43.36588" lon="-1.68792">
        <ele>18</ele>
        <time>2026-08-23T12:55:34.000Z</time>
      </trkpt>
      <trkpt lat="43.36445" lon="-1.68999">
        <ele>26</ele>
        <time>2026-08-23T12:56:11.000Z</time>
      </trkpt>
      <trkpt lat="43.36413" lon="-1.69049">
        <ele>25</ele>
        <time>2026-08-23T12:56:19.000Z</time>
      </trkpt>
      <trkpt lat="43.36397" lon="-1.69082">
        <ele>24</ele>
        <time>2026-08-23T12:56:25.000Z</time>
      </trkpt>
      <trkpt lat="43.36366" lon="-1.69156">
        <ele>18</ele>
        <time>2026-08-23T12:56:36.000Z</time>
      </trkpt>
      <trkpt lat="43.36337" lon="-1.69251">
        <ele>16</ele>
        <time>2026-08-23T12:56:49.000Z</time>
      </trkpt>
      <trkpt lat="43.36336" lon="-1.69259">
        <ele>16</ele>
        <time>2026-08-23T12:56:50.000Z</time>
      </trkpt>
      <trkpt lat="43.36334" lon="-1.69265">
        <ele>16</ele>
        <time>2026-08-23T12:56:51.000Z</time>
      </trkpt>
      <trkpt lat="43.36327" lon="-1.69245">
        <ele>16</ele>
        <time>2026-08-23T12:56:54.000Z</time>
      </trkpt>
      <trkpt lat="43.36315" lon="-1.69237">
        <ele>15</ele>
        <time>2026-08-23T12:56:56.000Z</time>
      </trkpt>
      <trkpt lat="43.36304" lon="-1.69239">
        <ele>15</ele>
        <time>2026-08-23T12:56:58.000Z</time>
      </trkpt>
      <trkpt lat="43.36294" lon="-1.69234">
        <ele>14</ele>
        <time>2026-08-23T12:57:00.000Z</time>
      </trkpt>
      <trkpt lat="43.36287" lon="-1.69221">
        <ele>14</ele>
        <time>2026-08-23T12:57:02.000Z</time>
      </trkpt>
      <trkpt lat="43.36287" lon="-1.69206">
        <ele>15</ele>
        <time>2026-08-23T12:57:04.000Z</time>
      </trkpt>
      <trkpt lat="43.36289" lon="-1.69199">
        <ele>15</ele>
        <time>2026-08-23T12:57:05.000Z</time>
      </trkpt>
      <trkpt lat="43.36285" lon="-1.69187">
        <ele>15</ele>
        <time>2026-08-23T12:57:07.000Z</time>
      </trkpt>
      <trkpt lat="43.36282" lon="-1.69176">
        <ele>15</ele>
        <time>2026-08-23T12:57:08.000Z</time>
      </trkpt>
      <trkpt lat="43.36271" lon="-1.69162">
        <ele>15</ele>
        <time>2026-08-23T12:57:11.000Z</time>
      </trkpt>
      <trkpt lat="43.36253" lon="-1.69138">
        <ele>16</ele>
        <time>2026-08-23T12:57:15.000Z</time>
      </trkpt>
      <trkpt lat="43.36247" lon="-1.69134">
        <ele>16</ele>
        <time>2026-08-23T12:57:16.000Z</time>
      </trkpt>
      <trkpt lat="43.36242" lon="-1.69131">
        <ele>16</ele>
        <time>2026-08-23T12:57:17.000Z</time>
      </trkpt>
      <trkpt lat="43.36235" lon="-1.69129">
        <ele>16</ele>
        <time>2026-08-23T12:57:19.000Z</time>
      </trkpt>
      <trkpt lat="43.36228" lon="-1.6913">
        <ele>16</ele>
        <time>2026-08-23T12:57:20.000Z</time>
      </trkpt>
      <trkpt lat="43.36217" lon="-1.69136">
        <ele>16</ele>
        <time>2026-08-23T12:57:22.000Z</time>
      </trkpt>
      <trkpt lat="43.36203" lon="-1.69155">
        <ele>16</ele>
        <time>2026-08-23T12:57:26.000Z</time>
      </trkpt>
      <trkpt lat="43.36187" lon="-1.69185">
        <ele>15</ele>
        <time>2026-08-23T12:57:30.000Z</time>
      </trkpt>
      <trkpt lat="43.36177" lon="-1.69201">
        <ele>14</ele>
        <time>2026-08-23T12:57:33.000Z</time>
      </trkpt>
      <trkpt lat="43.36165" lon="-1.69219">
        <ele>13</ele>
        <time>2026-08-23T12:57:36.000Z</time>
      </trkpt>
      <trkpt lat="43.36148" lon="-1.69235">
        <ele>13</ele>
        <time>2026-08-23T12:57:40.000Z</time>
      </trkpt>
      <trkpt lat="43.36132" lon="-1.69244">
        <ele>12</ele>
        <time>2026-08-23T12:57:43.000Z</time>
      </trkpt>
      <trkpt lat="43.3612" lon="-1.69248">
        <ele>12</ele>
        <time>2026-08-23T12:57:45.000Z</time>
      </trkpt>
      <trkpt lat="43.36089" lon="-1.69251">
        <ele>12</ele>
        <time>2026-08-23T12:57:51.000Z</time>
      </trkpt>
      <trkpt lat="43.36074" lon="-1.6925">
        <ele>12</ele>
        <time>2026-08-23T12:57:53.000Z</time>
      </trkpt>
      <trkpt lat="43.36051" lon="-1.69244">
        <ele>13</ele>
        <time>2026-08-23T12:57:58.000Z</time>
      </trkpt>
      <trkpt lat="43.36043" lon="-1.69241">
        <ele>13</ele>
        <time>2026-08-23T12:57:59.000Z</time>
      </trkpt>
      <trkpt lat="43.36035" lon="-1.69236">
        <ele>13</ele>
        <time>2026-08-23T12:58:01.000Z</time>
      </trkpt>
      <trkpt lat="43.36011" lon="-1.69224">
        <ele>13</ele>
        <time>2026-08-23T12:58:05.000Z</time>
      </trkpt>
      <trkpt lat="43.35991" lon="-1.69217">
        <ele>14</ele>
        <time>2026-08-23T12:58:09.000Z</time>
      </trkpt>
      <trkpt lat="43.35965" lon="-1.69215">
        <ele>15</ele>
        <time>2026-08-23T12:58:13.000Z</time>
      </trkpt>
      <trkpt lat="43.35874" lon="-1.69217">
        <ele>18</ele>
        <time>2026-08-23T12:58:30.000Z</time>
      </trkpt>
      <trkpt lat="43.3585" lon="-1.69212">
        <ele>19</ele>
        <time>2026-08-23T12:58:34.000Z</time>
      </trkpt>
      <trkpt lat="43.35829" lon="-1.69206">
        <ele>20</ele>
        <time>2026-08-23T12:58:38.000Z</time>
      </trkpt>
      <trkpt lat="43.35638" lon="-1.69111">
        <ele>24</ele>
        <time>2026-08-23T12:59:14.000Z</time>
      </trkpt>
      <trkpt lat="43.35579" lon="-1.69083">
        <ele>22</ele>
        <time>2026-08-23T12:59:25.000Z</time>
      </trkpt>
      <trkpt lat="43.35554" lon="-1.69075">
        <ele>21</ele>
        <time>2026-08-23T12:59:30.000Z</time>
      </trkpt>
      <trkpt lat="43.35532" lon="-1.6907">
        <ele>21</ele>
        <time>2026-08-23T12:59:34.000Z</time>
      </trkpt>
      <trkpt lat="43.35506" lon="-1.69069">
        <ele>21</ele>
        <time>2026-08-23T12:59:38.000Z</time>
      </trkpt>
      <trkpt lat="43.35452" lon="-1.69074">
        <ele>21</ele>
        <time>2026-08-23T12:59:48.000Z</time>
      </trkpt>
      <trkpt lat="43.35429" lon="-1.69071">
        <ele>21</ele>
        <time>2026-08-23T12:59:52.000Z</time>
      </trkpt>
      <trkpt lat="43.35412" lon="-1.69062">
        <ele>21</ele>
        <time>2026-08-23T12:59:55.000Z</time>
      </trkpt>
      <trkpt lat="43.35373" lon="-1.6903">
        <ele>23</ele>
        <time>2026-08-23T13:00:03.000Z</time>
      </trkpt>
      <trkpt lat="43.35343" lon="-1.69014">
        <ele>24</ele>
        <time>2026-08-23T13:00:09.000Z</time>
      </trkpt>
      <trkpt lat="43.353" lon="-1.68987">
        <ele>26</ele>
        <time>2026-08-23T13:00:17.000Z</time>
      </trkpt>
      <trkpt lat="43.35284" lon="-1.68977">
        <ele>26</ele>
        <time>2026-08-23T13:00:21.000Z</time>
      </trkpt>
      <trkpt lat="43.35237" lon="-1.68949">
        <ele>28</ele>
        <time>2026-08-23T13:00:30.000Z</time>
      </trkpt>
      <trkpt lat="43.35223" lon="-1.68936">
        <ele>29</ele>
        <time>2026-08-23T13:00:33.000Z</time>
      </trkpt>
      <trkpt lat="43.35201" lon="-1.68925">
        <ele>29</ele>
        <time>2026-08-23T13:00:37.000Z</time>
      </trkpt>
      <trkpt lat="43.35102" lon="-1.68886">
        <ele>34</ele>
        <time>2026-08-23T13:00:55.000Z</time>
      </trkpt>
      <trkpt lat="43.35027" lon="-1.68868">
        <ele>34</ele>
        <time>2026-08-23T13:01:09.000Z</time>
      </trkpt>
      <trkpt lat="43.34983" lon="-1.68863">
        <ele>34</ele>
        <time>2026-08-23T13:01:17.000Z</time>
      </trkpt>
      <trkpt lat="43.34976" lon="-1.68862">
        <ele>34</ele>
        <time>2026-08-23T13:01:18.000Z</time>
      </trkpt>
      <trkpt lat="43.34945" lon="-1.68861">
        <ele>34</ele>
        <time>2026-08-23T13:01:23.000Z</time>
      </trkpt>
      <trkpt lat="43.34932" lon="-1.68864">
        <ele>34</ele>
        <time>2026-08-23T13:01:26.000Z</time>
      </trkpt>
      <trkpt lat="43.34918" lon="-1.68878">
        <ele>35</ele>
        <time>2026-08-23T13:01:29.000Z</time>
      </trkpt>
      <trkpt lat="43.34906" lon="-1.68898">
        <ele>35</ele>
        <time>2026-08-23T13:01:32.000Z</time>
      </trkpt>
      <trkpt lat="43.34903" lon="-1.68908">
        <ele>35</ele>
        <time>2026-08-23T13:01:34.000Z</time>
      </trkpt>
      <trkpt lat="43.34896" lon="-1.68916">
        <ele>35</ele>
        <time>2026-08-23T13:01:35.000Z</time>
      </trkpt>
      <trkpt lat="43.34888" lon="-1.68921">
        <ele>35</ele>
        <time>2026-08-23T13:01:37.000Z</time>
      </trkpt>
      <trkpt lat="43.34879" lon="-1.6892">
        <ele>36</ele>
        <time>2026-08-23T13:01:38.000Z</time>
      </trkpt>
      <trkpt lat="43.34869" lon="-1.68911">
        <ele>36</ele>
        <time>2026-08-23T13:01:40.000Z</time>
      </trkpt>
      <trkpt lat="43.34865" lon="-1.68902">
        <ele>35</ele>
        <time>2026-08-23T13:01:42.000Z</time>
      </trkpt>
      <trkpt lat="43.34863" lon="-1.68891">
        <ele>35</ele>
        <time>2026-08-23T13:01:43.000Z</time>
      </trkpt>
      <trkpt lat="43.3485" lon="-1.68877">
        <ele>35</ele>
        <time>2026-08-23T13:01:46.000Z</time>
      </trkpt>
      <trkpt lat="43.34834" lon="-1.68866">
        <ele>35</ele>
        <time>2026-08-23T13:01:49.000Z</time>
      </trkpt>
      <trkpt lat="43.348" lon="-1.68865">
        <ele>36</ele>
        <time>2026-08-23T13:01:55.000Z</time>
      </trkpt>
      <trkpt lat="43.34767" lon="-1.68873">
        <ele>37</ele>
        <time>2026-08-23T13:02:01.000Z</time>
      </trkpt>
      <trkpt lat="43.34744" lon="-1.68882">
        <ele>37</ele>
        <time>2026-08-23T13:02:06.000Z</time>
      </trkpt>
      <trkpt lat="43.34731" lon="-1.68889">
        <ele>38</ele>
        <time>2026-08-23T13:02:08.000Z</time>
      </trkpt>
      <trkpt lat="43.34705" lon="-1.68905">
        <ele>39</ele>
        <time>2026-08-23T13:02:13.000Z</time>
      </trkpt>
      <trkpt lat="43.34674" lon="-1.68928">
        <ele>40</ele>
        <time>2026-08-23T13:02:19.000Z</time>
      </trkpt>
      <trkpt lat="43.34638" lon="-1.68962">
        <ele>41</ele>
        <time>2026-08-23T13:02:27.000Z</time>
      </trkpt>
      <trkpt lat="43.34585" lon="-1.68988">
        <ele>42</ele>
        <time>2026-08-23T13:02:37.000Z</time>
      </trkpt>
      <trkpt lat="43.34565" lon="-1.68992">
        <ele>42</ele>
        <time>2026-08-23T13:02:41.000Z</time>
      </trkpt>
      <trkpt lat="43.34527" lon="-1.6899">
        <ele>43</ele>
        <time>2026-08-23T13:02:48.000Z</time>
      </trkpt>
      <trkpt lat="43.34517" lon="-1.6899">
        <ele>43</ele>
        <time>2026-08-23T13:02:49.000Z</time>
      </trkpt>
      <trkpt lat="43.34491" lon="-1.68991">
        <ele>44</ele>
        <time>2026-08-23T13:02:54.000Z</time>
      </trkpt>
      <trkpt lat="43.34479" lon="-1.68993">
        <ele>44</ele>
        <time>2026-08-23T13:02:56.000Z</time>
      </trkpt>
      <trkpt lat="43.34286" lon="-1.69031">
        <ele>48</ele>
        <time>2026-08-23T13:03:31.000Z</time>
      </trkpt>
      <trkpt lat="43.34262" lon="-1.69036">
        <ele>48</ele>
        <time>2026-08-23T13:03:35.000Z</time>
      </trkpt>
      <trkpt lat="43.34205" lon="-1.69048">
        <ele>52</ele>
        <time>2026-08-23T13:03:45.000Z</time>
      </trkpt>
      <trkpt lat="43.34152" lon="-1.69057">
        <ele>57</ele>
        <time>2026-08-23T13:03:55.000Z</time>
      </trkpt>
      <trkpt lat="43.3413" lon="-1.69063">
        <ele>58</ele>
        <time>2026-08-23T13:03:59.000Z</time>
      </trkpt>
      <trkpt lat="43.3411" lon="-1.69068">
        <ele>60</ele>
        <time>2026-08-23T13:04:03.000Z</time>
      </trkpt>
      <trkpt lat="43.3406" lon="-1.69084">
        <ele>60</ele>
        <time>2026-08-23T13:04:12.000Z</time>
      </trkpt>
      <trkpt lat="43.34049" lon="-1.69085">
        <ele>61</ele>
        <time>2026-08-23T13:04:14.000Z</time>
      </trkpt>
      <trkpt lat="43.34031" lon="-1.69088">
        <ele>62</ele>
        <time>2026-08-23T13:04:17.000Z</time>
      </trkpt>
      <trkpt lat="43.33982" lon="-1.69086">
        <ele>63</ele>
        <time>2026-08-23T13:04:26.000Z</time>
      </trkpt>
      <trkpt lat="43.33936" lon="-1.69081">
        <ele>61</ele>
        <time>2026-08-23T13:04:34.000Z</time>
      </trkpt>
      <trkpt lat="43.33869" lon="-1.69059">
        <ele>64</ele>
        <time>2026-08-23T13:04:46.000Z</time>
      </trkpt>
      <trkpt lat="43.33851" lon="-1.69056">
        <ele>65</ele>
        <time>2026-08-23T13:04:49.000Z</time>
      </trkpt>
      <trkpt lat="43.33836" lon="-1.69057">
        <ele>66</ele>
        <time>2026-08-23T13:04:52.000Z</time>
      </trkpt>
      <trkpt lat="43.33819" lon="-1.69062">
        <ele>66</ele>
        <time>2026-08-23T13:04:55.000Z</time>
      </trkpt>
      <trkpt lat="43.3378" lon="-1.69084">
        <ele>65</ele>
        <time>2026-08-23T13:05:03.000Z</time>
      </trkpt>
      <trkpt lat="43.33771" lon="-1.69089">
        <ele>65</ele>
        <time>2026-08-23T13:05:04.000Z</time>
      </trkpt>
      <trkpt lat="43.33746" lon="-1.69098">
        <ele>66</ele>
        <time>2026-08-23T13:05:09.000Z</time>
      </trkpt>
      <trkpt lat="43.33723" lon="-1.691">
        <ele>68</ele>
        <time>2026-08-23T13:05:13.000Z</time>
      </trkpt>
      <trkpt lat="43.33677" lon="-1.691">
        <ele>72</ele>
        <time>2026-08-23T13:05:21.000Z</time>
      </trkpt>
      <trkpt lat="43.33661" lon="-1.69097">
        <ele>73</ele>
        <time>2026-08-23T13:05:24.000Z</time>
      </trkpt>
      <trkpt lat="43.33644" lon="-1.69089">
        <ele>73</ele>
        <time>2026-08-23T13:05:27.000Z</time>
      </trkpt>
      <trkpt lat="43.33629" lon="-1.69075">
        <ele>74</ele>
        <time>2026-08-23T13:05:30.000Z</time>
      </trkpt>
      <trkpt lat="43.33615" lon="-1.69056">
        <ele>76</ele>
        <time>2026-08-23T13:05:34.000Z</time>
      </trkpt>
      <trkpt lat="43.336" lon="-1.69022">
        <ele>81</ele>
        <time>2026-08-23T13:05:39.000Z</time>
      </trkpt>
      <trkpt lat="43.33591" lon="-1.69009">
        <ele>83</ele>
        <time>2026-08-23T13:05:41.000Z</time>
      </trkpt>
      <trkpt lat="43.3358" lon="-1.69005">
        <ele>83</ele>
        <time>2026-08-23T13:05:43.000Z</time>
      </trkpt>
      <trkpt lat="43.33556" lon="-1.69002">
        <ele>82</ele>
        <time>2026-08-23T13:05:48.000Z</time>
      </trkpt>
      <trkpt lat="43.33537" lon="-1.68997">
        <ele>82</ele>
        <time>2026-08-23T13:05:51.000Z</time>
      </trkpt>
      <trkpt lat="43.33517" lon="-1.68989">
        <ele>82</ele>
        <time>2026-08-23T13:05:55.000Z</time>
      </trkpt>
      <trkpt lat="43.335" lon="-1.68976">
        <ele>84</ele>
        <time>2026-08-23T13:05:58.000Z</time>
      </trkpt>
      <trkpt lat="43.33451" lon="-1.68907">
        <ele>91</ele>
        <time>2026-08-23T13:06:11.000Z</time>
      </trkpt>
      <trkpt lat="43.33435" lon="-1.68877">
        <ele>93</ele>
        <time>2026-08-23T13:06:16.000Z</time>
      </trkpt>
      <trkpt lat="43.33426" lon="-1.68841">
        <ele>96</ele>
        <time>2026-08-23T13:06:21.000Z</time>
      </trkpt>
      <trkpt lat="43.33424" lon="-1.68818">
        <ele>98</ele>
        <time>2026-08-23T13:06:24.000Z</time>
      </trkpt>
      <trkpt lat="43.33419" lon="-1.68795">
        <ele>98</ele>
        <time>2026-08-23T13:06:27.000Z</time>
      </trkpt>
      <trkpt lat="43.33404" lon="-1.68755">
        <ele>99</ele>
        <time>2026-08-23T13:06:32.000Z</time>
      </trkpt>
      <trkpt lat="43.33397" lon="-1.68745">
        <ele>98</ele>
        <time>2026-08-23T13:06:34.000Z</time>
      </trkpt>
      <trkpt lat="43.33394" lon="-1.68738">
        <ele>98</ele>
        <time>2026-08-23T13:06:35.000Z</time>
      </trkpt>
      <trkpt lat="43.33377" lon="-1.6874">
        <ele>98</ele>
        <time>2026-08-23T13:06:38.000Z</time>
      </trkpt>
      <trkpt lat="43.33339" lon="-1.68741">
        <ele>97</ele>
        <time>2026-08-23T13:06:45.000Z</time>
      </trkpt>
      <trkpt lat="43.33324" lon="-1.68741">
        <ele>98</ele>
        <time>2026-08-23T13:06:48.000Z</time>
      </trkpt>
      <trkpt lat="43.33297" lon="-1.68742">
        <ele>100</ele>
        <time>2026-08-23T13:06:53.000Z</time>
      </trkpt>
      <trkpt lat="43.33262" lon="-1.68737">
        <ele>103</ele>
        <time>2026-08-23T13:06:59.000Z</time>
      </trkpt>
      <trkpt lat="43.33222" lon="-1.68721">
        <ele>107</ele>
        <time>2026-08-23T13:07:06.000Z</time>
      </trkpt>
      <trkpt lat="43.33216" lon="-1.68717">
        <ele>107</ele>
        <time>2026-08-23T13:07:07.000Z</time>
      </trkpt>
      <trkpt lat="43.33201" lon="-1.68704">
        <ele>109</ele>
        <time>2026-08-23T13:07:11.000Z</time>
      </trkpt>
      <trkpt lat="43.33183" lon="-1.68678">
        <ele>110</ele>
        <time>2026-08-23T13:07:15.000Z</time>
      </trkpt>
      <trkpt lat="43.33177" lon="-1.68656">
        <ele>111</ele>
        <time>2026-08-23T13:07:18.000Z</time>
      </trkpt>
      <trkpt lat="43.33178" lon="-1.68622">
        <ele>109</ele>
        <time>2026-08-23T13:07:23.000Z</time>
      </trkpt>
      <trkpt lat="43.33176" lon="-1.68602">
        <ele>109</ele>
        <time>2026-08-23T13:07:25.000Z</time>
      </trkpt>
      <trkpt lat="43.33166" lon="-1.68591">
        <ele>110</ele>
        <time>2026-08-23T13:07:28.000Z</time>
      </trkpt>
      <trkpt lat="43.33145" lon="-1.68586">
        <ele>115</ele>
        <time>2026-08-23T13:07:31.000Z</time>
      </trkpt>
      <trkpt lat="43.33129" lon="-1.68575">
        <ele>118</ele>
        <time>2026-08-23T13:07:35.000Z</time>
      </trkpt>
      <trkpt lat="43.33113" lon="-1.68554">
        <ele>120</ele>
        <time>2026-08-23T13:07:39.000Z</time>
      </trkpt>
      <trkpt lat="43.33096" lon="-1.6851">
        <ele>122</ele>
        <time>2026-08-23T13:07:45.000Z</time>
      </trkpt>
      <trkpt lat="43.33073" lon="-1.68461">
        <ele>122</ele>
        <time>2026-08-23T13:07:53.000Z</time>
      </trkpt>
      <trkpt lat="43.33046" lon="-1.68427">
        <ele>125</ele>
        <time>2026-08-23T13:07:59.000Z</time>
      </trkpt>
      <trkpt lat="43.33028" lon="-1.68417">
        <ele>128</ele>
        <time>2026-08-23T13:08:02.000Z</time>
      </trkpt>
      <trkpt lat="43.33012" lon="-1.68418">
        <ele>131</ele>
        <time>2026-08-23T13:08:05.000Z</time>
      </trkpt>
      <trkpt lat="43.32988" lon="-1.68424">
        <ele>138</ele>
        <time>2026-08-23T13:08:10.000Z</time>
      </trkpt>
      <trkpt lat="43.3298" lon="-1.68424">
        <ele>140</ele>
        <time>2026-08-23T13:08:11.000Z</time>
      </trkpt>
      <trkpt lat="43.32976" lon="-1.6842">
        <ele>141</ele>
        <time>2026-08-23T13:08:12.000Z</time>
      </trkpt>
      <trkpt lat="43.32972" lon="-1.68412">
        <ele>141</ele>
        <time>2026-08-23T13:08:13.000Z</time>
      </trkpt>
      <trkpt lat="43.32971" lon="-1.68401">
        <ele>141</ele>
        <time>2026-08-23T13:08:15.000Z</time>
      </trkpt>
      <trkpt lat="43.32981" lon="-1.68376">
        <ele>135</ele>
        <time>2026-08-23T13:08:18.000Z</time>
      </trkpt>
      <trkpt lat="43.32983" lon="-1.68362">
        <ele>133</ele>
        <time>2026-08-23T13:08:20.000Z</time>
      </trkpt>
      <trkpt lat="43.32981" lon="-1.68344">
        <ele>132</ele>
        <time>2026-08-23T13:08:23.000Z</time>
      </trkpt>
      <trkpt lat="43.32973" lon="-1.68322">
        <ele>133</ele>
        <time>2026-08-23T13:08:26.000Z</time>
      </trkpt>
      <trkpt lat="43.32968" lon="-1.68314">
        <ele>134</ele>
        <time>2026-08-23T13:08:27.000Z</time>
      </trkpt>
      <trkpt lat="43.32959" lon="-1.68306">
        <ele>136</ele>
        <time>2026-08-23T13:08:29.000Z</time>
      </trkpt>
      <trkpt lat="43.32948" lon="-1.68306">
        <ele>140</ele>
        <time>2026-08-23T13:08:31.000Z</time>
      </trkpt>
      <trkpt lat="43.32932" lon="-1.68309">
        <ele>146</ele>
        <time>2026-08-23T13:08:34.000Z</time>
      </trkpt>
      <trkpt lat="43.32926" lon="-1.68306">
        <ele>148</ele>
        <time>2026-08-23T13:08:35.000Z</time>
      </trkpt>
      <trkpt lat="43.32921" lon="-1.68296">
        <ele>149</ele>
        <time>2026-08-23T13:08:37.000Z</time>
      </trkpt>
      <trkpt lat="43.3292" lon="-1.68288">
        <ele>149</ele>
        <time>2026-08-23T13:08:38.000Z</time>
      </trkpt>
      <trkpt lat="43.3292" lon="-1.68239">
        <ele>144</ele>
        <time>2026-08-23T13:08:44.000Z</time>
      </trkpt>
      <trkpt lat="43.32916" lon="-1.68216">
        <ele>143</ele>
        <time>2026-08-23T13:08:47.000Z</time>
      </trkpt>
      <trkpt lat="43.32912" lon="-1.68206">
        <ele>143</ele>
        <time>2026-08-23T13:08:48.000Z</time>
      </trkpt>
      <trkpt lat="43.32901" lon="-1.68189">
        <ele>144</ele>
        <time>2026-08-23T13:08:51.000Z</time>
      </trkpt>
      <trkpt lat="43.32866" lon="-1.68149">
        <ele>145</ele>
        <time>2026-08-23T13:09:00.000Z</time>
      </trkpt>
      <trkpt lat="43.32859" lon="-1.68147">
        <ele>146</ele>
        <time>2026-08-23T13:09:01.000Z</time>
      </trkpt>
      <trkpt lat="43.32854" lon="-1.68152">
        <ele>148</ele>
        <time>2026-08-23T13:09:02.000Z</time>
      </trkpt>
      <trkpt lat="43.32853" lon="-1.68156">
        <ele>150</ele>
        <time>2026-08-23T13:09:02.000Z</time>
      </trkpt>
      <trkpt lat="43.32853" lon="-1.6816">
        <ele>151</ele>
        <time>2026-08-23T13:09:03.000Z</time>
      </trkpt>
      <trkpt lat="43.32856" lon="-1.68167">
        <ele>152</ele>
        <time>2026-08-23T13:09:04.000Z</time>
      </trkpt>
      <trkpt lat="43.32871" lon="-1.68181">
        <ele>151</ele>
        <time>2026-08-23T13:09:07.000Z</time>
      </trkpt>
      <trkpt lat="43.3288" lon="-1.68197">
        <ele>151</ele>
        <time>2026-08-23T13:09:10.000Z</time>
      </trkpt>
      <trkpt lat="43.32888" lon="-1.68221">
        <ele>153</ele>
        <time>2026-08-23T13:09:13.000Z</time>
      </trkpt>
      <trkpt lat="43.32893" lon="-1.68252">
        <ele>156</ele>
        <time>2026-08-23T13:09:17.000Z</time>
      </trkpt>
      <trkpt lat="43.32892" lon="-1.68262">
        <ele>157</ele>
        <time>2026-08-23T13:09:19.000Z</time>
      </trkpt>
      <trkpt lat="43.32884" lon="-1.6831">
        <ele>164</ele>
        <time>2026-08-23T13:09:25.000Z</time>
      </trkpt>
      <trkpt lat="43.32886" lon="-1.68322">
        <ele>164</ele>
        <time>2026-08-23T13:09:27.000Z</time>
      </trkpt>
      <trkpt lat="43.32893" lon="-1.68342">
        <ele>163</ele>
        <time>2026-08-23T13:09:30.000Z</time>
      </trkpt>
      <trkpt lat="43.32897" lon="-1.68362">
        <ele>162</ele>
        <time>2026-08-23T13:09:32.000Z</time>
      </trkpt>
      <trkpt lat="43.32894" lon="-1.68375">
        <ele>163</ele>
        <time>2026-08-23T13:09:34.000Z</time>
      </trkpt>
      <trkpt lat="43.3288" lon="-1.68404">
        <ele>168</ele>
        <time>2026-08-23T13:09:38.000Z</time>
      </trkpt>
      <trkpt lat="43.32874" lon="-1.68421">
        <ele>170</ele>
        <time>2026-08-23T13:09:41.000Z</time>
      </trkpt>
      <trkpt lat="43.32873" lon="-1.68429">
        <ele>171</ele>
        <time>2026-08-23T13:09:42.000Z</time>
      </trkpt>
      <trkpt lat="43.32874" lon="-1.68447">
        <ele>173</ele>
        <time>2026-08-23T13:09:44.000Z</time>
      </trkpt>
      <trkpt lat="43.3288" lon="-1.68468">
        <ele>173</ele>
        <time>2026-08-23T13:09:47.000Z</time>
      </trkpt>
      <trkpt lat="43.32891" lon="-1.68491">
        <ele>172</ele>
        <time>2026-08-23T13:09:51.000Z</time>
      </trkpt>
      <trkpt lat="43.32896" lon="-1.68499">
        <ele>172</ele>
        <time>2026-08-23T13:09:52.000Z</time>
      </trkpt>
      <trkpt lat="43.32915" lon="-1.6852">
        <ele>170</ele>
        <time>2026-08-23T13:09:57.000Z</time>
      </trkpt>
      <trkpt lat="43.32922" lon="-1.68535">
        <ele>170</ele>
        <time>2026-08-23T13:09:59.000Z</time>
      </trkpt>
      <trkpt lat="43.32943" lon="-1.68608">
        <ele>168</ele>
        <time>2026-08-23T13:10:09.000Z</time>
      </trkpt>
      <trkpt lat="43.32946" lon="-1.68628">
        <ele>166</ele>
        <time>2026-08-23T13:10:12.000Z</time>
      </trkpt>
      <trkpt lat="43.32946" lon="-1.68636">
        <ele>166</ele>
        <time>2026-08-23T13:10:13.000Z</time>
      </trkpt>
      <trkpt lat="43.32943" lon="-1.68645">
        <ele>167</ele>
        <time>2026-08-23T13:10:14.000Z</time>
      </trkpt>
      <trkpt lat="43.32941" lon="-1.68651">
        <ele>167</ele>
        <time>2026-08-23T13:10:15.000Z</time>
      </trkpt>
      <trkpt lat="43.32935" lon="-1.68659">
        <ele>168</ele>
        <time>2026-08-23T13:10:16.000Z</time>
      </trkpt>
      <trkpt lat="43.3292" lon="-1.68673">
        <ele>170</ele>
        <time>2026-08-23T13:10:20.000Z</time>
      </trkpt>
      <trkpt lat="43.32869" lon="-1.68707">
        <ele>175</ele>
        <time>2026-08-23T13:10:30.000Z</time>
      </trkpt>
      <trkpt lat="43.32844" lon="-1.68719">
        <ele>178</ele>
        <time>2026-08-23T13:10:34.000Z</time>
      </trkpt>
      <trkpt lat="43.32821" lon="-1.68723">
        <ele>180</ele>
        <time>2026-08-23T13:10:38.000Z</time>
      </trkpt>
      <trkpt lat="43.32788" lon="-1.68723">
        <ele>183</ele>
        <time>2026-08-23T13:10:44.000Z</time>
      </trkpt>
      <trkpt lat="43.3276" lon="-1.68719">
        <ele>186</ele>
        <time>2026-08-23T13:10:49.000Z</time>
      </trkpt>
      <trkpt lat="43.32743" lon="-1.68712">
        <ele>190</ele>
        <time>2026-08-23T13:10:52.000Z</time>
      </trkpt>
      <trkpt lat="43.32686" lon="-1.68683">
        <ele>201</ele>
        <time>2026-08-23T13:11:03.000Z</time>
      </trkpt>
      <trkpt lat="43.32646" lon="-1.68676">
        <ele>205</ele>
        <time>2026-08-23T13:11:10.000Z</time>
      </trkpt>
      <trkpt lat="43.32613" lon="-1.68665">
        <ele>210</ele>
        <time>2026-08-23T13:11:17.000Z</time>
      </trkpt>
      <trkpt lat="43.32609" lon="-1.68665">
        <ele>210</ele>
        <time>2026-08-23T13:11:17.000Z</time>
      </trkpt>
      <trkpt lat="43.32585" lon="-1.68679">
        <ele>208</ele>
        <time>2026-08-23T13:11:22.000Z</time>
      </trkpt>
      <trkpt lat="43.32559" lon="-1.68684">
        <ele>207</ele>
        <time>2026-08-23T13:11:27.000Z</time>
      </trkpt>
      <trkpt lat="43.32547" lon="-1.68689">
        <ele>206</ele>
        <time>2026-08-23T13:11:29.000Z</time>
      </trkpt>
      <trkpt lat="43.32534" lon="-1.68691">
        <ele>205</ele>
        <time>2026-08-23T13:11:31.000Z</time>
      </trkpt>
      <trkpt lat="43.32524" lon="-1.68687">
        <ele>206</ele>
        <time>2026-08-23T13:11:33.000Z</time>
      </trkpt>
      <trkpt lat="43.32482" lon="-1.68648">
        <ele>216</ele>
        <time>2026-08-23T13:11:42.000Z</time>
      </trkpt>
      <trkpt lat="43.32469" lon="-1.68639">
        <ele>219</ele>
        <time>2026-08-23T13:11:45.000Z</time>
      </trkpt>
      <trkpt lat="43.32457" lon="-1.68633">
        <ele>222</ele>
        <time>2026-08-23T13:11:47.000Z</time>
      </trkpt>
      <trkpt lat="43.32437" lon="-1.68629">
        <ele>224</ele>
        <time>2026-08-23T13:11:50.000Z</time>
      </trkpt>
      <trkpt lat="43.32418" lon="-1.68631">
        <ele>223</ele>
        <time>2026-08-23T13:11:54.000Z</time>
      </trkpt>
      <trkpt lat="43.32377" lon="-1.68661">
        <ele>216</ele>
        <time>2026-08-23T13:12:02.000Z</time>
      </trkpt>
      <trkpt lat="43.32357" lon="-1.68667">
        <ele>216</ele>
        <time>2026-08-23T13:12:06.000Z</time>
      </trkpt>
      <trkpt lat="43.32348" lon="-1.68664">
        <ele>218</ele>
        <time>2026-08-23T13:12:07.000Z</time>
      </trkpt>
      <trkpt lat="43.3233" lon="-1.68645">
        <ele>224</ele>
        <time>2026-08-23T13:12:11.000Z</time>
      </trkpt>
      <trkpt lat="43.32324" lon="-1.68641">
        <ele>226</ele>
        <time>2026-08-23T13:12:13.000Z</time>
      </trkpt>
      <trkpt lat="43.32292" lon="-1.68632">
        <ele>229</ele>
        <time>2026-08-23T13:12:18.000Z</time>
      </trkpt>
      <trkpt lat="43.32233" lon="-1.68598">
        <ele>235</ele>
        <time>2026-08-23T13:12:30.000Z</time>
      </trkpt>
      <trkpt lat="43.32227" lon="-1.68596">
        <ele>235</ele>
        <time>2026-08-23T13:12:31.000Z</time>
      </trkpt>
      <trkpt lat="43.32196" lon="-1.68592">
        <ele>233</ele>
        <time>2026-08-23T13:12:36.000Z</time>
      </trkpt>
      <trkpt lat="43.32162" lon="-1.68593">
        <ele>231</ele>
        <time>2026-08-23T13:12:42.000Z</time>
      </trkpt>
      <trkpt lat="43.32149" lon="-1.68587">
        <ele>231</ele>
        <time>2026-08-23T13:12:45.000Z</time>
      </trkpt>
      <trkpt lat="43.32143" lon="-1.68582">
        <ele>231</ele>
        <time>2026-08-23T13:12:46.000Z</time>
      </trkpt>
      <trkpt lat="43.32136" lon="-1.68568">
        <ele>234</ele>
        <time>2026-08-23T13:12:48.000Z</time>
      </trkpt>
      <trkpt lat="43.32133" lon="-1.68552">
        <ele>237</ele>
        <time>2026-08-23T13:12:50.000Z</time>
      </trkpt>
      <trkpt lat="43.32131" lon="-1.68518">
        <ele>244</ele>
        <time>2026-08-23T13:12:55.000Z</time>
      </trkpt>
      <trkpt lat="43.32127" lon="-1.68505">
        <ele>247</ele>
        <time>2026-08-23T13:12:57.000Z</time>
      </trkpt>
      <trkpt lat="43.32112" lon="-1.68487">
        <ele>247</ele>
        <time>2026-08-23T13:13:00.000Z</time>
      </trkpt>
      <trkpt lat="43.32109" lon="-1.68481">
        <ele>247</ele>
        <time>2026-08-23T13:13:01.000Z</time>
      </trkpt>
      <trkpt lat="43.32098" lon="-1.68444">
        <ele>248</ele>
        <time>2026-08-23T13:13:06.000Z</time>
      </trkpt>
      <trkpt lat="43.32094" lon="-1.68437">
        <ele>248</ele>
        <time>2026-08-23T13:13:08.000Z</time>
      </trkpt>
      <trkpt lat="43.32091" lon="-1.68432">
        <ele>248</ele>
        <time>2026-08-23T13:13:08.000Z</time>
      </trkpt>
      <trkpt lat="43.32087" lon="-1.68429">
        <ele>248</ele>
        <time>2026-08-23T13:13:09.000Z</time>
      </trkpt>
      <trkpt lat="43.32084" lon="-1.68427">
        <ele>247</ele>
        <time>2026-08-23T13:13:10.000Z</time>
      </trkpt>
      <trkpt lat="43.3208" lon="-1.68428">
        <ele>248</ele>
        <time>2026-08-23T13:13:11.000Z</time>
      </trkpt>
      <trkpt lat="43.32076" lon="-1.68429">
        <ele>248</ele>
        <time>2026-08-23T13:13:11.000Z</time>
      </trkpt>
      <trkpt lat="43.32071" lon="-1.68432">
        <ele>249</ele>
        <time>2026-08-23T13:13:12.000Z</time>
      </trkpt>
      <trkpt lat="43.32066" lon="-1.68442">
        <ele>249</ele>
        <time>2026-08-23T13:13:14.000Z</time>
      </trkpt>
      <trkpt lat="43.32041" lon="-1.68499">
        <ele>247</ele>
        <time>2026-08-23T13:13:22.000Z</time>
      </trkpt>
      <trkpt lat="43.32036" lon="-1.68507">
        <ele>246</ele>
        <time>2026-08-23T13:13:24.000Z</time>
      </trkpt>
      <trkpt lat="43.3203" lon="-1.68514">
        <ele>246</ele>
        <time>2026-08-23T13:13:25.000Z</time>
      </trkpt>
      <trkpt lat="43.32022" lon="-1.68519">
        <ele>246</ele>
        <time>2026-08-23T13:13:27.000Z</time>
      </trkpt>
      <trkpt lat="43.32007" lon="-1.68524">
        <ele>246</ele>
        <time>2026-08-23T13:13:29.000Z</time>
      </trkpt>
      <trkpt lat="43.32" lon="-1.68524">
        <ele>247</ele>
        <time>2026-08-23T13:13:31.000Z</time>
      </trkpt>
      <trkpt lat="43.31986" lon="-1.68518">
        <ele>249</ele>
        <time>2026-08-23T13:13:33.000Z</time>
      </trkpt>
      <trkpt lat="43.31964" lon="-1.68515">
        <ele>251</ele>
        <time>2026-08-23T13:13:37.000Z</time>
      </trkpt>
      <trkpt lat="43.31924" lon="-1.685">
        <ele>257</ele>
        <time>2026-08-23T13:13:45.000Z</time>
      </trkpt>
      <trkpt lat="43.31902" lon="-1.68502">
        <ele>258</ele>
        <time>2026-08-23T13:13:49.000Z</time>
      </trkpt>
      <trkpt lat="43.3188" lon="-1.68496">
        <ele>261</ele>
        <time>2026-08-23T13:13:53.000Z</time>
      </trkpt>
      <trkpt lat="43.31844" lon="-1.68502">
        <ele>262</ele>
        <time>2026-08-23T13:13:59.000Z</time>
      </trkpt>
      <trkpt lat="43.31817" lon="-1.68494">
        <ele>266</ele>
        <time>2026-08-23T13:14:04.000Z</time>
      </trkpt>
      <trkpt lat="43.31791" lon="-1.68502">
        <ele>267</ele>
        <time>2026-08-23T13:14:09.000Z</time>
      </trkpt>
      <trkpt lat="43.31769" lon="-1.68505">
        <ele>268</ele>
        <time>2026-08-23T13:14:13.000Z</time>
      </trkpt>
      <trkpt lat="43.31758" lon="-1.68505">
        <ele>270</ele>
        <time>2026-08-23T13:14:15.000Z</time>
      </trkpt>
      <trkpt lat="43.31738" lon="-1.68499">
        <ele>274</ele>
        <time>2026-08-23T13:14:18.000Z</time>
      </trkpt>
      <trkpt lat="43.31726" lon="-1.68499">
        <ele>275</ele>
        <time>2026-08-23T13:14:20.000Z</time>
      </trkpt>
      <trkpt lat="43.31721" lon="-1.68501">
        <ele>275</ele>
        <time>2026-08-23T13:14:21.000Z</time>
      </trkpt>
      <trkpt lat="43.31708" lon="-1.68512">
        <ele>273</ele>
        <time>2026-08-23T13:14:24.000Z</time>
      </trkpt>
      <trkpt lat="43.31693" lon="-1.6852">
        <ele>272</ele>
        <time>2026-08-23T13:14:27.000Z</time>
      </trkpt>
      <trkpt lat="43.31675" lon="-1.68524">
        <ele>273</ele>
        <time>2026-08-23T13:14:30.000Z</time>
      </trkpt>
      <trkpt lat="43.31657" lon="-1.68524">
        <ele>275</ele>
        <time>2026-08-23T13:14:33.000Z</time>
      </trkpt>
      <trkpt lat="43.3163" lon="-1.68519">
        <ele>278</ele>
        <time>2026-08-23T13:14:38.000Z</time>
      </trkpt>
      <trkpt lat="43.31582" lon="-1.68499">
        <ele>284</ele>
        <time>2026-08-23T13:14:47.000Z</time>
      </trkpt>
      <trkpt lat="43.31549" lon="-1.68514">
        <ele>284</ele>
        <time>2026-08-23T13:14:53.000Z</time>
      </trkpt>
      <trkpt lat="43.31542" lon="-1.68514">
        <ele>284</ele>
        <time>2026-08-23T13:14:54.000Z</time>
      </trkpt>
      <trkpt lat="43.31519" lon="-1.68509">
        <ele>287</ele>
        <time>2026-08-23T13:14:59.000Z</time>
      </trkpt>
      <trkpt lat="43.31497" lon="-1.68514">
        <ele>287</ele>
        <time>2026-08-23T13:15:03.000Z</time>
      </trkpt>
      <trkpt lat="43.31485" lon="-1.68512">
        <ele>289</ele>
        <time>2026-08-23T13:15:05.000Z</time>
      </trkpt>
      <trkpt lat="43.31465" lon="-1.68495">
        <ele>294</ele>
        <time>2026-08-23T13:15:09.000Z</time>
      </trkpt>
      <trkpt lat="43.31459" lon="-1.68492">
        <ele>296</ele>
        <time>2026-08-23T13:15:10.000Z</time>
      </trkpt>
      <trkpt lat="43.31408" lon="-1.68494">
        <ele>299</ele>
        <time>2026-08-23T13:15:19.000Z</time>
      </trkpt>
      <trkpt lat="43.31374" lon="-1.68498">
        <ele>298</ele>
        <time>2026-08-23T13:15:25.000Z</time>
      </trkpt>
      <trkpt lat="43.31362" lon="-1.68495">
        <ele>298</ele>
        <time>2026-08-23T13:15:27.000Z</time>
      </trkpt>
      <trkpt lat="43.31347" lon="-1.68486">
        <ele>301</ele>
        <time>2026-08-23T13:15:30.000Z</time>
      </trkpt>
      <trkpt lat="43.31333" lon="-1.68482">
        <ele>302</ele>
        <time>2026-08-23T13:15:33.000Z</time>
      </trkpt>
      <trkpt lat="43.31318" lon="-1.68483">
        <ele>303</ele>
        <time>2026-08-23T13:15:36.000Z</time>
      </trkpt>
      <trkpt lat="43.31295" lon="-1.68497">
        <ele>301</ele>
        <time>2026-08-23T13:15:40.000Z</time>
      </trkpt>
      <trkpt lat="43.31288" lon="-1.68498">
        <ele>301</ele>
        <time>2026-08-23T13:15:41.000Z</time>
      </trkpt>
      <trkpt lat="43.31276" lon="-1.68498">
        <ele>302</ele>
        <time>2026-08-23T13:15:43.000Z</time>
      </trkpt>
      <trkpt lat="43.31213" lon="-1.68482">
        <ele>309</ele>
        <time>2026-08-23T13:15:55.000Z</time>
      </trkpt>
      <trkpt lat="43.31185" lon="-1.68492">
        <ele>309</ele>
        <time>2026-08-23T13:16:00.000Z</time>
      </trkpt>
      <trkpt lat="43.31148" lon="-1.68488">
        <ele>310</ele>
        <time>2026-08-23T13:16:07.000Z</time>
      </trkpt>
      <trkpt lat="43.3105" lon="-1.6846">
        <ele>315</ele>
        <time>2026-08-23T13:16:24.000Z</time>
      </trkpt>
      <trkpt lat="43.31034" lon="-1.68456">
        <ele>316</ele>
        <time>2026-08-23T13:16:27.000Z</time>
      </trkpt>
      <trkpt lat="43.3098" lon="-1.68437">
        <ele>317</ele>
        <time>2026-08-23T13:16:37.000Z</time>
      </trkpt>
      <trkpt lat="43.30974" lon="-1.68436">
        <ele>317</ele>
        <time>2026-08-23T13:16:38.000Z</time>
      </trkpt>
      <trkpt lat="43.30972" lon="-1.68437">
        <ele>317</ele>
        <time>2026-08-23T13:16:39.000Z</time>
      </trkpt>
      <trkpt lat="43.30972" lon="-1.68439">
        <ele>317</ele>
        <time>2026-08-23T13:16:39.000Z</time>
      </trkpt>
      <trkpt lat="43.30971" lon="-1.68442">
        <ele>316</ele>
        <time>2026-08-23T13:16:39.000Z</time>
      </trkpt>
      <trkpt lat="43.30967" lon="-1.68445">
        <ele>316</ele>
        <time>2026-08-23T13:16:40.000Z</time>
      </trkpt>
      <trkpt lat="43.30965" lon="-1.68444">
        <ele>316</ele>
        <time>2026-08-23T13:16:40.000Z</time>
      </trkpt>
      <trkpt lat="43.30963" lon="-1.68442">
        <ele>316</ele>
        <time>2026-08-23T13:16:41.000Z</time>
      </trkpt>
      <trkpt lat="43.30962" lon="-1.68437">
        <ele>316</ele>
        <time>2026-08-23T13:16:42.000Z</time>
      </trkpt>
      <trkpt lat="43.30963" lon="-1.68433">
        <ele>316</ele>
        <time>2026-08-23T13:16:42.000Z</time>
      </trkpt>
      <trkpt lat="43.30963" lon="-1.68433">
        <ele>316</ele>
        <time>2026-08-23T13:16:42.000Z</time>
      </trkpt>
      <trkpt lat="43.30959" lon="-1.68429">
        <ele>316</ele>
        <time>2026-08-23T13:16:43.000Z</time>
      </trkpt>
      <trkpt lat="43.30939" lon="-1.68422">
        <ele>315</ele>
        <time>2026-08-23T13:16:47.000Z</time>
      </trkpt>
      <trkpt lat="43.30927" lon="-1.68423">
        <ele>314</ele>
        <time>2026-08-23T13:16:49.000Z</time>
      </trkpt>
      <trkpt lat="43.30922" lon="-1.68426">
        <ele>313</ele>
        <time>2026-08-23T13:16:50.000Z</time>
      </trkpt>
      <trkpt lat="43.30911" lon="-1.68438">
        <ele>311</ele>
        <time>2026-08-23T13:16:52.000Z</time>
      </trkpt>
      <trkpt lat="43.30902" lon="-1.68461">
        <ele>309</ele>
        <time>2026-08-23T13:16:56.000Z</time>
      </trkpt>
      <trkpt lat="43.30897" lon="-1.68473">
        <ele>308</ele>
        <time>2026-08-23T13:16:57.000Z</time>
      </trkpt>
      <trkpt lat="43.30876" lon="-1.68497">
        <ele>303</ele>
        <time>2026-08-23T13:17:02.000Z</time>
      </trkpt>
      <trkpt lat="43.30867" lon="-1.68515">
        <ele>301</ele>
        <time>2026-08-23T13:17:05.000Z</time>
      </trkpt>
      <trkpt lat="43.30865" lon="-1.68526">
        <ele>302</ele>
        <time>2026-08-23T13:17:07.000Z</time>
      </trkpt>
      <trkpt lat="43.30864" lon="-1.68543">
        <ele>302</ele>
        <time>2026-08-23T13:17:09.000Z</time>
      </trkpt>
      <trkpt lat="43.30863" lon="-1.68609">
        <ele>308</ele>
        <time>2026-08-23T13:17:17.000Z</time>
      </trkpt>
      <trkpt lat="43.3086" lon="-1.68618">
        <ele>309</ele>
        <time>2026-08-23T13:17:19.000Z</time>
      </trkpt>
      <trkpt lat="43.30849" lon="-1.68631">
        <ele>308</ele>
        <time>2026-08-23T13:17:21.000Z</time>
      </trkpt>
      <trkpt lat="43.30829" lon="-1.6864">
        <ele>305</ele>
        <time>2026-08-23T13:17:25.000Z</time>
      </trkpt>
      <trkpt lat="43.30808" lon="-1.68644">
        <ele>299</ele>
        <time>2026-08-23T13:17:29.000Z</time>
      </trkpt>
      <trkpt lat="43.30791" lon="-1.68651">
        <ele>296</ele>
        <time>2026-08-23T13:17:32.000Z</time>
      </trkpt>
      <trkpt lat="43.30783" lon="-1.68659">
        <ele>295</ele>
        <time>2026-08-23T13:17:34.000Z</time>
      </trkpt>
      <trkpt lat="43.30775" lon="-1.68671">
        <ele>294</ele>
        <time>2026-08-23T13:17:36.000Z</time>
      </trkpt>
      <trkpt lat="43.30768" lon="-1.68694">
        <ele>292</ele>
        <time>2026-08-23T13:17:39.000Z</time>
      </trkpt>
      <trkpt lat="43.30763" lon="-1.68715">
        <ele>291</ele>
        <time>2026-08-23T13:17:42.000Z</time>
      </trkpt>
      <trkpt lat="43.30762" lon="-1.68732">
        <ele>291</ele>
        <time>2026-08-23T13:17:44.000Z</time>
      </trkpt>
      <trkpt lat="43.30762" lon="-1.68745">
        <ele>291</ele>
        <time>2026-08-23T13:17:46.000Z</time>
      </trkpt>
      <trkpt lat="43.30766" lon="-1.6876">
        <ele>290</ele>
        <time>2026-08-23T13:17:48.000Z</time>
      </trkpt>
      <trkpt lat="43.30775" lon="-1.68774">
        <ele>290</ele>
        <time>2026-08-23T13:17:50.000Z</time>
      </trkpt>
      <trkpt lat="43.30806" lon="-1.68804">
        <ele>291</ele>
        <time>2026-08-23T13:17:57.000Z</time>
      </trkpt>
      <trkpt lat="43.30816" lon="-1.68809">
        <ele>292</ele>
        <time>2026-08-23T13:17:59.000Z</time>
      </trkpt>
      <trkpt lat="43.30824" lon="-1.68809">
        <ele>294</ele>
        <time>2026-08-23T13:18:00.000Z</time>
      </trkpt>
      <trkpt lat="43.3084" lon="-1.68801">
        <ele>300</ele>
        <time>2026-08-23T13:18:03.000Z</time>
      </trkpt>
      <trkpt lat="43.30846" lon="-1.68803">
        <ele>301</ele>
        <time>2026-08-23T13:18:04.000Z</time>
      </trkpt>
      <trkpt lat="43.30853" lon="-1.68812">
        <ele>302</ele>
        <time>2026-08-23T13:18:06.000Z</time>
      </trkpt>
      <trkpt lat="43.30855" lon="-1.68822">
        <ele>300</ele>
        <time>2026-08-23T13:18:07.000Z</time>
      </trkpt>
      <trkpt lat="43.30858" lon="-1.68856">
        <ele>297</ele>
        <time>2026-08-23T13:18:12.000Z</time>
      </trkpt>
      <trkpt lat="43.30865" lon="-1.68879">
        <ele>296</ele>
        <time>2026-08-23T13:18:15.000Z</time>
      </trkpt>
      <trkpt lat="43.30881" lon="-1.68915">
        <ele>296</ele>
        <time>2026-08-23T13:18:21.000Z</time>
      </trkpt>
      <trkpt lat="43.30882" lon="-1.68926">
        <ele>297</ele>
        <time>2026-08-23T13:18:22.000Z</time>
      </trkpt>
      <trkpt lat="43.30882" lon="-1.68934">
        <ele>297</ele>
        <time>2026-08-23T13:18:23.000Z</time>
      </trkpt>
      <trkpt lat="43.3088" lon="-1.6894">
        <ele>297</ele>
        <time>2026-08-23T13:18:24.000Z</time>
      </trkpt>
      <trkpt lat="43.30876" lon="-1.68947">
        <ele>297</ele>
        <time>2026-08-23T13:18:25.000Z</time>
      </trkpt>
      <trkpt lat="43.30871" lon="-1.6895">
        <ele>296</ele>
        <time>2026-08-23T13:18:26.000Z</time>
      </trkpt>
      <trkpt lat="43.30864" lon="-1.6895">
        <ele>294</ele>
        <time>2026-08-23T13:18:27.000Z</time>
      </trkpt>
      <trkpt lat="43.30851" lon="-1.68942">
        <ele>290</ele>
        <time>2026-08-23T13:18:30.000Z</time>
      </trkpt>
      <trkpt lat="43.30839" lon="-1.68931">
        <ele>287</ele>
        <time>2026-08-23T13:18:32.000Z</time>
      </trkpt>
      <trkpt lat="43.3083" lon="-1.68926">
        <ele>284</ele>
        <time>2026-08-23T13:18:34.000Z</time>
      </trkpt>
      <trkpt lat="43.30816" lon="-1.68928">
        <ele>282</ele>
        <time>2026-08-23T13:18:37.000Z</time>
      </trkpt>
      <trkpt lat="43.30805" lon="-1.68939">
        <ele>282</ele>
        <time>2026-08-23T13:18:39.000Z</time>
      </trkpt>
      <trkpt lat="43.30792" lon="-1.68971">
        <ele>285</ele>
        <time>2026-08-23T13:18:44.000Z</time>
      </trkpt>
      <trkpt lat="43.30786" lon="-1.68976">
        <ele>285</ele>
        <time>2026-08-23T13:18:45.000Z</time>
      </trkpt>
      <trkpt lat="43.3078" lon="-1.68978">
        <ele>285</ele>
        <time>2026-08-23T13:18:46.000Z</time>
      </trkpt>
      <trkpt lat="43.30772" lon="-1.68974">
        <ele>284</ele>
        <time>2026-08-23T13:18:48.000Z</time>
      </trkpt>
      <trkpt lat="43.3075" lon="-1.68958">
        <ele>278</ele>
        <time>2026-08-23T13:18:52.000Z</time>
      </trkpt>
      <trkpt lat="43.30732" lon="-1.68948">
        <ele>274</ele>
        <time>2026-08-23T13:18:56.000Z</time>
      </trkpt>
      <trkpt lat="43.30697" lon="-1.68934">
        <ele>267</ele>
        <time>2026-08-23T13:19:02.000Z</time>
      </trkpt>
      <trkpt lat="43.30678" lon="-1.68933">
        <ele>265</ele>
        <time>2026-08-23T13:19:05.000Z</time>
      </trkpt>
      <trkpt lat="43.30669" lon="-1.68937">
        <ele>264</ele>
        <time>2026-08-23T13:19:07.000Z</time>
      </trkpt>
      <trkpt lat="43.30652" lon="-1.6895">
        <ele>267</ele>
        <time>2026-08-23T13:19:11.000Z</time>
      </trkpt>
      <trkpt lat="43.30632" lon="-1.68978">
        <ele>273</ele>
        <time>2026-08-23T13:19:16.000Z</time>
      </trkpt>
      <trkpt lat="43.3062" lon="-1.69009">
        <ele>280</ele>
        <time>2026-08-23T13:19:20.000Z</time>
      </trkpt>
      <trkpt lat="43.30613" lon="-1.69021">
        <ele>283</ele>
        <time>2026-08-23T13:19:22.000Z</time>
      </trkpt>
      <trkpt lat="43.30609" lon="-1.69025">
        <ele>284</ele>
        <time>2026-08-23T13:19:23.000Z</time>
      </trkpt>
      <trkpt lat="43.30606" lon="-1.69025">
        <ele>284</ele>
        <time>2026-08-23T13:19:24.000Z</time>
      </trkpt>
      <trkpt lat="43.30603" lon="-1.69025">
        <ele>285</ele>
        <time>2026-08-23T13:19:24.000Z</time>
      </trkpt>
      <trkpt lat="43.306" lon="-1.69019">
        <ele>283</ele>
        <time>2026-08-23T13:19:25.000Z</time>
      </trkpt>
      <trkpt lat="43.30594" lon="-1.68989">
        <ele>276</ele>
        <time>2026-08-23T13:19:29.000Z</time>
      </trkpt>
      <trkpt lat="43.30583" lon="-1.68966">
        <ele>272</ele>
        <time>2026-08-23T13:19:33.000Z</time>
      </trkpt>
      <trkpt lat="43.30564" lon="-1.68907">
        <ele>259</ele>
        <time>2026-08-23T13:19:41.000Z</time>
      </trkpt>
      <trkpt lat="43.30535" lon="-1.68868">
        <ele>250</ele>
        <time>2026-08-23T13:19:48.000Z</time>
      </trkpt>
      <trkpt lat="43.30529" lon="-1.68862">
        <ele>248</ele>
        <time>2026-08-23T13:19:50.000Z</time>
      </trkpt>
      <trkpt lat="43.30522" lon="-1.68862">
        <ele>248</ele>
        <time>2026-08-23T13:19:51.000Z</time>
      </trkpt>
      <trkpt lat="43.30516" lon="-1.68864">
        <ele>249</ele>
        <time>2026-08-23T13:19:52.000Z</time>
      </trkpt>
      <trkpt lat="43.30483" lon="-1.68898">
        <ele>254</ele>
        <time>2026-08-23T13:19:59.000Z</time>
      </trkpt>
      <trkpt lat="43.30473" lon="-1.68905">
        <ele>254</ele>
        <time>2026-08-23T13:20:01.000Z</time>
      </trkpt>
      <trkpt lat="43.30436" lon="-1.68915">
        <ele>250</ele>
        <time>2026-08-23T13:20:08.000Z</time>
      </trkpt>
      <trkpt lat="43.30428" lon="-1.68922">
        <ele>251</ele>
        <time>2026-08-23T13:20:10.000Z</time>
      </trkpt>
      <trkpt lat="43.30412" lon="-1.68944">
        <ele>257</ele>
        <time>2026-08-23T13:20:14.000Z</time>
      </trkpt>
      <trkpt lat="43.30404" lon="-1.68951">
        <ele>259</ele>
        <time>2026-08-23T13:20:15.000Z</time>
      </trkpt>
      <trkpt lat="43.30394" lon="-1.68956">
        <ele>261</ele>
        <time>2026-08-23T13:20:17.000Z</time>
      </trkpt>
      <trkpt lat="43.30349" lon="-1.68969">
        <ele>266</ele>
        <time>2026-08-23T13:20:25.000Z</time>
      </trkpt>
      <trkpt lat="43.3034" lon="-1.68971">
        <ele>267</ele>
        <time>2026-08-23T13:20:27.000Z</time>
      </trkpt>
      <trkpt lat="43.30332" lon="-1.68969">
        <ele>266</ele>
        <time>2026-08-23T13:20:28.000Z</time>
      </trkpt>
      <trkpt lat="43.30292" lon="-1.68946">
        <ele>256</ele>
        <time>2026-08-23T13:20:36.000Z</time>
      </trkpt>
      <trkpt lat="43.30282" lon="-1.68943">
        <ele>255</ele>
        <time>2026-08-23T13:20:38.000Z</time>
      </trkpt>
      <trkpt lat="43.30235" lon="-1.68946">
        <ele>255</ele>
        <time>2026-08-23T13:20:46.000Z</time>
      </trkpt>
      <trkpt lat="43.30227" lon="-1.68945">
        <ele>254</ele>
        <time>2026-08-23T13:20:48.000Z</time>
      </trkpt>
      <trkpt lat="43.30211" lon="-1.6894">
        <ele>251</ele>
        <time>2026-08-23T13:20:51.000Z</time>
      </trkpt>
      <trkpt lat="43.30163" lon="-1.68919">
        <ele>239</ele>
        <time>2026-08-23T13:21:00.000Z</time>
      </trkpt>
      <trkpt lat="43.30117" lon="-1.68926">
        <ele>236</ele>
        <time>2026-08-23T13:21:08.000Z</time>
      </trkpt>
      <trkpt lat="43.30106" lon="-1.68926">
        <ele>235</ele>
        <time>2026-08-23T13:21:10.000Z</time>
      </trkpt>
      <trkpt lat="43.30083" lon="-1.68922">
        <ele>231</ele>
        <time>2026-08-23T13:21:14.000Z</time>
      </trkpt>
      <trkpt lat="43.30062" lon="-1.68924">
        <ele>228</ele>
        <time>2026-08-23T13:21:18.000Z</time>
      </trkpt>
      <trkpt lat="43.3006" lon="-1.68924">
        <ele>228</ele>
        <time>2026-08-23T13:21:18.000Z</time>
      </trkpt>
      <trkpt lat="43.30045" lon="-1.68931">
        <ele>227</ele>
        <time>2026-08-23T13:21:21.000Z</time>
      </trkpt>
      <trkpt lat="43.30032" lon="-1.68943">
        <ele>227</ele>
        <time>2026-08-23T13:21:24.000Z</time>
      </trkpt>
      <trkpt lat="43.30014" lon="-1.6897">
        <ele>229</ele>
        <time>2026-08-23T13:21:28.000Z</time>
      </trkpt>
      <trkpt lat="43.29983" lon="-1.69033">
        <ele>242</ele>
        <time>2026-08-23T13:21:38.000Z</time>
      </trkpt>
      <trkpt lat="43.29977" lon="-1.69037">
        <ele>244</ele>
        <time>2026-08-23T13:21:40.000Z</time>
      </trkpt>
      <trkpt lat="43.29969" lon="-1.69038">
        <ele>244</ele>
        <time>2026-08-23T13:21:41.000Z</time>
      </trkpt>
      <trkpt lat="43.29965" lon="-1.69035">
        <ele>243</ele>
        <time>2026-08-23T13:21:42.000Z</time>
      </trkpt>
      <trkpt lat="43.2996" lon="-1.69027">
        <ele>241</ele>
        <time>2026-08-23T13:21:43.000Z</time>
      </trkpt>
      <trkpt lat="43.29951" lon="-1.69009">
        <ele>234</ele>
        <time>2026-08-23T13:21:46.000Z</time>
      </trkpt>
      <trkpt lat="43.2994" lon="-1.68994">
        <ele>230</ele>
        <time>2026-08-23T13:21:49.000Z</time>
      </trkpt>
      <trkpt lat="43.29933" lon="-1.68987">
        <ele>228</ele>
        <time>2026-08-23T13:21:50.000Z</time>
      </trkpt>
      <trkpt lat="43.29895" lon="-1.6897">
        <ele>222</ele>
        <time>2026-08-23T13:21:57.000Z</time>
      </trkpt>
      <trkpt lat="43.29868" lon="-1.68945">
        <ele>215</ele>
        <time>2026-08-23T13:22:03.000Z</time>
      </trkpt>
      <trkpt lat="43.29862" lon="-1.68944">
        <ele>214</ele>
        <time>2026-08-23T13:22:04.000Z</time>
      </trkpt>
      <trkpt lat="43.29855" lon="-1.68946">
        <ele>215</ele>
        <time>2026-08-23T13:22:05.000Z</time>
      </trkpt>
      <trkpt lat="43.29841" lon="-1.68957">
        <ele>217</ele>
        <time>2026-08-23T13:22:08.000Z</time>
      </trkpt>
      <trkpt lat="43.29829" lon="-1.68963">
        <ele>218</ele>
        <time>2026-08-23T13:22:11.000Z</time>
      </trkpt>
      <trkpt lat="43.29814" lon="-1.68964">
        <ele>217</ele>
        <time>2026-08-23T13:22:13.000Z</time>
      </trkpt>
      <trkpt lat="43.29754" lon="-1.68949">
        <ele>208</ele>
        <time>2026-08-23T13:22:24.000Z</time>
      </trkpt>
      <trkpt lat="43.29697" lon="-1.68946">
        <ele>202</ele>
        <time>2026-08-23T13:22:34.000Z</time>
      </trkpt>
      <trkpt lat="43.29682" lon="-1.68967">
        <ele>205</ele>
        <time>2026-08-23T13:22:38.000Z</time>
      </trkpt>
      <trkpt lat="43.29669" lon="-1.68993">
        <ele>208</ele>
        <time>2026-08-23T13:22:42.000Z</time>
      </trkpt>
      <trkpt lat="43.29631" lon="-1.68998">
        <ele>201</ele>
        <time>2026-08-23T13:22:49.000Z</time>
      </trkpt>
      <trkpt lat="43.29585" lon="-1.69016">
        <ele>195</ele>
        <time>2026-08-23T13:22:58.000Z</time>
      </trkpt>
      <trkpt lat="43.29562" lon="-1.69053">
        <ele>198</ele>
        <time>2026-08-23T13:23:04.000Z</time>
      </trkpt>
      <trkpt lat="43.29558" lon="-1.69116">
        <ele>211</ele>
        <time>2026-08-23T13:23:12.000Z</time>
      </trkpt>
      <trkpt lat="43.29548" lon="-1.69128">
        <ele>211</ele>
        <time>2026-08-23T13:23:14.000Z</time>
      </trkpt>
      <trkpt lat="43.29533" lon="-1.69128">
        <ele>209</ele>
        <time>2026-08-23T13:23:17.000Z</time>
      </trkpt>
      <trkpt lat="43.29498" lon="-1.69104">
        <ele>198</ele>
        <time>2026-08-23T13:23:24.000Z</time>
      </trkpt>
      <trkpt lat="43.29482" lon="-1.6908">
        <ele>192</ele>
        <time>2026-08-23T13:23:28.000Z</time>
      </trkpt>
      <trkpt lat="43.29472" lon="-1.69071">
        <ele>189</ele>
        <time>2026-08-23T13:23:30.000Z</time>
      </trkpt>
      <trkpt lat="43.29459" lon="-1.69085">
        <ele>194</ele>
        <time>2026-08-23T13:23:33.000Z</time>
      </trkpt>
      <trkpt lat="43.29449" lon="-1.69104">
        <ele>199</ele>
        <time>2026-08-23T13:23:36.000Z</time>
      </trkpt>
      <trkpt lat="43.29433" lon="-1.6911">
        <ele>202</ele>
        <time>2026-08-23T13:23:39.000Z</time>
      </trkpt>
      <trkpt lat="43.29394" lon="-1.69064">
        <ele>192</ele>
        <time>2026-08-23T13:23:48.000Z</time>
      </trkpt>
      <trkpt lat="43.2937" lon="-1.69063">
        <ele>195</ele>
        <time>2026-08-23T13:23:53.000Z</time>
      </trkpt>
      <trkpt lat="43.29359" lon="-1.6905">
        <ele>192</ele>
        <time>2026-08-23T13:23:55.000Z</time>
      </trkpt>
      <trkpt lat="43.29354" lon="-1.68998">
        <ele>177</ele>
        <time>2026-08-23T13:24:02.000Z</time>
      </trkpt>
      <trkpt lat="43.29345" lon="-1.68974">
        <ele>171</ele>
        <time>2026-08-23T13:24:06.000Z</time>
      </trkpt>
      <trkpt lat="43.29326" lon="-1.68974">
        <ele>175</ele>
        <time>2026-08-23T13:24:09.000Z</time>
      </trkpt>
      <trkpt lat="43.29306" lon="-1.6899">
        <ele>183</ele>
        <time>2026-08-23T13:24:13.000Z</time>
      </trkpt>
      <trkpt lat="43.29288" lon="-1.68993">
        <ele>187</ele>
        <time>2026-08-23T13:24:16.000Z</time>
      </trkpt>
      <trkpt lat="43.29272" lon="-1.68987">
        <ele>188</ele>
        <time>2026-08-23T13:24:19.000Z</time>
      </trkpt>
      <trkpt lat="43.2925" lon="-1.68915">
        <ele>174</ele>
        <time>2026-08-23T13:24:29.000Z</time>
      </trkpt>
      <trkpt lat="43.29228" lon="-1.68895">
        <ele>176</ele>
        <time>2026-08-23T13:24:34.000Z</time>
      </trkpt>
      <trkpt lat="43.29209" lon="-1.68874">
        <ele>177</ele>
        <time>2026-08-23T13:24:38.000Z</time>
      </trkpt>
      <trkpt lat="43.29205" lon="-1.68826">
        <ele>166</ele>
        <time>2026-08-23T13:24:45.000Z</time>
      </trkpt>
      <trkpt lat="43.29189" lon="-1.68796">
        <ele>162</ele>
        <time>2026-08-23T13:24:49.000Z</time>
      </trkpt>
      <trkpt lat="43.29166" lon="-1.68788">
        <ele>165</ele>
        <time>2026-08-23T13:24:54.000Z</time>
      </trkpt>
      <trkpt lat="43.29114" lon="-1.68795">
        <ele>174</ele>
        <time>2026-08-23T13:25:03.000Z</time>
      </trkpt>
      <trkpt lat="43.29099" lon="-1.68795">
        <ele>177</ele>
        <time>2026-08-23T13:25:06.000Z</time>
      </trkpt>
      <trkpt lat="43.29086" lon="-1.68791">
        <ele>177</ele>
        <time>2026-08-23T13:25:08.000Z</time>
      </trkpt>
      <trkpt lat="43.2908" lon="-1.6878">
        <ele>177</ele>
        <time>2026-08-23T13:25:10.000Z</time>
      </trkpt>
      <trkpt lat="43.29071" lon="-1.68754">
        <ele>175</ele>
        <time>2026-08-23T13:25:14.000Z</time>
      </trkpt>
      <trkpt lat="43.29081" lon="-1.68728">
        <ele>167</ele>
        <time>2026-08-23T13:25:17.000Z</time>
      </trkpt>
      <trkpt lat="43.29074" lon="-1.68696">
        <ele>164</ele>
        <time>2026-08-23T13:25:22.000Z</time>
      </trkpt>
      <trkpt lat="43.29056" lon="-1.68669">
        <ele>166</ele>
        <time>2026-08-23T13:25:26.000Z</time>
      </trkpt>
      <trkpt lat="43.29045" lon="-1.68656">
        <ele>167</ele>
        <time>2026-08-23T13:25:29.000Z</time>
      </trkpt>
      <trkpt lat="43.29059" lon="-1.68606">
        <ele>156</ele>
        <time>2026-08-23T13:25:36.000Z</time>
      </trkpt>
      <trkpt lat="43.29065" lon="-1.68575">
        <ele>150</ele>
        <time>2026-08-23T13:25:40.000Z</time>
      </trkpt>
      <trkpt lat="43.29063" lon="-1.68544">
        <ele>145</ele>
        <time>2026-08-23T13:25:44.000Z</time>
      </trkpt>
      <trkpt lat="43.29042" lon="-1.68537">
        <ele>147</ele>
        <time>2026-08-23T13:25:48.000Z</time>
      </trkpt>
      <trkpt lat="43.29021" lon="-1.68553">
        <ele>154</ele>
        <time>2026-08-23T13:25:52.000Z</time>
      </trkpt>
      <trkpt lat="43.29003" lon="-1.68561">
        <ele>159</ele>
        <time>2026-08-23T13:25:56.000Z</time>
      </trkpt>
      <trkpt lat="43.28988" lon="-1.68549">
        <ele>162</ele>
        <time>2026-08-23T13:25:59.000Z</time>
      </trkpt>
      <trkpt lat="43.28986" lon="-1.6853">
        <ele>159</ele>
        <time>2026-08-23T13:26:01.000Z</time>
      </trkpt>
      <trkpt lat="43.29031" lon="-1.68516">
        <ele>145</ele>
        <time>2026-08-23T13:26:09.000Z</time>
      </trkpt>
      <trkpt lat="43.29075" lon="-1.68516">
        <ele>137</ele>
        <time>2026-08-23T13:26:17.000Z</time>
      </trkpt>
      <trkpt lat="43.29093" lon="-1.6853">
        <ele>136</ele>
        <time>2026-08-23T13:26:21.000Z</time>
      </trkpt>
      <trkpt lat="43.29109" lon="-1.68539">
        <ele>134</ele>
        <time>2026-08-23T13:26:24.000Z</time>
      </trkpt>
      <trkpt lat="43.29104" lon="-1.68572">
        <ele>140</ele>
        <time>2026-08-23T13:26:28.000Z</time>
      </trkpt>
      <trkpt lat="43.29092" lon="-1.68597">
        <ele>147</ele>
        <time>2026-08-23T13:26:32.000Z</time>
      </trkpt>
      <trkpt lat="43.29094" lon="-1.68631">
        <ele>150</ele>
        <time>2026-08-23T13:26:37.000Z</time>
      </trkpt>
      <trkpt lat="43.29117" lon="-1.68687">
        <ele>151</ele>
        <time>2026-08-23T13:26:45.000Z</time>
      </trkpt>
      <trkpt lat="43.29129" lon="-1.68706">
        <ele>152</ele>
        <time>2026-08-23T13:26:48.000Z</time>
      </trkpt>
      <trkpt lat="43.29151" lon="-1.68707">
        <ele>146</ele>
        <time>2026-08-23T13:26:52.000Z</time>
      </trkpt>
      <trkpt lat="43.29171" lon="-1.68683">
        <ele>137</ele>
        <time>2026-08-23T13:26:57.000Z</time>
      </trkpt>
      <trkpt lat="43.29167" lon="-1.68669">
        <ele>134</ele>
        <time>2026-08-23T13:26:59.000Z</time>
      </trkpt>
      <trkpt lat="43.29145" lon="-1.68677">
        <ele>142</ele>
        <time>2026-08-23T13:27:03.000Z</time>
      </trkpt>
      <trkpt lat="43.29131" lon="-1.68677">
        <ele>146</ele>
        <time>2026-08-23T13:27:05.000Z</time>
      </trkpt>
      <trkpt lat="43.29124" lon="-1.68657">
        <ele>145</ele>
        <time>2026-08-23T13:27:08.000Z</time>
      </trkpt>
      <trkpt lat="43.2912" lon="-1.68624">
        <ele>142</ele>
        <time>2026-08-23T13:27:13.000Z</time>
      </trkpt>
      <trkpt lat="43.29128" lon="-1.68594">
        <ele>136</ele>
        <time>2026-08-23T13:27:17.000Z</time>
      </trkpt>
      <trkpt lat="43.29136" lon="-1.68577">
        <ele>132</ele>
        <time>2026-08-23T13:27:19.000Z</time>
      </trkpt>
      <trkpt lat="43.29163" lon="-1.68557">
        <ele>123</ele>
        <time>2026-08-23T13:27:25.000Z</time>
      </trkpt>
      <trkpt lat="43.29179" lon="-1.68537">
        <ele>117</ele>
        <time>2026-08-23T13:27:29.000Z</time>
      </trkpt>
      <trkpt lat="43.29188" lon="-1.68511">
        <ele>111</ele>
        <time>2026-08-23T13:27:32.000Z</time>
      </trkpt>
      <trkpt lat="43.2918" lon="-1.68492">
        <ele>111</ele>
        <time>2026-08-23T13:27:35.000Z</time>
      </trkpt>
      <trkpt lat="43.29159" lon="-1.68483">
        <ele>113</ele>
        <time>2026-08-23T13:27:39.000Z</time>
      </trkpt>
      <trkpt lat="43.29135" lon="-1.6848">
        <ele>117</ele>
        <time>2026-08-23T13:27:43.000Z</time>
      </trkpt>
      <trkpt lat="43.29113" lon="-1.68464">
        <ele>116</ele>
        <time>2026-08-23T13:27:48.000Z</time>
      </trkpt>
      <trkpt lat="43.29095" lon="-1.68438">
        <ele>110</ele>
        <time>2026-08-23T13:27:52.000Z</time>
      </trkpt>
      <trkpt lat="43.29062" lon="-1.68399">
        <ele>109</ele>
        <time>2026-08-23T13:28:00.000Z</time>
      </trkpt>
      <trkpt lat="43.29024" lon="-1.68385">
        <ele>120</ele>
        <time>2026-08-23T13:28:07.000Z</time>
      </trkpt>
      <trkpt lat="43.29015" lon="-1.68376">
        <ele>123</ele>
        <time>2026-08-23T13:28:09.000Z</time>
      </trkpt>
      <trkpt lat="43.29021" lon="-1.68351">
        <ele>119</ele>
        <time>2026-08-23T13:28:13.000Z</time>
      </trkpt>
      <trkpt lat="43.29045" lon="-1.68284">
        <ele>103</ele>
        <time>2026-08-23T13:28:22.000Z</time>
      </trkpt>
      <trkpt lat="43.29042" lon="-1.68245">
        <ele>101</ele>
        <time>2026-08-23T13:28:27.000Z</time>
      </trkpt>
      <trkpt lat="43.29003" lon="-1.68103">
        <ele>98</ele>
        <time>2026-08-23T13:28:47.000Z</time>
      </trkpt>
      <trkpt lat="43.28988" lon="-1.68062">
        <ele>91</ele>
        <time>2026-08-23T13:28:53.000Z</time>
      </trkpt>
      <trkpt lat="43.28974" lon="-1.68046">
        <ele>89</ele>
        <time>2026-08-23T13:28:56.000Z</time>
      </trkpt>
      <trkpt lat="43.28952" lon="-1.68037">
        <ele>89</ele>
        <time>2026-08-23T13:29:00.000Z</time>
      </trkpt>
      <trkpt lat="43.28898" lon="-1.68034">
        <ele>92</ele>
        <time>2026-08-23T13:29:10.000Z</time>
      </trkpt>
      <trkpt lat="43.28871" lon="-1.68027">
        <ele>92</ele>
        <time>2026-08-23T13:29:15.000Z</time>
      </trkpt>
      <trkpt lat="43.28841" lon="-1.68008">
        <ele>87</ele>
        <time>2026-08-23T13:29:21.000Z</time>
      </trkpt>
      <trkpt lat="43.2882" lon="-1.67997">
        <ele>84</ele>
        <time>2026-08-23T13:29:25.000Z</time>
      </trkpt>
      <trkpt lat="43.28773" lon="-1.67987">
        <ele>81</ele>
        <time>2026-08-23T13:29:33.000Z</time>
      </trkpt>
      <trkpt lat="43.28758" lon="-1.67996">
        <ele>81</ele>
        <time>2026-08-23T13:29:36.000Z</time>
      </trkpt>
      <trkpt lat="43.28739" lon="-1.67998">
        <ele>79</ele>
        <time>2026-08-23T13:29:39.000Z</time>
      </trkpt>
      <trkpt lat="43.28709" lon="-1.68004">
        <ele>77</ele>
        <time>2026-08-23T13:29:45.000Z</time>
      </trkpt>
      <trkpt lat="43.28667" lon="-1.68022">
        <ele>78</ele>
        <time>2026-08-23T13:29:53.000Z</time>
      </trkpt>
      <trkpt lat="43.28651" lon="-1.68019">
        <ele>78</ele>
        <time>2026-08-23T13:29:55.000Z</time>
      </trkpt>
      <trkpt lat="43.28629" lon="-1.68004">
        <ele>74</ele>
        <time>2026-08-23T13:30:00.000Z</time>
      </trkpt>
      <trkpt lat="43.28587" lon="-1.6795">
        <ele>66</ele>
        <time>2026-08-23T13:30:10.000Z</time>
      </trkpt>
      <trkpt lat="43.28579" lon="-1.67945">
        <ele>65</ele>
        <time>2026-08-23T13:30:12.000Z</time>
      </trkpt>
      <trkpt lat="43.28568" lon="-1.67944">
        <ele>65</ele>
        <time>2026-08-23T13:30:14.000Z</time>
      </trkpt>
      <trkpt lat="43.28557" lon="-1.6795">
        <ele>67</ele>
        <time>2026-08-23T13:30:16.000Z</time>
      </trkpt>
      <trkpt lat="43.28536" lon="-1.67964">
        <ele>72</ele>
        <time>2026-08-23T13:30:20.000Z</time>
      </trkpt>
      <trkpt lat="43.28477" lon="-1.67969">
        <ele>76</ele>
        <time>2026-08-23T13:30:30.000Z</time>
      </trkpt>
      <trkpt lat="43.28451" lon="-1.6796">
        <ele>72</ele>
        <time>2026-08-23T13:30:35.000Z</time>
      </trkpt>
      <trkpt lat="43.28439" lon="-1.67957">
        <ele>71</ele>
        <time>2026-08-23T13:30:37.000Z</time>
      </trkpt>
      <trkpt lat="43.28354" lon="-1.67921">
        <ele>54</ele>
        <time>2026-08-23T13:30:53.000Z</time>
      </trkpt>
      <trkpt lat="43.28293" lon="-1.67884">
        <ele>47</ele>
        <time>2026-08-23T13:31:05.000Z</time>
      </trkpt>
      <trkpt lat="43.28281" lon="-1.67877">
        <ele>46</ele>
        <time>2026-08-23T13:31:07.000Z</time>
      </trkpt>
      <trkpt lat="43.2828" lon="-1.67877">
        <ele>46</ele>
        <time>2026-08-23T13:31:08.000Z</time>
      </trkpt>
      <trkpt lat="43.28273" lon="-1.67872">
        <ele>46</ele>
        <time>2026-08-23T13:31:09.000Z</time>
      </trkpt>
      <trkpt lat="43.2827" lon="-1.6787">
        <ele>46</ele>
        <time>2026-08-23T13:31:10.000Z</time>
      </trkpt>
      <trkpt lat="43.28233" lon="-1.67857">
        <ele>45</ele>
        <time>2026-08-23T13:31:16.000Z</time>
      </trkpt>
      <trkpt lat="43.2823" lon="-1.67884">
        <ele>44</ele>
        <time>2026-08-23T13:31:20.000Z</time>
      </trkpt>
      <trkpt lat="43.28224" lon="-1.6791">
        <ele>44</ele>
        <time>2026-08-23T13:31:23.000Z</time>
      </trkpt>
      <trkpt lat="43.2822" lon="-1.67922">
        <ele>44</ele>
        <time>2026-08-23T13:31:25.000Z</time>
      </trkpt>
      <trkpt lat="43.28177" lon="-1.67967">
        <ele>44</ele>
        <time>2026-08-23T13:31:35.000Z</time>
      </trkpt>
      <trkpt lat="43.28168" lon="-1.67971">
        <ele>44</ele>
        <time>2026-08-23T13:31:36.000Z</time>
      </trkpt>
      <trkpt lat="43.28165" lon="-1.67985">
        <ele>43</ele>
        <time>2026-08-23T13:31:38.000Z</time>
      </trkpt>
      <trkpt lat="43.28158" lon="-1.67999">
        <ele>43</ele>
        <time>2026-08-23T13:31:40.000Z</time>
      </trkpt>
      <trkpt lat="43.28155" lon="-1.68012">
        <ele>43</ele>
        <time>2026-08-23T13:31:42.000Z</time>
      </trkpt>
      <trkpt lat="43.28157" lon="-1.68057">
        <ele>42</ele>
        <time>2026-08-23T13:31:48.000Z</time>
      </trkpt>
      <trkpt lat="43.28155" lon="-1.68066">
        <ele>41</ele>
        <time>2026-08-23T13:31:49.000Z</time>
      </trkpt>
      <trkpt lat="43.28169" lon="-1.68081">
        <ele>41</ele>
        <time>2026-08-23T13:31:52.000Z</time>
      </trkpt>
      <trkpt lat="43.28179" lon="-1.68089">
        <ele>42</ele>
        <time>2026-08-23T13:31:55.000Z</time>
      </trkpt>
      <trkpt lat="43.28189" lon="-1.68099">
        <ele>43</ele>
        <time>2026-08-23T13:31:57.000Z</time>
      </trkpt>
      <trkpt lat="43.28192" lon="-1.68108">
        <ele>44</ele>
        <time>2026-08-23T13:31:58.000Z</time>
      </trkpt>
      <trkpt lat="43.28193" lon="-1.68185">
        <ele>45</ele>
        <time>2026-08-23T13:32:08.000Z</time>
      </trkpt>
      <trkpt lat="43.28188" lon="-1.68211">
        <ele>45</ele>
        <time>2026-08-23T13:32:11.000Z</time>
      </trkpt>
      <trkpt lat="43.28183" lon="-1.68224">
        <ele>44</ele>
        <time>2026-08-23T13:32:13.000Z</time>
      </trkpt>
      <trkpt lat="43.28179" lon="-1.68251">
        <ele>44</ele>
        <time>2026-08-23T13:32:17.000Z</time>
      </trkpt>
      <trkpt lat="43.28178" lon="-1.68296">
        <ele>44</ele>
        <time>2026-08-23T13:32:23.000Z</time>
      </trkpt>
      <trkpt lat="43.28183" lon="-1.68333">
        <ele>45</ele>
        <time>2026-08-23T13:32:28.000Z</time>
      </trkpt>
      <trkpt lat="43.2818" lon="-1.68334">
        <ele>44</ele>
        <time>2026-08-23T13:32:28.000Z</time>
      </trkpt>
      <trkpt lat="43.28168" lon="-1.68347">
        <ele>41</ele>
        <time>2026-08-23T13:32:31.000Z</time>
      </trkpt>
      <trkpt lat="43.28131" lon="-1.68406">
        <ele>41</ele>
        <time>2026-08-23T13:32:41.000Z</time>
      </trkpt>
      <trkpt lat="43.2812" lon="-1.68418">
        <ele>41</ele>
        <time>2026-08-23T13:32:44.000Z</time>
      </trkpt>
      <trkpt lat="43.28116" lon="-1.68426">
        <ele>41</ele>
        <time>2026-08-23T13:32:45.000Z</time>
      </trkpt>
      <trkpt lat="43.28106" lon="-1.6844">
        <ele>41</ele>
        <time>2026-08-23T13:32:47.000Z</time>
      </trkpt>
      <trkpt lat="43.28097" lon="-1.68451">
        <ele>41</ele>
        <time>2026-08-23T13:32:49.000Z</time>
      </trkpt>
      <trkpt lat="43.28095" lon="-1.68459">
        <ele>41</ele>
        <time>2026-08-23T13:32:51.000Z</time>
      </trkpt>
      <trkpt lat="43.28073" lon="-1.6849">
        <ele>41</ele>
        <time>2026-08-23T13:32:56.000Z</time>
      </trkpt>
      <trkpt lat="43.28071" lon="-1.68497">
        <ele>41</ele>
        <time>2026-08-23T13:32:57.000Z</time>
      </trkpt>
      <trkpt lat="43.28071" lon="-1.68553">
        <ele>41</ele>
        <time>2026-08-23T13:33:04.000Z</time>
      </trkpt>
      <trkpt lat="43.28074" lon="-1.68566">
        <ele>41</ele>
        <time>2026-08-23T13:33:06.000Z</time>
      </trkpt>
      <trkpt lat="43.28086" lon="-1.68589">
        <ele>40</ele>
        <time>2026-08-23T13:33:10.000Z</time>
      </trkpt>
      <trkpt lat="43.28085" lon="-1.68624">
        <ele>41</ele>
        <time>2026-08-23T13:33:14.000Z</time>
      </trkpt>
      <trkpt lat="43.28089" lon="-1.68649">
        <ele>42</ele>
        <time>2026-08-23T13:33:18.000Z</time>
      </trkpt>
      <trkpt lat="43.28093" lon="-1.68665">
        <ele>42</ele>
        <time>2026-08-23T13:33:20.000Z</time>
      </trkpt>
      <trkpt lat="43.281" lon="-1.68682">
        <ele>43</ele>
        <time>2026-08-23T13:33:22.000Z</time>
      </trkpt>
      <trkpt lat="43.28103" lon="-1.68713">
        <ele>43</ele>
        <time>2026-08-23T13:33:26.000Z</time>
      </trkpt>
      <trkpt lat="43.28113" lon="-1.68733">
        <ele>44</ele>
        <time>2026-08-23T13:33:30.000Z</time>
      </trkpt>
      <trkpt lat="43.28109" lon="-1.68751">
        <ele>43</ele>
        <time>2026-08-23T13:33:32.000Z</time>
      </trkpt>
      <trkpt lat="43.28118" lon="-1.68756">
        <ele>45</ele>
        <time>2026-08-23T13:33:34.000Z</time>
      </trkpt>
      <trkpt lat="43.28122" lon="-1.68761">
        <ele>45</ele>
        <time>2026-08-23T13:33:35.000Z</time>
      </trkpt>
      <trkpt lat="43.28125" lon="-1.68767">
        <ele>45</ele>
        <time>2026-08-23T13:33:36.000Z</time>
      </trkpt>
      <trkpt lat="43.28143" lon="-1.68867">
        <ele>44</ele>
        <time>2026-08-23T13:33:49.000Z</time>
      </trkpt>
      <trkpt lat="43.28149" lon="-1.68889">
        <ele>45</ele>
        <time>2026-08-23T13:33:52.000Z</time>
      </trkpt>
      <trkpt lat="43.28154" lon="-1.68906">
        <ele>45</ele>
        <time>2026-08-23T13:33:54.000Z</time>
      </trkpt>
      <trkpt lat="43.28162" lon="-1.68931">
        <ele>45</ele>
        <time>2026-08-23T13:33:58.000Z</time>
      </trkpt>
      <trkpt lat="43.28174" lon="-1.68964">
        <ele>45</ele>
        <time>2026-08-23T13:34:03.000Z</time>
      </trkpt>
      <trkpt lat="43.2819" lon="-1.69">
        <ele>48</ele>
        <time>2026-08-23T13:34:08.000Z</time>
      </trkpt>
      <trkpt lat="43.28197" lon="-1.69021">
        <ele>49</ele>
        <time>2026-08-23T13:34:11.000Z</time>
      </trkpt>
      <trkpt lat="43.282" lon="-1.69036">
        <ele>50</ele>
        <time>2026-08-23T13:34:13.000Z</time>
      </trkpt>
      <trkpt lat="43.28202" lon="-1.69056">
        <ele>50</ele>
        <time>2026-08-23T13:34:16.000Z</time>
      </trkpt>
      <trkpt lat="43.28202" lon="-1.69114">
        <ele>48</ele>
        <time>2026-08-23T13:34:23.000Z</time>
      </trkpt>
      <trkpt lat="43.28203" lon="-1.69128">
        <ele>48</ele>
        <time>2026-08-23T13:34:25.000Z</time>
      </trkpt>
      <trkpt lat="43.28203" lon="-1.69143">
        <ele>48</ele>
        <time>2026-08-23T13:34:27.000Z</time>
      </trkpt>
      <trkpt lat="43.28206" lon="-1.6918">
        <ele>47</ele>
        <time>2026-08-23T13:34:32.000Z</time>
      </trkpt>
      <trkpt lat="43.28207" lon="-1.69181">
        <ele>47</ele>
        <time>2026-08-23T13:34:32.000Z</time>
      </trkpt>
      <trkpt lat="43.2821" lon="-1.69192">
        <ele>48</ele>
        <time>2026-08-23T13:34:34.000Z</time>
      </trkpt>
      <trkpt lat="43.28215" lon="-1.69206">
        <ele>48</ele>
        <time>2026-08-23T13:34:36.000Z</time>
      </trkpt>
      <trkpt lat="43.2822" lon="-1.6922">
        <ele>48</ele>
        <time>2026-08-23T13:34:38.000Z</time>
      </trkpt>
      <trkpt lat="43.28223" lon="-1.69231">
        <ele>48</ele>
        <time>2026-08-23T13:34:39.000Z</time>
      </trkpt>
      <trkpt lat="43.28228" lon="-1.6925">
        <ele>48</ele>
        <time>2026-08-23T13:34:42.000Z</time>
      </trkpt>
      <trkpt lat="43.2823" lon="-1.69273">
        <ele>45</ele>
        <time>2026-08-23T13:34:45.000Z</time>
      </trkpt>
      <trkpt lat="43.28234" lon="-1.69336">
        <ele>37</ele>
        <time>2026-08-23T13:34:53.000Z</time>
      </trkpt>
      <trkpt lat="43.28235" lon="-1.69409">
        <ele>33</ele>
        <time>2026-08-23T13:35:02.000Z</time>
      </trkpt>
      <trkpt lat="43.28227" lon="-1.69486">
        <ele>32</ele>
        <time>2026-08-23T13:35:13.000Z</time>
      </trkpt>
      <trkpt lat="43.28217" lon="-1.69568">
        <ele>35</ele>
        <time>2026-08-23T13:35:23.000Z</time>
      </trkpt>
      <trkpt lat="43.28165" lon="-1.6988">
        <ele>33</ele>
        <time>2026-08-23T13:36:05.000Z</time>
      </trkpt>
      <trkpt lat="43.2816" lon="-1.69906">
        <ele>33</ele>
        <time>2026-08-23T13:36:08.000Z</time>
      </trkpt>
      <trkpt lat="43.28151" lon="-1.69934">
        <ele>35</ele>
        <time>2026-08-23T13:36:12.000Z</time>
      </trkpt>
      <trkpt lat="43.28133" lon="-1.69967">
        <ele>37</ele>
        <time>2026-08-23T13:36:18.000Z</time>
      </trkpt>
      <trkpt lat="43.28113" lon="-1.70001">
        <ele>39</ele>
        <time>2026-08-23T13:36:23.000Z</time>
      </trkpt>
      <trkpt lat="43.28105" lon="-1.70011">
        <ele>42</ele>
        <time>2026-08-23T13:36:25.000Z</time>
      </trkpt>
      <trkpt lat="43.28091" lon="-1.70021">
        <ele>44</ele>
        <time>2026-08-23T13:36:28.000Z</time>
      </trkpt>
      <trkpt lat="43.28082" lon="-1.70024">
        <ele>45</ele>
        <time>2026-08-23T13:36:30.000Z</time>
      </trkpt>
      <trkpt lat="43.28065" lon="-1.70026">
        <ele>47</ele>
        <time>2026-08-23T13:36:33.000Z</time>
      </trkpt>
      <trkpt lat="43.28036" lon="-1.70022">
        <ele>49</ele>
        <time>2026-08-23T13:36:38.000Z</time>
      </trkpt>
      <trkpt lat="43.28004" lon="-1.70007">
        <ele>46</ele>
        <time>2026-08-23T13:36:44.000Z</time>
      </trkpt>
      <trkpt lat="43.27958" lon="-1.69966">
        <ele>40</ele>
        <time>2026-08-23T13:36:54.000Z</time>
      </trkpt>
      <trkpt lat="43.27947" lon="-1.69961">
        <ele>39</ele>
        <time>2026-08-23T13:36:56.000Z</time>
      </trkpt>
      <trkpt lat="43.27933" lon="-1.6996">
        <ele>39</ele>
        <time>2026-08-23T13:36:58.000Z</time>
      </trkpt>
      <trkpt lat="43.27916" lon="-1.69963">
        <ele>40</ele>
        <time>2026-08-23T13:37:01.000Z</time>
      </trkpt>
      <trkpt lat="43.27905" lon="-1.69969">
        <ele>40</ele>
        <time>2026-08-23T13:37:03.000Z</time>
      </trkpt>
      <trkpt lat="43.27862" lon="-1.70009">
        <ele>40</ele>
        <time>2026-08-23T13:37:13.000Z</time>
      </trkpt>
      <trkpt lat="43.27857" lon="-1.70016">
        <ele>41</ele>
        <time>2026-08-23T13:37:14.000Z</time>
      </trkpt>
      <trkpt lat="43.2785" lon="-1.7002">
        <ele>41</ele>
        <time>2026-08-23T13:37:15.000Z</time>
      </trkpt>
      <trkpt lat="43.27845" lon="-1.70024">
        <ele>41</ele>
        <time>2026-08-23T13:37:16.000Z</time>
      </trkpt>
      <trkpt lat="43.27845" lon="-1.70025">
        <ele>41</ele>
        <time>2026-08-23T13:37:16.000Z</time>
      </trkpt>
      <trkpt lat="43.27842" lon="-1.7003">
        <ele>41</ele>
        <time>2026-08-23T13:37:17.000Z</time>
      </trkpt>
      <trkpt lat="43.2784" lon="-1.70031">
        <ele>41</ele>
        <time>2026-08-23T13:37:18.000Z</time>
      </trkpt>
      <trkpt lat="43.27835" lon="-1.70038">
        <ele>42</ele>
        <time>2026-08-23T13:37:19.000Z</time>
      </trkpt>
      <trkpt lat="43.27825" lon="-1.70047">
        <ele>42</ele>
        <time>2026-08-23T13:37:21.000Z</time>
      </trkpt>
      <trkpt lat="43.27807" lon="-1.70063">
        <ele>43</ele>
        <time>2026-08-23T13:37:25.000Z</time>
      </trkpt>
      <trkpt lat="43.27782" lon="-1.70096">
        <ele>44</ele>
        <time>2026-08-23T13:37:31.000Z</time>
      </trkpt>
      <trkpt lat="43.2777" lon="-1.70126">
        <ele>46</ele>
        <time>2026-08-23T13:37:35.000Z</time>
      </trkpt>
      <trkpt lat="43.27753" lon="-1.70198">
        <ele>49</ele>
        <time>2026-08-23T13:37:45.000Z</time>
      </trkpt>
      <trkpt lat="43.2774" lon="-1.70279">
        <ele>51</ele>
        <time>2026-08-23T13:37:56.000Z</time>
      </trkpt>
      <trkpt lat="43.27737" lon="-1.70292">
        <ele>51</ele>
        <time>2026-08-23T13:37:58.000Z</time>
      </trkpt>
      <trkpt lat="43.27718" lon="-1.70286">
        <ele>47</ele>
        <time>2026-08-23T13:38:01.000Z</time>
      </trkpt>
      <trkpt lat="43.27702" lon="-1.70284">
        <ele>44</ele>
        <time>2026-08-23T13:38:04.000Z</time>
      </trkpt>
      <trkpt lat="43.27684" lon="-1.70289">
        <ele>41</ele>
        <time>2026-08-23T13:38:07.000Z</time>
      </trkpt>
      <trkpt lat="43.27676" lon="-1.70281">
        <ele>39</ele>
        <time>2026-08-23T13:38:09.000Z</time>
      </trkpt>
      <trkpt lat="43.27658" lon="-1.70279">
        <ele>37</ele>
        <time>2026-08-23T13:38:12.000Z</time>
      </trkpt>
      <trkpt lat="43.27649" lon="-1.70274">
        <ele>36</ele>
        <time>2026-08-23T13:38:14.000Z</time>
      </trkpt>
      <trkpt lat="43.2763" lon="-1.70274">
        <ele>34</ele>
        <time>2026-08-23T13:38:17.000Z</time>
      </trkpt>
      <trkpt lat="43.27615" lon="-1.70267">
        <ele>33</ele>
        <time>2026-08-23T13:38:20.000Z</time>
      </trkpt>
      <trkpt lat="43.27594" lon="-1.70235">
        <ele>31</ele>
        <time>2026-08-23T13:38:26.000Z</time>
      </trkpt>
      <trkpt lat="43.27567" lon="-1.70245">
        <ele>31</ele>
        <time>2026-08-23T13:38:31.000Z</time>
      </trkpt>
      <trkpt lat="43.27566" lon="-1.70228">
        <ele>31</ele>
        <time>2026-08-23T13:38:33.000Z</time>
      </trkpt>
      <trkpt lat="43.2757" lon="-1.70092">
        <ele>32</ele>
        <time>2026-08-23T13:38:51.000Z</time>
      </trkpt>
      <trkpt lat="43.27578" lon="-1.70031">
        <ele>30</ele>
        <time>2026-08-23T13:38:59.000Z</time>
      </trkpt>
      <trkpt lat="43.27578" lon="-1.70022">
        <ele>30</ele>
        <time>2026-08-23T13:39:00.000Z</time>
      </trkpt>
      <trkpt lat="43.27573" lon="-1.69882">
        <ele>32</ele>
        <time>2026-08-23T13:39:18.000Z</time>
      </trkpt>
      <trkpt lat="43.27572" lon="-1.6978">
        <ele>33</ele>
        <time>2026-08-23T13:39:31.000Z</time>
      </trkpt>
      <trkpt lat="43.27569" lon="-1.69576">
        <ele>43</ele>
        <time>2026-08-23T13:39:58.000Z</time>
      </trkpt>
      <trkpt lat="43.27568" lon="-1.69515">
        <ele>50</ele>
        <time>2026-08-23T13:40:05.000Z</time>
      </trkpt>
      <trkpt lat="43.27562" lon="-1.69463">
        <ele>60</ele>
        <time>2026-08-23T13:40:12.000Z</time>
      </trkpt>
      <trkpt lat="43.27539" lon="-1.69348">
        <ele>75</ele>
        <time>2026-08-23T13:40:28.000Z</time>
      </trkpt>
      <trkpt lat="43.27513" lon="-1.69264">
        <ele>73</ele>
        <time>2026-08-23T13:40:40.000Z</time>
      </trkpt>
      <trkpt lat="43.27456" lon="-1.69169">
        <ele>52</ele>
        <time>2026-08-23T13:40:56.000Z</time>
      </trkpt>
      <trkpt lat="43.27427" lon="-1.69132">
        <ele>47</ele>
        <time>2026-08-23T13:41:03.000Z</time>
      </trkpt>
      <trkpt lat="43.27383" lon="-1.69087">
        <ele>43</ele>
        <time>2026-08-23T13:41:12.000Z</time>
      </trkpt>
      <trkpt lat="43.27175" lon="-1.68921">
        <ele>37</ele>
        <time>2026-08-23T13:41:55.000Z</time>
      </trkpt>
      <trkpt lat="43.27134" lon="-1.68872">
        <ele>36</ele>
        <time>2026-08-23T13:42:05.000Z</time>
      </trkpt>
      <trkpt lat="43.27118" lon="-1.68845">
        <ele>35</ele>
        <time>2026-08-23T13:42:09.000Z</time>
      </trkpt>
      <trkpt lat="43.27078" lon="-1.68758">
        <ele>35</ele>
        <time>2026-08-23T13:42:23.000Z</time>
      </trkpt>
      <trkpt lat="43.27063" lon="-1.68723">
        <ele>37</ele>
        <time>2026-08-23T13:42:28.000Z</time>
      </trkpt>
      <trkpt lat="43.27055" lon="-1.68698">
        <ele>38</ele>
        <time>2026-08-23T13:42:31.000Z</time>
      </trkpt>
      <trkpt lat="43.27044" lon="-1.6866">
        <ele>39</ele>
        <time>2026-08-23T13:42:37.000Z</time>
      </trkpt>
      <trkpt lat="43.27034" lon="-1.68614">
        <ele>40</ele>
        <time>2026-08-23T13:42:43.000Z</time>
      </trkpt>
      <trkpt lat="43.27017" lon="-1.6851">
        <ele>42</ele>
        <time>2026-08-23T13:42:57.000Z</time>
      </trkpt>
      <trkpt lat="43.2701" lon="-1.68483">
        <ele>45</ele>
        <time>2026-08-23T13:43:00.000Z</time>
      </trkpt>
      <trkpt lat="43.26995" lon="-1.68439">
        <ele>53</ele>
        <time>2026-08-23T13:43:07.000Z</time>
      </trkpt>
      <trkpt lat="43.26983" lon="-1.68416">
        <ele>56</ele>
        <time>2026-08-23T13:43:10.000Z</time>
      </trkpt>
      <trkpt lat="43.26976" lon="-1.68405">
        <ele>59</ele>
        <time>2026-08-23T13:43:12.000Z</time>
      </trkpt>
      <trkpt lat="43.2697" lon="-1.68395">
        <ele>61</ele>
        <time>2026-08-23T13:43:14.000Z</time>
      </trkpt>
      <trkpt lat="43.26953" lon="-1.68373">
        <ele>64</ele>
        <time>2026-08-23T13:43:18.000Z</time>
      </trkpt>
      <trkpt lat="43.26935" lon="-1.68354">
        <ele>65</ele>
        <time>2026-08-23T13:43:22.000Z</time>
      </trkpt>
      <trkpt lat="43.26922" lon="-1.68343">
        <ele>63</ele>
        <time>2026-08-23T13:43:25.000Z</time>
      </trkpt>
      <trkpt lat="43.26905" lon="-1.68331">
        <ele>63</ele>
        <time>2026-08-23T13:43:28.000Z</time>
      </trkpt>
      <trkpt lat="43.26883" lon="-1.6832">
        <ele>64</ele>
        <time>2026-08-23T13:43:33.000Z</time>
      </trkpt>
      <trkpt lat="43.26857" lon="-1.68311">
        <ele>63</ele>
        <time>2026-08-23T13:43:37.000Z</time>
      </trkpt>
      <trkpt lat="43.26836" lon="-1.68308">
        <ele>60</ele>
        <time>2026-08-23T13:43:41.000Z</time>
      </trkpt>
      <trkpt lat="43.26814" lon="-1.68307">
        <ele>60</ele>
        <time>2026-08-23T13:43:45.000Z</time>
      </trkpt>
      <trkpt lat="43.26791" lon="-1.6831">
        <ele>59</ele>
        <time>2026-08-23T13:43:49.000Z</time>
      </trkpt>
      <trkpt lat="43.2677" lon="-1.68316">
        <ele>57</ele>
        <time>2026-08-23T13:43:53.000Z</time>
      </trkpt>
      <trkpt lat="43.26744" lon="-1.68328">
        <ele>54</ele>
        <time>2026-08-23T13:43:58.000Z</time>
      </trkpt>
      <trkpt lat="43.26715" lon="-1.68348">
        <ele>54</ele>
        <time>2026-08-23T13:44:04.000Z</time>
      </trkpt>
      <trkpt lat="43.26572" lon="-1.68456">
        <ele>53</ele>
        <time>2026-08-23T13:44:33.000Z</time>
      </trkpt>
      <trkpt lat="43.26531" lon="-1.68485">
        <ele>52</ele>
        <time>2026-08-23T13:44:41.000Z</time>
      </trkpt>
      <trkpt lat="43.2649" lon="-1.68508">
        <ele>52</ele>
        <time>2026-08-23T13:44:49.000Z</time>
      </trkpt>
      <trkpt lat="43.26463" lon="-1.6852">
        <ele>53</ele>
        <time>2026-08-23T13:44:54.000Z</time>
      </trkpt>
      <trkpt lat="43.26425" lon="-1.68532">
        <ele>53</ele>
        <time>2026-08-23T13:45:01.000Z</time>
      </trkpt>
      <trkpt lat="43.26393" lon="-1.68539">
        <ele>53</ele>
        <time>2026-08-23T13:45:06.000Z</time>
      </trkpt>
      <trkpt lat="43.26364" lon="-1.68542">
        <ele>53</ele>
        <time>2026-08-23T13:45:12.000Z</time>
      </trkpt>
      <trkpt lat="43.26336" lon="-1.68543">
        <ele>53</ele>
        <time>2026-08-23T13:45:17.000Z</time>
      </trkpt>
      <trkpt lat="43.26309" lon="-1.68542">
        <ele>50</ele>
        <time>2026-08-23T13:45:21.000Z</time>
      </trkpt>
      <trkpt lat="43.26284" lon="-1.68538">
        <ele>48</ele>
        <time>2026-08-23T13:45:26.000Z</time>
      </trkpt>
      <trkpt lat="43.26255" lon="-1.68527">
        <ele>47</ele>
        <time>2026-08-23T13:45:31.000Z</time>
      </trkpt>
      <trkpt lat="43.26225" lon="-1.68512">
        <ele>49</ele>
        <time>2026-08-23T13:45:37.000Z</time>
      </trkpt>
      <trkpt lat="43.26207" lon="-1.68499">
        <ele>49</ele>
        <time>2026-08-23T13:45:40.000Z</time>
      </trkpt>
      <trkpt lat="43.26183" lon="-1.68479">
        <ele>51</ele>
        <time>2026-08-23T13:45:45.000Z</time>
      </trkpt>
      <trkpt lat="43.26162" lon="-1.68454">
        <ele>52</ele>
        <time>2026-08-23T13:45:50.000Z</time>
      </trkpt>
      <trkpt lat="43.26134" lon="-1.68412">
        <ele>56</ele>
        <time>2026-08-23T13:45:58.000Z</time>
      </trkpt>
      <trkpt lat="43.26118" lon="-1.68379">
        <ele>59</ele>
        <time>2026-08-23T13:46:03.000Z</time>
      </trkpt>
      <trkpt lat="43.26116" lon="-1.68361">
        <ele>60</ele>
        <time>2026-08-23T13:46:05.000Z</time>
      </trkpt>
      <trkpt lat="43.26101" lon="-1.68294">
        <ele>59</ele>
        <time>2026-08-23T13:46:14.000Z</time>
      </trkpt>
      <trkpt lat="43.26099" lon="-1.68268">
        <ele>59</ele>
        <time>2026-08-23T13:46:18.000Z</time>
      </trkpt>
      <trkpt lat="43.26099" lon="-1.68237">
        <ele>59</ele>
        <time>2026-08-23T13:46:22.000Z</time>
      </trkpt>
      <trkpt lat="43.26122" lon="-1.68055">
        <ele>66</ele>
        <time>2026-08-23T13:46:46.000Z</time>
      </trkpt>
      <trkpt lat="43.26125" lon="-1.68002">
        <ele>67</ele>
        <time>2026-08-23T13:46:53.000Z</time>
      </trkpt>
      <trkpt lat="43.26122" lon="-1.67972">
        <ele>67</ele>
        <time>2026-08-23T13:46:57.000Z</time>
      </trkpt>
      <trkpt lat="43.26115" lon="-1.67948">
        <ele>66</ele>
        <time>2026-08-23T13:47:00.000Z</time>
      </trkpt>
      <trkpt lat="43.26093" lon="-1.67904">
        <ele>63</ele>
        <time>2026-08-23T13:47:07.000Z</time>
      </trkpt>
      <trkpt lat="43.26091" lon="-1.67899">
        <ele>63</ele>
        <time>2026-08-23T13:47:08.000Z</time>
      </trkpt>
      <trkpt lat="43.26064" lon="-1.67875">
        <ele>65</ele>
        <time>2026-08-23T13:47:13.000Z</time>
      </trkpt>
      <trkpt lat="43.26031" lon="-1.67855">
        <ele>68</ele>
        <time>2026-08-23T13:47:20.000Z</time>
      </trkpt>
      <trkpt lat="43.25985" lon="-1.67843">
        <ele>68</ele>
        <time>2026-08-23T13:47:28.000Z</time>
      </trkpt>
      <trkpt lat="43.2596" lon="-1.67838">
        <ele>70</ele>
        <time>2026-08-23T13:47:33.000Z</time>
      </trkpt>
      <trkpt lat="43.25936" lon="-1.67841">
        <ele>70</ele>
        <time>2026-08-23T13:47:37.000Z</time>
      </trkpt>
      <trkpt lat="43.25832" lon="-1.67882">
        <ele>66</ele>
        <time>2026-08-23T13:47:56.000Z</time>
      </trkpt>
      <trkpt lat="43.25808" lon="-1.67892">
        <ele>64</ele>
        <time>2026-08-23T13:48:01.000Z</time>
      </trkpt>
      <trkpt lat="43.25769" lon="-1.67909">
        <ele>62</ele>
        <time>2026-08-23T13:48:08.000Z</time>
      </trkpt>
      <trkpt lat="43.25748" lon="-1.67917">
        <ele>61</ele>
        <time>2026-08-23T13:48:12.000Z</time>
      </trkpt>
      <trkpt lat="43.25727" lon="-1.6793">
        <ele>59</ele>
        <time>2026-08-23T13:48:16.000Z</time>
      </trkpt>
      <trkpt lat="43.25707" lon="-1.67953">
        <ele>55</ele>
        <time>2026-08-23T13:48:20.000Z</time>
      </trkpt>
      <trkpt lat="43.25692" lon="-1.67974">
        <ele>53</ele>
        <time>2026-08-23T13:48:24.000Z</time>
      </trkpt>
      <trkpt lat="43.25661" lon="-1.68003">
        <ele>53</ele>
        <time>2026-08-23T13:48:31.000Z</time>
      </trkpt>
      <trkpt lat="43.25628" lon="-1.68023">
        <ele>57</ele>
        <time>2026-08-23T13:48:37.000Z</time>
      </trkpt>
      <trkpt lat="43.25568" lon="-1.68047">
        <ele>58</ele>
        <time>2026-08-23T13:48:48.000Z</time>
      </trkpt>
      <trkpt lat="43.25544" lon="-1.68051">
        <ele>57</ele>
        <time>2026-08-23T13:48:53.000Z</time>
      </trkpt>
      <trkpt lat="43.2552" lon="-1.68052">
        <ele>57</ele>
        <time>2026-08-23T13:48:57.000Z</time>
      </trkpt>
      <trkpt lat="43.25425" lon="-1.68038">
        <ele>63</ele>
        <time>2026-08-23T13:49:14.000Z</time>
      </trkpt>
      <trkpt lat="43.25301" lon="-1.68041">
        <ele>59</ele>
        <time>2026-08-23T13:49:36.000Z</time>
      </trkpt>
      <trkpt lat="43.25256" lon="-1.68033">
        <ele>58</ele>
        <time>2026-08-23T13:49:44.000Z</time>
      </trkpt>
      <trkpt lat="43.25217" lon="-1.68007">
        <ele>56</ele>
        <time>2026-08-23T13:49:52.000Z</time>
      </trkpt>
      <trkpt lat="43.25189" lon="-1.67964">
        <ele>57</ele>
        <time>2026-08-23T13:49:59.000Z</time>
      </trkpt>
      <trkpt lat="43.25166" lon="-1.67913">
        <ele>56</ele>
        <time>2026-08-23T13:50:07.000Z</time>
      </trkpt>
      <trkpt lat="43.25153" lon="-1.67868">
        <ele>59</ele>
        <time>2026-08-23T13:50:13.000Z</time>
      </trkpt>
      <trkpt lat="43.25145" lon="-1.67817">
        <ele>61</ele>
        <time>2026-08-23T13:50:20.000Z</time>
      </trkpt>
      <trkpt lat="43.25143" lon="-1.67777">
        <ele>63</ele>
        <time>2026-08-23T13:50:25.000Z</time>
      </trkpt>
      <trkpt lat="43.25145" lon="-1.67737">
        <ele>65</ele>
        <time>2026-08-23T13:50:31.000Z</time>
      </trkpt>
      <trkpt lat="43.25152" lon="-1.67668">
        <ele>68</ele>
        <time>2026-08-23T13:50:40.000Z</time>
      </trkpt>
      <trkpt lat="43.25161" lon="-1.67611">
        <ele>68</ele>
        <time>2026-08-23T13:50:47.000Z</time>
      </trkpt>
      <trkpt lat="43.25163" lon="-1.67576">
        <ele>68</ele>
        <time>2026-08-23T13:50:52.000Z</time>
      </trkpt>
      <trkpt lat="43.25169" lon="-1.67543">
        <ele>70</ele>
        <time>2026-08-23T13:50:56.000Z</time>
      </trkpt>
      <trkpt lat="43.2517" lon="-1.6752">
        <ele>70</ele>
        <time>2026-08-23T13:50:59.000Z</time>
      </trkpt>
      <trkpt lat="43.25169" lon="-1.67492">
        <ele>70</ele>
        <time>2026-08-23T13:51:03.000Z</time>
      </trkpt>
      <trkpt lat="43.25151" lon="-1.67423">
        <ele>71</ele>
        <time>2026-08-23T13:51:12.000Z</time>
      </trkpt>
      <trkpt lat="43.2513" lon="-1.67381">
        <ele>73</ele>
        <time>2026-08-23T13:51:19.000Z</time>
      </trkpt>
      <trkpt lat="43.25108" lon="-1.67345">
        <ele>68</ele>
        <time>2026-08-23T13:51:25.000Z</time>
      </trkpt>
      <trkpt lat="43.25051" lon="-1.67276">
        <ele>65</ele>
        <time>2026-08-23T13:51:38.000Z</time>
      </trkpt>
      <trkpt lat="43.25" lon="-1.67219">
        <ele>60</ele>
        <time>2026-08-23T13:51:50.000Z</time>
      </trkpt>
      <trkpt lat="43.24929" lon="-1.67157">
        <ele>61</ele>
        <time>2026-08-23T13:52:05.000Z</time>
      </trkpt>
      <trkpt lat="43.24858" lon="-1.67088">
        <ele>61</ele>
        <time>2026-08-23T13:52:21.000Z</time>
      </trkpt>
      <trkpt lat="43.24796" lon="-1.67042">
        <ele>60</ele>
        <time>2026-08-23T13:52:33.000Z</time>
      </trkpt>
      <trkpt lat="43.24694" lon="-1.66944">
        <ele>68</ele>
        <time>2026-08-23T13:52:55.000Z</time>
      </trkpt>
      <trkpt lat="43.24622" lon="-1.66888">
        <ele>73</ele>
        <time>2026-08-23T13:53:10.000Z</time>
      </trkpt>
      <trkpt lat="43.24603" lon="-1.6688">
        <ele>75</ele>
        <time>2026-08-23T13:53:14.000Z</time>
      </trkpt>
      <trkpt lat="43.24583" lon="-1.66878">
        <ele>74</ele>
        <time>2026-08-23T13:53:17.000Z</time>
      </trkpt>
      <trkpt lat="43.24557" lon="-1.66881">
        <ele>76</ele>
        <time>2026-08-23T13:53:22.000Z</time>
      </trkpt>
      <trkpt lat="43.24512" lon="-1.66895">
        <ele>75</ele>
        <time>2026-08-23T13:53:30.000Z</time>
      </trkpt>
      <trkpt lat="43.24457" lon="-1.66916">
        <ele>70</ele>
        <time>2026-08-23T13:53:40.000Z</time>
      </trkpt>
      <trkpt lat="43.24304" lon="-1.6699">
        <ele>62</ele>
        <time>2026-08-23T13:54:09.000Z</time>
      </trkpt>
      <trkpt lat="43.24301" lon="-1.66998">
        <ele>59</ele>
        <time>2026-08-23T13:54:10.000Z</time>
      </trkpt>
      <trkpt lat="43.24303" lon="-1.67003">
        <ele>58</ele>
        <time>2026-08-23T13:54:11.000Z</time>
      </trkpt>
      <trkpt lat="43.24304" lon="-1.67014">
        <ele>57</ele>
        <time>2026-08-23T13:54:12.000Z</time>
      </trkpt>
      <trkpt lat="43.243" lon="-1.67023">
        <ele>57</ele>
        <time>2026-08-23T13:54:14.000Z</time>
      </trkpt>
      <trkpt lat="43.24292" lon="-1.67028">
        <ele>57</ele>
        <time>2026-08-23T13:54:15.000Z</time>
      </trkpt>
      <trkpt lat="43.24284" lon="-1.67025">
        <ele>58</ele>
        <time>2026-08-23T13:54:17.000Z</time>
      </trkpt>
      <trkpt lat="43.2428" lon="-1.67019">
        <ele>59</ele>
        <time>2026-08-23T13:54:18.000Z</time>
      </trkpt>
      <trkpt lat="43.24278" lon="-1.67014">
        <ele>59</ele>
        <time>2026-08-23T13:54:19.000Z</time>
      </trkpt>
      <trkpt lat="43.24279" lon="-1.67003">
        <ele>60</ele>
        <time>2026-08-23T13:54:20.000Z</time>
      </trkpt>
      <trkpt lat="43.24271" lon="-1.66979">
        <ele>69</ele>
        <time>2026-08-23T13:54:23.000Z</time>
      </trkpt>
      <trkpt lat="43.24253" lon="-1.66968">
        <ele>74</ele>
        <time>2026-08-23T13:54:27.000Z</time>
      </trkpt>
      <trkpt lat="43.24232" lon="-1.66972">
        <ele>72</ele>
        <time>2026-08-23T13:54:31.000Z</time>
      </trkpt>
      <trkpt lat="43.24153" lon="-1.66969">
        <ele>72</ele>
        <time>2026-08-23T13:54:45.000Z</time>
      </trkpt>
      <trkpt lat="43.24136" lon="-1.66963">
        <ele>73</ele>
        <time>2026-08-23T13:54:48.000Z</time>
      </trkpt>
      <trkpt lat="43.24103" lon="-1.66947">
        <ele>76</ele>
        <time>2026-08-23T13:54:54.000Z</time>
      </trkpt>
      <trkpt lat="43.23996" lon="-1.66913">
        <ele>70</ele>
        <time>2026-08-23T13:55:14.000Z</time>
      </trkpt>
      <trkpt lat="43.23984" lon="-1.66902">
        <ele>71</ele>
        <time>2026-08-23T13:55:16.000Z</time>
      </trkpt>
      <trkpt lat="43.23976" lon="-1.66889">
        <ele>72</ele>
        <time>2026-08-23T13:55:18.000Z</time>
      </trkpt>
      <trkpt lat="43.23972" lon="-1.66867">
        <ele>73</ele>
        <time>2026-08-23T13:55:21.000Z</time>
      </trkpt>
      <trkpt lat="43.23976" lon="-1.66848">
        <ele>73</ele>
        <time>2026-08-23T13:55:24.000Z</time>
      </trkpt>
      <trkpt lat="43.23982" lon="-1.66838">
        <ele>73</ele>
        <time>2026-08-23T13:55:26.000Z</time>
      </trkpt>
      <trkpt lat="43.24025" lon="-1.66796">
        <ele>76</ele>
        <time>2026-08-23T13:55:35.000Z</time>
      </trkpt>
      <trkpt lat="43.24088" lon="-1.6676">
        <ele>84</ele>
        <time>2026-08-23T13:55:47.000Z</time>
      </trkpt>
      <trkpt lat="43.24107" lon="-1.66735">
        <ele>88</ele>
        <time>2026-08-23T13:55:52.000Z</time>
      </trkpt>
      <trkpt lat="43.24121" lon="-1.66699">
        <ele>90</ele>
        <time>2026-08-23T13:55:57.000Z</time>
      </trkpt>
      <trkpt lat="43.24128" lon="-1.66657">
        <ele>92</ele>
        <time>2026-08-23T13:56:03.000Z</time>
      </trkpt>
      <trkpt lat="43.24128" lon="-1.66635">
        <ele>95</ele>
        <time>2026-08-23T13:56:05.000Z</time>
      </trkpt>
      <trkpt lat="43.2412" lon="-1.66617">
        <ele>94</ele>
        <time>2026-08-23T13:56:08.000Z</time>
      </trkpt>
      <trkpt lat="43.24104" lon="-1.66605">
        <ele>91</ele>
        <time>2026-08-23T13:56:11.000Z</time>
      </trkpt>
      <trkpt lat="43.24071" lon="-1.66595">
        <ele>84</ele>
        <time>2026-08-23T13:56:17.000Z</time>
      </trkpt>
      <trkpt lat="43.24043" lon="-1.66584">
        <ele>82</ele>
        <time>2026-08-23T13:56:23.000Z</time>
      </trkpt>
      <trkpt lat="43.24016" lon="-1.66569">
        <ele>82</ele>
        <time>2026-08-23T13:56:28.000Z</time>
      </trkpt>
      <trkpt lat="43.23992" lon="-1.66563">
        <ele>81</ele>
        <time>2026-08-23T13:56:32.000Z</time>
      </trkpt>
      <trkpt lat="43.23958" lon="-1.66565">
        <ele>77</ele>
        <time>2026-08-23T13:56:38.000Z</time>
      </trkpt>
      <trkpt lat="43.23939" lon="-1.66559">
        <ele>75</ele>
        <time>2026-08-23T13:56:42.000Z</time>
      </trkpt>
      <trkpt lat="43.23923" lon="-1.66543">
        <ele>75</ele>
        <time>2026-08-23T13:56:45.000Z</time>
      </trkpt>
      <trkpt lat="43.23915" lon="-1.66518">
        <ele>76</ele>
        <time>2026-08-23T13:56:49.000Z</time>
      </trkpt>
      <trkpt lat="43.23921" lon="-1.66488">
        <ele>78</ele>
        <time>2026-08-23T13:56:53.000Z</time>
      </trkpt>
      <trkpt lat="43.23944" lon="-1.66408">
        <ele>83</ele>
        <time>2026-08-23T13:57:04.000Z</time>
      </trkpt>
      <trkpt lat="43.23957" lon="-1.66355">
        <ele>86</ele>
        <time>2026-08-23T13:57:11.000Z</time>
      </trkpt>
      <trkpt lat="43.23961" lon="-1.66323">
        <ele>86</ele>
        <time>2026-08-23T13:57:15.000Z</time>
      </trkpt>
      <trkpt lat="43.23963" lon="-1.66291">
        <ele>88</ele>
        <time>2026-08-23T13:57:20.000Z</time>
      </trkpt>
      <trkpt lat="43.2396" lon="-1.66268">
        <ele>88</ele>
        <time>2026-08-23T13:57:23.000Z</time>
      </trkpt>
      <trkpt lat="43.23954" lon="-1.66236">
        <ele>90</ele>
        <time>2026-08-23T13:57:27.000Z</time>
      </trkpt>
      <trkpt lat="43.23933" lon="-1.66183">
        <ele>95</ele>
        <time>2026-08-23T13:57:35.000Z</time>
      </trkpt>
      <trkpt lat="43.23924" lon="-1.6617">
        <ele>95</ele>
        <time>2026-08-23T13:57:37.000Z</time>
      </trkpt>
      <trkpt lat="43.23911" lon="-1.66157">
        <ele>95</ele>
        <time>2026-08-23T13:57:40.000Z</time>
      </trkpt>
      <trkpt lat="43.23895" lon="-1.66157">
        <ele>93</ele>
        <time>2026-08-23T13:57:43.000Z</time>
      </trkpt>
      <trkpt lat="43.23877" lon="-1.66162">
        <ele>89</ele>
        <time>2026-08-23T13:57:46.000Z</time>
      </trkpt>
      <trkpt lat="43.23854" lon="-1.66159">
        <ele>87</ele>
        <time>2026-08-23T13:57:50.000Z</time>
      </trkpt>
      <trkpt lat="43.23827" lon="-1.66149">
        <ele>87</ele>
        <time>2026-08-23T13:57:55.000Z</time>
      </trkpt>
      <trkpt lat="43.2381" lon="-1.66132">
        <ele>90</ele>
        <time>2026-08-23T13:57:59.000Z</time>
      </trkpt>
      <trkpt lat="43.23794" lon="-1.66108">
        <ele>96</ele>
        <time>2026-08-23T13:58:03.000Z</time>
      </trkpt>
      <trkpt lat="43.23773" lon="-1.66088">
        <ele>99</ele>
        <time>2026-08-23T13:58:08.000Z</time>
      </trkpt>
      <trkpt lat="43.23726" lon="-1.66065">
        <ele>102</ele>
        <time>2026-08-23T13:58:16.000Z</time>
      </trkpt>
      <trkpt lat="43.23655" lon="-1.66043">
        <ele>98</ele>
        <time>2026-08-23T13:58:29.000Z</time>
      </trkpt>
      <trkpt lat="43.23645" lon="-1.66034">
        <ele>99</ele>
        <time>2026-08-23T13:58:32.000Z</time>
      </trkpt>
      <trkpt lat="43.23637" lon="-1.66017">
        <ele>102</ele>
        <time>2026-08-23T13:58:34.000Z</time>
      </trkpt>
      <trkpt lat="43.23617" lon="-1.65955">
        <ele>110</ele>
        <time>2026-08-23T13:58:43.000Z</time>
      </trkpt>
      <trkpt lat="43.23597" lon="-1.65905">
        <ele>111</ele>
        <time>2026-08-23T13:58:50.000Z</time>
      </trkpt>
      <trkpt lat="43.23592" lon="-1.65884">
        <ele>112</ele>
        <time>2026-08-23T13:58:53.000Z</time>
      </trkpt>
      <trkpt lat="43.23595" lon="-1.65865">
        <ele>114</ele>
        <time>2026-08-23T13:58:56.000Z</time>
      </trkpt>
      <trkpt lat="43.23603" lon="-1.65847">
        <ele>117</ele>
        <time>2026-08-23T13:58:58.000Z</time>
      </trkpt>
      <trkpt lat="43.23614" lon="-1.65837">
        <ele>120</ele>
        <time>2026-08-23T13:59:01.000Z</time>
      </trkpt>
      <trkpt lat="43.23647" lon="-1.65826">
        <ele>126</ele>
        <time>2026-08-23T13:59:07.000Z</time>
      </trkpt>
      <trkpt lat="43.23661" lon="-1.65813">
        <ele>127</ele>
        <time>2026-08-23T13:59:10.000Z</time>
      </trkpt>
      <trkpt lat="43.2367" lon="-1.65791">
        <ele>127</ele>
        <time>2026-08-23T13:59:13.000Z</time>
      </trkpt>
      <trkpt lat="43.23712" lon="-1.65618">
        <ele>141</ele>
        <time>2026-08-23T13:59:37.000Z</time>
      </trkpt>
      <trkpt lat="43.23732" lon="-1.65567">
        <ele>145</ele>
        <time>2026-08-23T13:59:44.000Z</time>
      </trkpt>
      <trkpt lat="43.23738" lon="-1.65536">
        <ele>146</ele>
        <time>2026-08-23T13:59:48.000Z</time>
      </trkpt>
      <trkpt lat="43.23732" lon="-1.655">
        <ele>142</ele>
        <time>2026-08-23T13:59:53.000Z</time>
      </trkpt>
      <trkpt lat="43.23686" lon="-1.6543">
        <ele>129</ele>
        <time>2026-08-23T14:00:05.000Z</time>
      </trkpt>
      <trkpt lat="43.23676" lon="-1.65389">
        <ele>127</ele>
        <time>2026-08-23T14:00:11.000Z</time>
      </trkpt>
      <trkpt lat="43.2366" lon="-1.65273">
        <ele>134</ele>
        <time>2026-08-23T14:00:26.000Z</time>
      </trkpt>
      <trkpt lat="43.23648" lon="-1.65244">
        <ele>135</ele>
        <time>2026-08-23T14:00:31.000Z</time>
      </trkpt>
      <trkpt lat="43.23548" lon="-1.65136">
        <ele>120</ele>
        <time>2026-08-23T14:00:53.000Z</time>
      </trkpt>
      <trkpt lat="43.23539" lon="-1.6511">
        <ele>119</ele>
        <time>2026-08-23T14:00:57.000Z</time>
      </trkpt>
      <trkpt lat="43.23536" lon="-1.6502">
        <ele>122</ele>
        <time>2026-08-23T14:01:09.000Z</time>
      </trkpt>
      <trkpt lat="43.23537" lon="-1.6498">
        <ele>122</ele>
        <time>2026-08-23T14:01:14.000Z</time>
      </trkpt>
      <trkpt lat="43.23551" lon="-1.64894">
        <ele>123</ele>
        <time>2026-08-23T14:01:25.000Z</time>
      </trkpt>
      <trkpt lat="43.23559" lon="-1.64819">
        <ele>121</ele>
        <time>2026-08-23T14:01:35.000Z</time>
      </trkpt>
      <trkpt lat="43.23555" lon="-1.64735">
        <ele>115</ele>
        <time>2026-08-23T14:01:46.000Z</time>
      </trkpt>
      <trkpt lat="43.23557" lon="-1.64704">
        <ele>113</ele>
        <time>2026-08-23T14:01:50.000Z</time>
      </trkpt>
      <trkpt lat="43.2356" lon="-1.64678">
        <ele>111</ele>
        <time>2026-08-23T14:01:54.000Z</time>
      </trkpt>
      <trkpt lat="43.23587" lon="-1.64562">
        <ele>108</ele>
        <time>2026-08-23T14:02:09.000Z</time>
      </trkpt>
      <trkpt lat="43.23606" lon="-1.64486">
        <ele>110</ele>
        <time>2026-08-23T14:02:20.000Z</time>
      </trkpt>
      <trkpt lat="43.23629" lon="-1.64306">
        <ele>115</ele>
        <time>2026-08-23T14:02:43.000Z</time>
      </trkpt>
      <trkpt lat="43.23633" lon="-1.64252">
        <ele>114</ele>
        <time>2026-08-23T14:02:50.000Z</time>
      </trkpt>
      <trkpt lat="43.23631" lon="-1.64205">
        <ele>109</ele>
        <time>2026-08-23T14:02:57.000Z</time>
      </trkpt>
      <trkpt lat="43.23627" lon="-1.64177">
        <ele>105</ele>
        <time>2026-08-23T14:03:00.000Z</time>
      </trkpt>
      <trkpt lat="43.23618" lon="-1.6415">
        <ele>105</ele>
        <time>2026-08-23T14:03:04.000Z</time>
      </trkpt>
      <trkpt lat="43.23606" lon="-1.64127">
        <ele>106</ele>
        <time>2026-08-23T14:03:08.000Z</time>
      </trkpt>
      <trkpt lat="43.23595" lon="-1.64099">
        <ele>107</ele>
        <time>2026-08-23T14:03:12.000Z</time>
      </trkpt>
      <trkpt lat="43.23563" lon="-1.63982">
        <ele>114</ele>
        <time>2026-08-23T14:03:28.000Z</time>
      </trkpt>
      <trkpt lat="43.23551" lon="-1.63945">
        <ele>114</ele>
        <time>2026-08-23T14:03:33.000Z</time>
      </trkpt>
      <trkpt lat="43.23543" lon="-1.63928">
        <ele>112</ele>
        <time>2026-08-23T14:03:36.000Z</time>
      </trkpt>
      <trkpt lat="43.23526" lon="-1.63916">
        <ele>107</ele>
        <time>2026-08-23T14:03:39.000Z</time>
      </trkpt>
      <trkpt lat="43.23509" lon="-1.63909">
        <ele>101</ele>
        <time>2026-08-23T14:03:43.000Z</time>
      </trkpt>
      <trkpt lat="43.23453" lon="-1.63896">
        <ele>98</ele>
        <time>2026-08-23T14:03:53.000Z</time>
      </trkpt>
      <trkpt lat="43.23424" lon="-1.63889">
        <ele>97</ele>
        <time>2026-08-23T14:03:58.000Z</time>
      </trkpt>
      <trkpt lat="43.23413" lon="-1.63877">
        <ele>98</ele>
        <time>2026-08-23T14:04:00.000Z</time>
      </trkpt>
      <trkpt lat="43.2341" lon="-1.63859">
        <ele>98</ele>
        <time>2026-08-23T14:04:03.000Z</time>
      </trkpt>
      <trkpt lat="43.23414" lon="-1.63805">
        <ele>99</ele>
        <time>2026-08-23T14:04:10.000Z</time>
      </trkpt>
      <trkpt lat="43.23404" lon="-1.6377">
        <ele>101</ele>
        <time>2026-08-23T14:04:15.000Z</time>
      </trkpt>
      <trkpt lat="43.23401" lon="-1.63729">
        <ele>101</ele>
        <time>2026-08-23T14:04:20.000Z</time>
      </trkpt>
      <trkpt lat="43.23402" lon="-1.63691">
        <ele>101</ele>
        <time>2026-08-23T14:04:25.000Z</time>
      </trkpt>
      <trkpt lat="43.23433" lon="-1.63672">
        <ele>99</ele>
        <time>2026-08-23T14:04:31.000Z</time>
      </trkpt>
      <trkpt lat="43.23459" lon="-1.63643">
        <ele>98</ele>
        <time>2026-08-23T14:04:37.000Z</time>
      </trkpt>
      <trkpt lat="43.23474" lon="-1.6363">
        <ele>98</ele>
        <time>2026-08-23T14:04:40.000Z</time>
      </trkpt>
      <trkpt lat="43.2353" lon="-1.63597">
        <ele>99</ele>
        <time>2026-08-23T14:04:51.000Z</time>
      </trkpt>
      <trkpt lat="43.23557" lon="-1.63592">
        <ele>100</ele>
        <time>2026-08-23T14:04:56.000Z</time>
      </trkpt>
      <trkpt lat="43.23587" lon="-1.63573">
        <ele>101</ele>
        <time>2026-08-23T14:05:02.000Z</time>
      </trkpt>
      <trkpt lat="43.23596" lon="-1.63577">
        <ele>103</ele>
        <time>2026-08-23T14:05:03.000Z</time>
      </trkpt>
      <trkpt lat="43.23611" lon="-1.63586">
        <ele>106</ele>
        <time>2026-08-23T14:05:06.000Z</time>
      </trkpt>
      <trkpt lat="43.23617" lon="-1.63587">
        <ele>107</ele>
        <time>2026-08-23T14:05:07.000Z</time>
      </trkpt>
      <trkpt lat="43.23623" lon="-1.63585">
        <ele>108</ele>
        <time>2026-08-23T14:05:08.000Z</time>
      </trkpt>
      <trkpt lat="43.23632" lon="-1.63578">
        <ele>109</ele>
        <time>2026-08-23T14:05:10.000Z</time>
      </trkpt>
      <trkpt lat="43.23638" lon="-1.63571">
        <ele>109</ele>
        <time>2026-08-23T14:05:12.000Z</time>
      </trkpt>
      <trkpt lat="43.23645" lon="-1.63556">
        <ele>108</ele>
        <time>2026-08-23T14:05:14.000Z</time>
      </trkpt>
      <trkpt lat="43.23649" lon="-1.63532">
        <ele>106</ele>
        <time>2026-08-23T14:05:17.000Z</time>
      </trkpt>
      <trkpt lat="43.23658" lon="-1.635">
        <ele>103</ele>
        <time>2026-08-23T14:05:22.000Z</time>
      </trkpt>
      <trkpt lat="43.23662" lon="-1.63491">
        <ele>103</ele>
        <time>2026-08-23T14:05:23.000Z</time>
      </trkpt>
      <trkpt lat="43.23668" lon="-1.63484">
        <ele>104</ele>
        <time>2026-08-23T14:05:24.000Z</time>
      </trkpt>
      <trkpt lat="43.23717" lon="-1.6344">
        <ele>108</ele>
        <time>2026-08-23T14:05:35.000Z</time>
      </trkpt>
      <trkpt lat="43.23736" lon="-1.63427">
        <ele>109</ele>
        <time>2026-08-23T14:05:39.000Z</time>
      </trkpt>
      <trkpt lat="43.23752" lon="-1.63422">
        <ele>110</ele>
        <time>2026-08-23T14:05:42.000Z</time>
      </trkpt>
      <trkpt lat="43.23772" lon="-1.63415">
        <ele>111</ele>
        <time>2026-08-23T14:05:45.000Z</time>
      </trkpt>
      <trkpt lat="43.23786" lon="-1.63406">
        <ele>114</ele>
        <time>2026-08-23T14:05:48.000Z</time>
      </trkpt>
      <trkpt lat="43.23817" lon="-1.6337">
        <ele>125</ele>
        <time>2026-08-23T14:05:55.000Z</time>
      </trkpt>
      <trkpt lat="43.23831" lon="-1.6336">
        <ele>128</ele>
        <time>2026-08-23T14:05:58.000Z</time>
      </trkpt>
      <trkpt lat="43.23842" lon="-1.63359">
        <ele>128</ele>
        <time>2026-08-23T14:06:00.000Z</time>
      </trkpt>
      <trkpt lat="43.23862" lon="-1.63362">
        <ele>126</ele>
        <time>2026-08-23T14:06:04.000Z</time>
      </trkpt>
      <trkpt lat="43.23871" lon="-1.63361">
        <ele>126</ele>
        <time>2026-08-23T14:06:05.000Z</time>
      </trkpt>
      <trkpt lat="43.23903" lon="-1.63346">
        <ele>124</ele>
        <time>2026-08-23T14:06:11.000Z</time>
      </trkpt>
      <trkpt lat="43.23936" lon="-1.6334">
        <ele>127</ele>
        <time>2026-08-23T14:06:17.000Z</time>
      </trkpt>
      <trkpt lat="43.23944" lon="-1.63337">
        <ele>128</ele>
        <time>2026-08-23T14:06:19.000Z</time>
      </trkpt>
      <trkpt lat="43.23948" lon="-1.6333">
        <ele>129</ele>
        <time>2026-08-23T14:06:20.000Z</time>
      </trkpt>
      <trkpt lat="43.23955" lon="-1.63312">
        <ele>132</ele>
        <time>2026-08-23T14:06:22.000Z</time>
      </trkpt>
      <trkpt lat="43.23959" lon="-1.63289">
        <ele>134</ele>
        <time>2026-08-23T14:06:25.000Z</time>
      </trkpt>
      <trkpt lat="43.23953" lon="-1.63244">
        <ele>137</ele>
        <time>2026-08-23T14:06:31.000Z</time>
      </trkpt>
      <trkpt lat="43.23944" lon="-1.63204">
        <ele>141</ele>
        <time>2026-08-23T14:06:37.000Z</time>
      </trkpt>
      <trkpt lat="43.23944" lon="-1.63196">
        <ele>141</ele>
        <time>2026-08-23T14:06:38.000Z</time>
      </trkpt>
      <trkpt lat="43.2397" lon="-1.63161">
        <ele>137</ele>
        <time>2026-08-23T14:06:44.000Z</time>
      </trkpt>
      <trkpt lat="43.23987" lon="-1.63141">
        <ele>134</ele>
        <time>2026-08-23T14:06:48.000Z</time>
      </trkpt>
      <trkpt lat="43.23996" lon="-1.63126">
        <ele>132</ele>
        <time>2026-08-23T14:06:51.000Z</time>
      </trkpt>
      <trkpt lat="43.23998" lon="-1.63078">
        <ele>136</ele>
        <time>2026-08-23T14:06:57.000Z</time>
      </trkpt>
      <trkpt lat="43.24004" lon="-1.63057">
        <ele>143</ele>
        <time>2026-08-23T14:07:00.000Z</time>
      </trkpt>
      <trkpt lat="43.24011" lon="-1.63046">
        <ele>146</ele>
        <time>2026-08-23T14:07:02.000Z</time>
      </trkpt>
      <trkpt lat="43.24026" lon="-1.63035">
        <ele>148</ele>
        <time>2026-08-23T14:07:05.000Z</time>
      </trkpt>
      <trkpt lat="43.24051" lon="-1.63022">
        <ele>147</ele>
        <time>2026-08-23T14:07:10.000Z</time>
      </trkpt>
      <trkpt lat="43.24149" lon="-1.63009">
        <ele>138</ele>
        <time>2026-08-23T14:07:27.000Z</time>
      </trkpt>
      <trkpt lat="43.24211" lon="-1.63006">
        <ele>139</ele>
        <time>2026-08-23T14:07:38.000Z</time>
      </trkpt>
      <trkpt lat="43.24221" lon="-1.63005">
        <ele>139</ele>
        <time>2026-08-23T14:07:40.000Z</time>
      </trkpt>
      <trkpt lat="43.24232" lon="-1.62999">
        <ele>139</ele>
        <time>2026-08-23T14:07:42.000Z</time>
      </trkpt>
      <trkpt lat="43.24239" lon="-1.62991">
        <ele>141</ele>
        <time>2026-08-23T14:07:44.000Z</time>
      </trkpt>
      <trkpt lat="43.24251" lon="-1.62954">
        <ele>143</ele>
        <time>2026-08-23T14:07:49.000Z</time>
      </trkpt>
      <trkpt lat="43.24258" lon="-1.62946">
        <ele>144</ele>
        <time>2026-08-23T14:07:51.000Z</time>
      </trkpt>
      <trkpt lat="43.24277" lon="-1.62935">
        <ele>147</ele>
        <time>2026-08-23T14:07:54.000Z</time>
      </trkpt>
      <trkpt lat="43.24288" lon="-1.62926">
        <ele>149</ele>
        <time>2026-08-23T14:07:57.000Z</time>
      </trkpt>
      <trkpt lat="43.24294" lon="-1.62915">
        <ele>150</ele>
        <time>2026-08-23T14:07:58.000Z</time>
      </trkpt>
      <trkpt lat="43.24298" lon="-1.629">
        <ele>151</ele>
        <time>2026-08-23T14:08:00.000Z</time>
      </trkpt>
      <trkpt lat="43.2432" lon="-1.6284">
        <ele>149</ele>
        <time>2026-08-23T14:08:09.000Z</time>
      </trkpt>
      <trkpt lat="43.24343" lon="-1.62789">
        <ele>151</ele>
        <time>2026-08-23T14:08:17.000Z</time>
      </trkpt>
      <trkpt lat="43.24357" lon="-1.62766">
        <ele>153</ele>
        <time>2026-08-23T14:08:21.000Z</time>
      </trkpt>
      <trkpt lat="43.24369" lon="-1.62751">
        <ele>153</ele>
        <time>2026-08-23T14:08:24.000Z</time>
      </trkpt>
      <trkpt lat="43.24401" lon="-1.62717">
        <ele>155</ele>
        <time>2026-08-23T14:08:31.000Z</time>
      </trkpt>
      <trkpt lat="43.24417" lon="-1.62702">
        <ele>154</ele>
        <time>2026-08-23T14:08:34.000Z</time>
      </trkpt>
      <trkpt lat="43.24429" lon="-1.62695">
        <ele>154</ele>
        <time>2026-08-23T14:08:37.000Z</time>
      </trkpt>
      <trkpt lat="43.24439" lon="-1.62692">
        <ele>155</ele>
        <time>2026-08-23T14:08:38.000Z</time>
      </trkpt>
      <trkpt lat="43.2448" lon="-1.62696">
        <ele>156</ele>
        <time>2026-08-23T14:08:46.000Z</time>
      </trkpt>
      <trkpt lat="43.2452" lon="-1.62695">
        <ele>158</ele>
        <time>2026-08-23T14:08:53.000Z</time>
      </trkpt>
      <trkpt lat="43.24529" lon="-1.62693">
        <ele>159</ele>
        <time>2026-08-23T14:08:54.000Z</time>
      </trkpt>
      <trkpt lat="43.24539" lon="-1.62688">
        <ele>158</ele>
        <time>2026-08-23T14:08:56.000Z</time>
      </trkpt>
      <trkpt lat="43.24563" lon="-1.62669">
        <ele>156</ele>
        <time>2026-08-23T14:09:01.000Z</time>
      </trkpt>
      <trkpt lat="43.2459" lon="-1.62635">
        <ele>159</ele>
        <time>2026-08-23T14:09:08.000Z</time>
      </trkpt>
      <trkpt lat="43.24601" lon="-1.62607">
        <ele>163</ele>
        <time>2026-08-23T14:09:12.000Z</time>
      </trkpt>
      <trkpt lat="43.24603" lon="-1.62591">
        <ele>164</ele>
        <time>2026-08-23T14:09:14.000Z</time>
      </trkpt>
      <trkpt lat="43.24599" lon="-1.62534">
        <ele>167</ele>
        <time>2026-08-23T14:09:21.000Z</time>
      </trkpt>
      <trkpt lat="43.24595" lon="-1.62519">
        <ele>166</ele>
        <time>2026-08-23T14:09:24.000Z</time>
      </trkpt>
      <trkpt lat="43.24592" lon="-1.62511">
        <ele>166</ele>
        <time>2026-08-23T14:09:25.000Z</time>
      </trkpt>
      <trkpt lat="43.24574" lon="-1.62487">
        <ele>166</ele>
        <time>2026-08-23T14:09:29.000Z</time>
      </trkpt>
      <trkpt lat="43.2457" lon="-1.6247">
        <ele>169</ele>
        <time>2026-08-23T14:09:31.000Z</time>
      </trkpt>
      <trkpt lat="43.24571" lon="-1.6245">
        <ele>170</ele>
        <time>2026-08-23T14:09:34.000Z</time>
      </trkpt>
      <trkpt lat="43.24583" lon="-1.62427">
        <ele>169</ele>
        <time>2026-08-23T14:09:38.000Z</time>
      </trkpt>
      <trkpt lat="43.24597" lon="-1.62408">
        <ele>175</ele>
        <time>2026-08-23T14:09:41.000Z</time>
      </trkpt>
      <trkpt lat="43.24667" lon="-1.62335">
        <ele>178</ele>
        <time>2026-08-23T14:09:57.000Z</time>
      </trkpt>
      <trkpt lat="43.24684" lon="-1.62313">
        <ele>184</ele>
        <time>2026-08-23T14:10:01.000Z</time>
      </trkpt>
      <trkpt lat="43.24696" lon="-1.62285">
        <ele>188</ele>
        <time>2026-08-23T14:10:05.000Z</time>
      </trkpt>
      <trkpt lat="43.24725" lon="-1.62186">
        <ele>187</ele>
        <time>2026-08-23T14:10:19.000Z</time>
      </trkpt>
      <trkpt lat="43.24732" lon="-1.62176">
        <ele>184</ele>
        <time>2026-08-23T14:10:21.000Z</time>
      </trkpt>
      <trkpt lat="43.24739" lon="-1.6217">
        <ele>182</ele>
        <time>2026-08-23T14:10:22.000Z</time>
      </trkpt>
      <trkpt lat="43.24757" lon="-1.62163">
        <ele>181</ele>
        <time>2026-08-23T14:10:26.000Z</time>
      </trkpt>
      <trkpt lat="43.24776" lon="-1.62151">
        <ele>186</ele>
        <time>2026-08-23T14:10:29.000Z</time>
      </trkpt>
      <trkpt lat="43.24824" lon="-1.62111">
        <ele>194</ele>
        <time>2026-08-23T14:10:39.000Z</time>
      </trkpt>
      <trkpt lat="43.24828" lon="-1.62103">
        <ele>194</ele>
        <time>2026-08-23T14:10:41.000Z</time>
      </trkpt>
      <trkpt lat="43.24828" lon="-1.62094">
        <ele>193</ele>
        <time>2026-08-23T14:10:42.000Z</time>
      </trkpt>
      <trkpt lat="43.24823" lon="-1.62086">
        <ele>192</ele>
        <time>2026-08-23T14:10:43.000Z</time>
      </trkpt>
      <trkpt lat="43.24817" lon="-1.62086">
        <ele>191</ele>
        <time>2026-08-23T14:10:44.000Z</time>
      </trkpt>
      <trkpt lat="43.2477" lon="-1.62113">
        <ele>185</ele>
        <time>2026-08-23T14:10:53.000Z</time>
      </trkpt>
      <trkpt lat="43.24765" lon="-1.62114">
        <ele>185</ele>
        <time>2026-08-23T14:10:54.000Z</time>
      </trkpt>
      <trkpt lat="43.24758" lon="-1.62111">
        <ele>184</ele>
        <time>2026-08-23T14:10:55.000Z</time>
      </trkpt>
      <trkpt lat="43.24752" lon="-1.62097">
        <ele>183</ele>
        <time>2026-08-23T14:10:58.000Z</time>
      </trkpt>
      <trkpt lat="43.24752" lon="-1.62079">
        <ele>185</ele>
        <time>2026-08-23T14:11:00.000Z</time>
      </trkpt>
      <trkpt lat="43.24757" lon="-1.62048">
        <ele>190</ele>
        <time>2026-08-23T14:11:04.000Z</time>
      </trkpt>
      <trkpt lat="43.24748" lon="-1.62">
        <ele>197</ele>
        <time>2026-08-23T14:11:10.000Z</time>
      </trkpt>
      <trkpt lat="43.24746" lon="-1.61977">
        <ele>199</ele>
        <time>2026-08-23T14:11:13.000Z</time>
      </trkpt>
      <trkpt lat="43.24753" lon="-1.6192">
        <ele>202</ele>
        <time>2026-08-23T14:11:21.000Z</time>
      </trkpt>
      <trkpt lat="43.24765" lon="-1.61883">
        <ele>210</ele>
        <time>2026-08-23T14:11:26.000Z</time>
      </trkpt>
      <trkpt lat="43.24778" lon="-1.61868">
        <ele>213</ele>
        <time>2026-08-23T14:11:29.000Z</time>
      </trkpt>
      <trkpt lat="43.24821" lon="-1.61831">
        <ele>213</ele>
        <time>2026-08-23T14:11:38.000Z</time>
      </trkpt>
      <trkpt lat="43.24842" lon="-1.61791">
        <ele>217</ele>
        <time>2026-08-23T14:11:45.000Z</time>
      </trkpt>
      <trkpt lat="43.24851" lon="-1.61759">
        <ele>220</ele>
        <time>2026-08-23T14:11:49.000Z</time>
      </trkpt>
      <trkpt lat="43.2485" lon="-1.61734">
        <ele>222</ele>
        <time>2026-08-23T14:11:52.000Z</time>
      </trkpt>
      <trkpt lat="43.24843" lon="-1.61726">
        <ele>222</ele>
        <time>2026-08-23T14:11:54.000Z</time>
      </trkpt>
      <trkpt lat="43.24838" lon="-1.61732">
        <ele>220</ele>
        <time>2026-08-23T14:11:55.000Z</time>
      </trkpt>
      <trkpt lat="43.24825" lon="-1.61774">
        <ele>217</ele>
        <time>2026-08-23T14:12:01.000Z</time>
      </trkpt>
      <trkpt lat="43.24805" lon="-1.61796">
        <ele>219</ele>
        <time>2026-08-23T14:12:06.000Z</time>
      </trkpt>
      <trkpt lat="43.24782" lon="-1.61815">
        <ele>220</ele>
        <time>2026-08-23T14:12:10.000Z</time>
      </trkpt>
      <trkpt lat="43.2476" lon="-1.61826">
        <ele>220</ele>
        <time>2026-08-23T14:12:15.000Z</time>
      </trkpt>
      <trkpt lat="43.24743" lon="-1.61831">
        <ele>223</ele>
        <time>2026-08-23T14:12:18.000Z</time>
      </trkpt>
      <trkpt lat="43.24728" lon="-1.61847">
        <ele>227</ele>
        <time>2026-08-23T14:12:21.000Z</time>
      </trkpt>
      <trkpt lat="43.24718" lon="-1.61864">
        <ele>229</ele>
        <time>2026-08-23T14:12:24.000Z</time>
      </trkpt>
      <trkpt lat="43.24691" lon="-1.61938">
        <ele>228</ele>
        <time>2026-08-23T14:12:35.000Z</time>
      </trkpt>
      <trkpt lat="43.24665" lon="-1.6198">
        <ele>232</ele>
        <time>2026-08-23T14:12:42.000Z</time>
      </trkpt>
      <trkpt lat="43.24659" lon="-1.62007">
        <ele>231</ele>
        <time>2026-08-23T14:12:45.000Z</time>
      </trkpt>
      <trkpt lat="43.24658" lon="-1.62063">
        <ele>226</ele>
        <time>2026-08-23T14:12:53.000Z</time>
      </trkpt>
      <trkpt lat="43.24653" lon="-1.6209">
        <ele>225</ele>
        <time>2026-08-23T14:12:56.000Z</time>
      </trkpt>
      <trkpt lat="43.24636" lon="-1.62137">
        <ele>222</ele>
        <time>2026-08-23T14:13:03.000Z</time>
      </trkpt>
      <trkpt lat="43.24623" lon="-1.62165">
        <ele>222</ele>
        <time>2026-08-23T14:13:07.000Z</time>
      </trkpt>
      <trkpt lat="43.24614" lon="-1.62171">
        <ele>225</ele>
        <time>2026-08-23T14:13:09.000Z</time>
      </trkpt>
      <trkpt lat="43.24604" lon="-1.62169">
        <ele>231</ele>
        <time>2026-08-23T14:13:11.000Z</time>
      </trkpt>
      <trkpt lat="43.24604" lon="-1.62156">
        <ele>234</ele>
        <time>2026-08-23T14:13:13.000Z</time>
      </trkpt>
      <trkpt lat="43.24621" lon="-1.62133">
        <ele>230</ele>
        <time>2026-08-23T14:13:17.000Z</time>
      </trkpt>
      <trkpt lat="43.24639" lon="-1.62093">
        <ele>231</ele>
        <time>2026-08-23T14:13:23.000Z</time>
      </trkpt>
      <trkpt lat="43.24639" lon="-1.62074">
        <ele>234</ele>
        <time>2026-08-23T14:13:25.000Z</time>
      </trkpt>
      <trkpt lat="43.24637" lon="-1.62047">
        <ele>237</ele>
        <time>2026-08-23T14:13:29.000Z</time>
      </trkpt>
      <trkpt lat="43.24634" lon="-1.62023">
        <ele>240</ele>
        <time>2026-08-23T14:13:32.000Z</time>
      </trkpt>
      <trkpt lat="43.24634" lon="-1.61988">
        <ele>243</ele>
        <time>2026-08-23T14:13:37.000Z</time>
      </trkpt>
      <trkpt lat="43.24639" lon="-1.61974">
        <ele>243</ele>
        <time>2026-08-23T14:13:39.000Z</time>
      </trkpt>
      <trkpt lat="43.24664" lon="-1.61927">
        <ele>242</ele>
        <time>2026-08-23T14:13:46.000Z</time>
      </trkpt>
      <trkpt lat="43.24681" lon="-1.61827">
        <ele>256</ele>
        <time>2026-08-23T14:14:00.000Z</time>
      </trkpt>
      <trkpt lat="43.24688" lon="-1.61806">
        <ele>256</ele>
        <time>2026-08-23T14:14:03.000Z</time>
      </trkpt>
      <trkpt lat="43.24702" lon="-1.61788">
        <ele>253</ele>
        <time>2026-08-23T14:14:06.000Z</time>
      </trkpt>
      <trkpt lat="43.24715" lon="-1.61773">
        <ele>252</ele>
        <time>2026-08-23T14:14:09.000Z</time>
      </trkpt>
      <trkpt lat="43.24728" lon="-1.61756">
        <ele>251</ele>
        <time>2026-08-23T14:14:12.000Z</time>
      </trkpt>
      <trkpt lat="43.2474" lon="-1.61738">
        <ele>253</ele>
        <time>2026-08-23T14:14:15.000Z</time>
      </trkpt>
      <trkpt lat="43.24752" lon="-1.61714">
        <ele>257</ele>
        <time>2026-08-23T14:14:19.000Z</time>
      </trkpt>
      <trkpt lat="43.24761" lon="-1.61689">
        <ele>261</ele>
        <time>2026-08-23T14:14:23.000Z</time>
      </trkpt>
      <trkpt lat="43.24781" lon="-1.61618">
        <ele>269</ele>
        <time>2026-08-23T14:14:33.000Z</time>
      </trkpt>
      <trkpt lat="43.24799" lon="-1.61591">
        <ele>266</ele>
        <time>2026-08-23T14:14:37.000Z</time>
      </trkpt>
      <trkpt lat="43.2481" lon="-1.61559">
        <ele>269</ele>
        <time>2026-08-23T14:14:42.000Z</time>
      </trkpt>
      <trkpt lat="43.24817" lon="-1.61535">
        <ele>271</ele>
        <time>2026-08-23T14:14:45.000Z</time>
      </trkpt>
      <trkpt lat="43.2485" lon="-1.61498">
        <ele>269</ele>
        <time>2026-08-23T14:14:53.000Z</time>
      </trkpt>
      <trkpt lat="43.24856" lon="-1.61483">
        <ele>271</ele>
        <time>2026-08-23T14:14:55.000Z</time>
      </trkpt>
      <trkpt lat="43.24863" lon="-1.61456">
        <ele>275</ele>
        <time>2026-08-23T14:14:59.000Z</time>
      </trkpt>
      <trkpt lat="43.24893" lon="-1.61419">
        <ele>275</ele>
        <time>2026-08-23T14:15:06.000Z</time>
      </trkpt>
      <trkpt lat="43.24901" lon="-1.61371">
        <ele>289</ele>
        <time>2026-08-23T14:15:12.000Z</time>
      </trkpt>
      <trkpt lat="43.24905" lon="-1.61363">
        <ele>290</ele>
        <time>2026-08-23T14:15:14.000Z</time>
      </trkpt>
      <trkpt lat="43.24928" lon="-1.61342">
        <ele>290</ele>
        <time>2026-08-23T14:15:18.000Z</time>
      </trkpt>
      <trkpt lat="43.24945" lon="-1.61311">
        <ele>298</ele>
        <time>2026-08-23T14:15:24.000Z</time>
      </trkpt>
      <trkpt lat="43.24956" lon="-1.61265">
        <ele>311</ele>
        <time>2026-08-23T14:15:30.000Z</time>
      </trkpt>
      <trkpt lat="43.24964" lon="-1.61254">
        <ele>313</ele>
        <time>2026-08-23T14:15:32.000Z</time>
      </trkpt>
      <trkpt lat="43.24972" lon="-1.61256">
        <ele>310</ele>
        <time>2026-08-23T14:15:33.000Z</time>
      </trkpt>
      <trkpt lat="43.2498" lon="-1.61264">
        <ele>307</ele>
        <time>2026-08-23T14:15:35.000Z</time>
      </trkpt>
      <trkpt lat="43.24999" lon="-1.61308">
        <ele>292</ele>
        <time>2026-08-23T14:15:42.000Z</time>
      </trkpt>
      <trkpt lat="43.25007" lon="-1.61335">
        <ele>286</ele>
        <time>2026-08-23T14:15:45.000Z</time>
      </trkpt>
      <trkpt lat="43.25011" lon="-1.61366">
        <ele>279</ele>
        <time>2026-08-23T14:15:49.000Z</time>
      </trkpt>
      <trkpt lat="43.25018" lon="-1.61377">
        <ele>278</ele>
        <time>2026-08-23T14:15:51.000Z</time>
      </trkpt>
      <trkpt lat="43.25027" lon="-1.61379">
        <ele>278</ele>
        <time>2026-08-23T14:15:53.000Z</time>
      </trkpt>
      <trkpt lat="43.25034" lon="-1.6137">
        <ele>281</ele>
        <time>2026-08-23T14:15:55.000Z</time>
      </trkpt>
      <trkpt lat="43.25058" lon="-1.61297">
        <ele>302</ele>
        <time>2026-08-23T14:16:05.000Z</time>
      </trkpt>
      <trkpt lat="43.25081" lon="-1.61254">
        <ele>316</ele>
        <time>2026-08-23T14:16:12.000Z</time>
      </trkpt>
      <trkpt lat="43.25092" lon="-1.61243">
        <ele>321</ele>
        <time>2026-08-23T14:16:14.000Z</time>
      </trkpt>
      <trkpt lat="43.25097" lon="-1.61242">
        <ele>322</ele>
        <time>2026-08-23T14:16:15.000Z</time>
      </trkpt>
      <trkpt lat="43.25102" lon="-1.61243">
        <ele>322</ele>
        <time>2026-08-23T14:16:16.000Z</time>
      </trkpt>
      <trkpt lat="43.25108" lon="-1.61254">
        <ele>320</ele>
        <time>2026-08-23T14:16:18.000Z</time>
      </trkpt>
      <trkpt lat="43.2512" lon="-1.61296">
        <ele>312</ele>
        <time>2026-08-23T14:16:24.000Z</time>
      </trkpt>
      <trkpt lat="43.25131" lon="-1.61313">
        <ele>311</ele>
        <time>2026-08-23T14:16:27.000Z</time>
      </trkpt>
      <trkpt lat="43.25145" lon="-1.61321">
        <ele>312</ele>
        <time>2026-08-23T14:16:30.000Z</time>
      </trkpt>
      <trkpt lat="43.25167" lon="-1.61319">
        <ele>318</ele>
        <time>2026-08-23T14:16:33.000Z</time>
      </trkpt>
      <trkpt lat="43.25178" lon="-1.61323">
        <ele>322</ele>
        <time>2026-08-23T14:16:35.000Z</time>
      </trkpt>
      <trkpt lat="43.25178" lon="-1.61338">
        <ele>320</ele>
        <time>2026-08-23T14:16:37.000Z</time>
      </trkpt>
      <trkpt lat="43.25165" lon="-1.61378">
        <ele>311</ele>
        <time>2026-08-23T14:16:43.000Z</time>
      </trkpt>
      <trkpt lat="43.25169" lon="-1.61417">
        <ele>310</ele>
        <time>2026-08-23T14:16:48.000Z</time>
      </trkpt>
      <trkpt lat="43.25176" lon="-1.61453">
        <ele>313</ele>
        <time>2026-08-23T14:16:53.000Z</time>
      </trkpt>
      <trkpt lat="43.25192" lon="-1.61466">
        <ele>320</ele>
        <time>2026-08-23T14:16:56.000Z</time>
      </trkpt>
      <trkpt lat="43.25199" lon="-1.61477">
        <ele>323</ele>
        <time>2026-08-23T14:16:58.000Z</time>
      </trkpt>
      <trkpt lat="43.25196" lon="-1.61493">
        <ele>321</ele>
        <time>2026-08-23T14:17:00.000Z</time>
      </trkpt>
      <trkpt lat="43.25179" lon="-1.61523">
        <ele>315</ele>
        <time>2026-08-23T14:17:05.000Z</time>
      </trkpt>
      <trkpt lat="43.25173" lon="-1.61539">
        <ele>315</ele>
        <time>2026-08-23T14:17:08.000Z</time>
      </trkpt>
      <trkpt lat="43.25171" lon="-1.61552">
        <ele>315</ele>
        <time>2026-08-23T14:17:09.000Z</time>
      </trkpt>
      <trkpt lat="43.2517" lon="-1.6157">
        <ele>317</ele>
        <time>2026-08-23T14:17:12.000Z</time>
      </trkpt>
      <trkpt lat="43.25172" lon="-1.6163">
        <ele>323</ele>
        <time>2026-08-23T14:17:19.000Z</time>
      </trkpt>
      <trkpt lat="43.2517" lon="-1.61647">
        <ele>323</ele>
        <time>2026-08-23T14:17:22.000Z</time>
      </trkpt>
      <trkpt lat="43.25167" lon="-1.61655">
        <ele>323</ele>
        <time>2026-08-23T14:17:23.000Z</time>
      </trkpt>
      <trkpt lat="43.25162" lon="-1.61663">
        <ele>322</ele>
        <time>2026-08-23T14:17:24.000Z</time>
      </trkpt>
      <trkpt lat="43.25131" lon="-1.61687">
        <ele>314</ele>
        <time>2026-08-23T14:17:31.000Z</time>
      </trkpt>
      <trkpt lat="43.25104" lon="-1.61721">
        <ele>309</ele>
        <time>2026-08-23T14:17:37.000Z</time>
      </trkpt>
      <trkpt lat="43.25099" lon="-1.61729">
        <ele>308</ele>
        <time>2026-08-23T14:17:38.000Z</time>
      </trkpt>
      <trkpt lat="43.25099" lon="-1.61736">
        <ele>308</ele>
        <time>2026-08-23T14:17:39.000Z</time>
      </trkpt>
      <trkpt lat="43.25101" lon="-1.61742">
        <ele>309</ele>
        <time>2026-08-23T14:17:40.000Z</time>
      </trkpt>
      <trkpt lat="43.25107" lon="-1.61742">
        <ele>310</ele>
        <time>2026-08-23T14:17:41.000Z</time>
      </trkpt>
      <trkpt lat="43.25112" lon="-1.61737">
        <ele>311</ele>
        <time>2026-08-23T14:17:42.000Z</time>
      </trkpt>
      <trkpt lat="43.25123" lon="-1.61712">
        <ele>313</ele>
        <time>2026-08-23T14:17:46.000Z</time>
      </trkpt>
      <trkpt lat="43.25131" lon="-1.61701">
        <ele>314</ele>
        <time>2026-08-23T14:17:48.000Z</time>
      </trkpt>
      <trkpt lat="43.25141" lon="-1.61695">
        <ele>317</ele>
        <time>2026-08-23T14:17:50.000Z</time>
      </trkpt>
      <trkpt lat="43.25173" lon="-1.61677">
        <ele>325</ele>
        <time>2026-08-23T14:17:56.000Z</time>
      </trkpt>
      <trkpt lat="43.25182" lon="-1.61664">
        <ele>327</ele>
        <time>2026-08-23T14:17:59.000Z</time>
      </trkpt>
      <trkpt lat="43.25194" lon="-1.61583">
        <ele>329</ele>
        <time>2026-08-23T14:18:09.000Z</time>
      </trkpt>
      <trkpt lat="43.25199" lon="-1.61559">
        <ele>328</ele>
        <time>2026-08-23T14:18:13.000Z</time>
      </trkpt>
      <trkpt lat="43.25221" lon="-1.61513">
        <ele>334</ele>
        <time>2026-08-23T14:18:20.000Z</time>
      </trkpt>
      <trkpt lat="43.25243" lon="-1.61472">
        <ele>344</ele>
        <time>2026-08-23T14:18:26.000Z</time>
      </trkpt>
      <trkpt lat="43.25243" lon="-1.61461">
        <ele>344</ele>
        <time>2026-08-23T14:18:28.000Z</time>
      </trkpt>
      <trkpt lat="43.25239" lon="-1.6145">
        <ele>343</ele>
        <time>2026-08-23T14:18:29.000Z</time>
      </trkpt>
      <trkpt lat="43.2523" lon="-1.61439">
        <ele>339</ele>
        <time>2026-08-23T14:18:31.000Z</time>
      </trkpt>
      <trkpt lat="43.2522" lon="-1.61419">
        <ele>335</ele>
        <time>2026-08-23T14:18:35.000Z</time>
      </trkpt>
      <trkpt lat="43.25216" lon="-1.61403">
        <ele>334</ele>
        <time>2026-08-23T14:18:37.000Z</time>
      </trkpt>
      <trkpt lat="43.25216" lon="-1.61392">
        <ele>334</ele>
        <time>2026-08-23T14:18:38.000Z</time>
      </trkpt>
      <trkpt lat="43.25236" lon="-1.61312">
        <ele>350</ele>
        <time>2026-08-23T14:18:49.000Z</time>
      </trkpt>
      <trkpt lat="43.25239" lon="-1.61292">
        <ele>353</ele>
        <time>2026-08-23T14:18:52.000Z</time>
      </trkpt>
      <trkpt lat="43.25237" lon="-1.61277">
        <ele>354</ele>
        <time>2026-08-23T14:18:54.000Z</time>
      </trkpt>
      <trkpt lat="43.25234" lon="-1.61263">
        <ele>354</ele>
        <time>2026-08-23T14:18:56.000Z</time>
      </trkpt>
      <trkpt lat="43.25223" lon="-1.61245">
        <ele>352</ele>
        <time>2026-08-23T14:18:59.000Z</time>
      </trkpt>
      <trkpt lat="43.25205" lon="-1.61228">
        <ele>349</ele>
        <time>2026-08-23T14:19:03.000Z</time>
      </trkpt>
      <trkpt lat="43.25203" lon="-1.61217">
        <ele>350</ele>
        <time>2026-08-23T14:19:04.000Z</time>
      </trkpt>
      <trkpt lat="43.25203" lon="-1.61212">
        <ele>352</ele>
        <time>2026-08-23T14:19:05.000Z</time>
      </trkpt>
      <trkpt lat="43.25205" lon="-1.61208">
        <ele>353</ele>
        <time>2026-08-23T14:19:05.000Z</time>
      </trkpt>
      <trkpt lat="43.25208" lon="-1.61205">
        <ele>355</ele>
        <time>2026-08-23T14:19:06.000Z</time>
      </trkpt>
      <trkpt lat="43.25212" lon="-1.61204">
        <ele>356</ele>
        <time>2026-08-23T14:19:07.000Z</time>
      </trkpt>
      <trkpt lat="43.25219" lon="-1.6121">
        <ele>357</ele>
        <time>2026-08-23T14:19:08.000Z</time>
      </trkpt>
      <trkpt lat="43.25245" lon="-1.61263">
        <ele>358</ele>
        <time>2026-08-23T14:19:16.000Z</time>
      </trkpt>
      <trkpt lat="43.25248" lon="-1.61274">
        <ele>358</ele>
        <time>2026-08-23T14:19:18.000Z</time>
      </trkpt>
      <trkpt lat="43.2525" lon="-1.61289">
        <ele>358</ele>
        <time>2026-08-23T14:19:20.000Z</time>
      </trkpt>
      <trkpt lat="43.2525" lon="-1.6131">
        <ele>357</ele>
        <time>2026-08-23T14:19:23.000Z</time>
      </trkpt>
      <trkpt lat="43.2524" lon="-1.61372">
        <ele>347</ele>
        <time>2026-08-23T14:19:31.000Z</time>
      </trkpt>
      <trkpt lat="43.25242" lon="-1.61398">
        <ele>347</ele>
        <time>2026-08-23T14:19:34.000Z</time>
      </trkpt>
      <trkpt lat="43.2525" lon="-1.61417">
        <ele>349</ele>
        <time>2026-08-23T14:19:37.000Z</time>
      </trkpt>
      <trkpt lat="43.2528" lon="-1.61451">
        <ele>364</ele>
        <time>2026-08-23T14:19:44.000Z</time>
      </trkpt>
      <trkpt lat="43.25282" lon="-1.61458">
        <ele>365</ele>
        <time>2026-08-23T14:19:45.000Z</time>
      </trkpt>
      <trkpt lat="43.2528" lon="-1.61498">
        <ele>362</ele>
        <time>2026-08-23T14:19:50.000Z</time>
      </trkpt>
      <trkpt lat="43.25275" lon="-1.61541">
        <ele>359</ele>
        <time>2026-08-23T14:19:56.000Z</time>
      </trkpt>
      <trkpt lat="43.25259" lon="-1.61577">
        <ele>355</ele>
        <time>2026-08-23T14:20:01.000Z</time>
      </trkpt>
      <trkpt lat="43.25256" lon="-1.61589">
        <ele>354</ele>
        <time>2026-08-23T14:20:03.000Z</time>
      </trkpt>
      <trkpt lat="43.25257" lon="-1.61599">
        <ele>353</ele>
        <time>2026-08-23T14:20:04.000Z</time>
      </trkpt>
      <trkpt lat="43.2526" lon="-1.61607">
        <ele>352</ele>
        <time>2026-08-23T14:20:05.000Z</time>
      </trkpt>
      <trkpt lat="43.25266" lon="-1.61612">
        <ele>352</ele>
        <time>2026-08-23T14:20:07.000Z</time>
      </trkpt>
      <trkpt lat="43.25272" lon="-1.61615">
        <ele>353</ele>
        <time>2026-08-23T14:20:08.000Z</time>
      </trkpt>
      <trkpt lat="43.25293" lon="-1.61616">
        <ele>356</ele>
        <time>2026-08-23T14:20:12.000Z</time>
      </trkpt>
      <trkpt lat="43.25307" lon="-1.61612">
        <ele>360</ele>
        <time>2026-08-23T14:20:14.000Z</time>
      </trkpt>
      <trkpt lat="43.25325" lon="-1.616">
        <ele>368</ele>
        <time>2026-08-23T14:20:18.000Z</time>
      </trkpt>
      <trkpt lat="43.25341" lon="-1.61593">
        <ele>373</ele>
        <time>2026-08-23T14:20:21.000Z</time>
      </trkpt>
      <trkpt lat="43.25364" lon="-1.61592">
        <ele>377</ele>
        <time>2026-08-23T14:20:25.000Z</time>
      </trkpt>
      <trkpt lat="43.25385" lon="-1.61595">
        <ele>379</ele>
        <time>2026-08-23T14:20:29.000Z</time>
      </trkpt>
      <trkpt lat="43.25405" lon="-1.61601">
        <ele>380</ele>
        <time>2026-08-23T14:20:32.000Z</time>
      </trkpt>
      <trkpt lat="43.25455" lon="-1.61621">
        <ele>389</ele>
        <time>2026-08-23T14:20:41.000Z</time>
      </trkpt>
      <trkpt lat="43.25466" lon="-1.61627">
        <ele>392</ele>
        <time>2026-08-23T14:20:44.000Z</time>
      </trkpt>
      <trkpt lat="43.25471" lon="-1.61633">
        <ele>392</ele>
        <time>2026-08-23T14:20:45.000Z</time>
      </trkpt>
      <trkpt lat="43.25474" lon="-1.6164">
        <ele>391</ele>
        <time>2026-08-23T14:20:46.000Z</time>
      </trkpt>
      <trkpt lat="43.25475" lon="-1.617">
        <ele>376</ele>
        <time>2026-08-23T14:20:54.000Z</time>
      </trkpt>
      <trkpt lat="43.2548" lon="-1.61714">
        <ele>374</ele>
        <time>2026-08-23T14:20:56.000Z</time>
      </trkpt>
      <trkpt lat="43.25484" lon="-1.6172">
        <ele>375</ele>
        <time>2026-08-23T14:20:57.000Z</time>
      </trkpt>
      <trkpt lat="43.2549" lon="-1.61723">
        <ele>377</ele>
        <time>2026-08-23T14:20:58.000Z</time>
      </trkpt>
      <trkpt lat="43.25515" lon="-1.61725">
        <ele>388</ele>
        <time>2026-08-23T14:21:02.000Z</time>
      </trkpt>
      <trkpt lat="43.25522" lon="-1.61729">
        <ele>391</ele>
        <time>2026-08-23T14:21:04.000Z</time>
      </trkpt>
      <trkpt lat="43.25529" lon="-1.61735">
        <ele>393</ele>
        <time>2026-08-23T14:21:05.000Z</time>
      </trkpt>
      <trkpt lat="43.25541" lon="-1.61758">
        <ele>395</ele>
        <time>2026-08-23T14:21:09.000Z</time>
      </trkpt>
      <trkpt lat="43.25558" lon="-1.61803">
        <ele>396</ele>
        <time>2026-08-23T14:21:15.000Z</time>
      </trkpt>
      <trkpt lat="43.25588" lon="-1.61888">
        <ele>397</ele>
        <time>2026-08-23T14:21:28.000Z</time>
      </trkpt>
      <trkpt lat="43.2559" lon="-1.61897">
        <ele>396</ele>
        <time>2026-08-23T14:21:29.000Z</time>
      </trkpt>
      <trkpt lat="43.25592" lon="-1.61916">
        <ele>394</ele>
        <time>2026-08-23T14:21:31.000Z</time>
      </trkpt>
      <trkpt lat="43.25596" lon="-1.61926">
        <ele>393</ele>
        <time>2026-08-23T14:21:33.000Z</time>
      </trkpt>
      <trkpt lat="43.25602" lon="-1.61936">
        <ele>393</ele>
        <time>2026-08-23T14:21:34.000Z</time>
      </trkpt>
      <trkpt lat="43.25607" lon="-1.61941">
        <ele>394</ele>
        <time>2026-08-23T14:21:35.000Z</time>
      </trkpt>
      <trkpt lat="43.25611" lon="-1.61943">
        <ele>395</ele>
        <time>2026-08-23T14:21:36.000Z</time>
      </trkpt>
      <trkpt lat="43.25631" lon="-1.61959">
        <ele>400</ele>
        <time>2026-08-23T14:21:40.000Z</time>
      </trkpt>
      <trkpt lat="43.25653" lon="-1.61976">
        <ele>405</ele>
        <time>2026-08-23T14:21:45.000Z</time>
      </trkpt>
      <trkpt lat="43.25664" lon="-1.61988">
        <ele>406</ele>
        <time>2026-08-23T14:21:47.000Z</time>
      </trkpt>
      <trkpt lat="43.25686" lon="-1.62019">
        <ele>413</ele>
        <time>2026-08-23T14:21:53.000Z</time>
      </trkpt>
      <trkpt lat="43.25689" lon="-1.62026">
        <ele>415</ele>
        <time>2026-08-23T14:21:54.000Z</time>
      </trkpt>
      <trkpt lat="43.25689" lon="-1.62043">
        <ele>416</ele>
        <time>2026-08-23T14:21:56.000Z</time>
      </trkpt>
      <trkpt lat="43.25686" lon="-1.62053">
        <ele>415</ele>
        <time>2026-08-23T14:21:58.000Z</time>
      </trkpt>
      <trkpt lat="43.2565" lon="-1.62098">
        <ele>405</ele>
        <time>2026-08-23T14:22:06.000Z</time>
      </trkpt>
      <trkpt lat="43.25644" lon="-1.6211">
        <ele>404</ele>
        <time>2026-08-23T14:22:08.000Z</time>
      </trkpt>
      <trkpt lat="43.25637" lon="-1.6213">
        <ele>405</ele>
        <time>2026-08-23T14:22:11.000Z</time>
      </trkpt>
      <trkpt lat="43.25629" lon="-1.62165">
        <ele>407</ele>
        <time>2026-08-23T14:22:16.000Z</time>
      </trkpt>
      <trkpt lat="43.25627" lon="-1.62178">
        <ele>407</ele>
        <time>2026-08-23T14:22:18.000Z</time>
      </trkpt>
      <trkpt lat="43.25628" lon="-1.62193">
        <ele>407</ele>
        <time>2026-08-23T14:22:19.000Z</time>
      </trkpt>
      <trkpt lat="43.25636" lon="-1.62242">
        <ele>412</ele>
        <time>2026-08-23T14:22:26.000Z</time>
      </trkpt>
      <trkpt lat="43.25643" lon="-1.62303">
        <ele>415</ele>
        <time>2026-08-23T14:22:34.000Z</time>
      </trkpt>
      <trkpt lat="43.25642" lon="-1.62327">
        <ele>414</ele>
        <time>2026-08-23T14:22:37.000Z</time>
      </trkpt>
      <trkpt lat="43.25639" lon="-1.62339">
        <ele>413</ele>
        <time>2026-08-23T14:22:39.000Z</time>
      </trkpt>
      <trkpt lat="43.25629" lon="-1.62374">
        <ele>412</ele>
        <time>2026-08-23T14:22:44.000Z</time>
      </trkpt>
      <trkpt lat="43.25622" lon="-1.62388">
        <ele>411</ele>
        <time>2026-08-23T14:22:46.000Z</time>
      </trkpt>
      <trkpt lat="43.25612" lon="-1.62398">
        <ele>411</ele>
        <time>2026-08-23T14:22:48.000Z</time>
      </trkpt>
      <trkpt lat="43.25584" lon="-1.62419">
        <ele>412</ele>
        <time>2026-08-23T14:22:54.000Z</time>
      </trkpt>
      <trkpt lat="43.2556" lon="-1.62431">
        <ele>408</ele>
        <time>2026-08-23T14:22:58.000Z</time>
      </trkpt>
      <trkpt lat="43.25552" lon="-1.62438">
        <ele>407</ele>
        <time>2026-08-23T14:23:00.000Z</time>
      </trkpt>
      <trkpt lat="43.2554" lon="-1.62463">
        <ele>407</ele>
        <time>2026-08-23T14:23:04.000Z</time>
      </trkpt>
      <trkpt lat="43.25539" lon="-1.62474">
        <ele>407</ele>
        <time>2026-08-23T14:23:05.000Z</time>
      </trkpt>
      <trkpt lat="43.2554" lon="-1.62484">
        <ele>408</ele>
        <time>2026-08-23T14:23:07.000Z</time>
      </trkpt>
      <trkpt lat="43.25544" lon="-1.62491">
        <ele>409</ele>
        <time>2026-08-23T14:23:08.000Z</time>
      </trkpt>
      <trkpt lat="43.25549" lon="-1.62495">
        <ele>410</ele>
        <time>2026-08-23T14:23:09.000Z</time>
      </trkpt>
      <trkpt lat="43.2556" lon="-1.62493">
        <ele>411</ele>
        <time>2026-08-23T14:23:11.000Z</time>
      </trkpt>
      <trkpt lat="43.25604" lon="-1.62467">
        <ele>411</ele>
        <time>2026-08-23T14:23:19.000Z</time>
      </trkpt>
      <trkpt lat="43.25611" lon="-1.62461">
        <ele>410</ele>
        <time>2026-08-23T14:23:21.000Z</time>
      </trkpt>
      <trkpt lat="43.25667" lon="-1.62388">
        <ele>417</ele>
        <time>2026-08-23T14:23:34.000Z</time>
      </trkpt>
      <trkpt lat="43.25679" lon="-1.62367">
        <ele>418</ele>
        <time>2026-08-23T14:23:38.000Z</time>
      </trkpt>
      <trkpt lat="43.25685" lon="-1.62356">
        <ele>420</ele>
        <time>2026-08-23T14:23:40.000Z</time>
      </trkpt>
      <trkpt lat="43.25697" lon="-1.62344">
        <ele>422</ele>
        <time>2026-08-23T14:23:42.000Z</time>
      </trkpt>
      <trkpt lat="43.25741" lon="-1.62322">
        <ele>428</ele>
        <time>2026-08-23T14:23:51.000Z</time>
      </trkpt>
      <trkpt lat="43.25759" lon="-1.6231">
        <ele>429</ele>
        <time>2026-08-23T14:23:54.000Z</time>
      </trkpt>
      <trkpt lat="43.25805" lon="-1.62264">
        <ele>431</ele>
        <time>2026-08-23T14:24:04.000Z</time>
      </trkpt>
      <trkpt lat="43.2583" lon="-1.62233">
        <ele>434</ele>
        <time>2026-08-23T14:24:10.000Z</time>
      </trkpt>
      <trkpt lat="43.25838" lon="-1.62219">
        <ele>434</ele>
        <time>2026-08-23T14:24:13.000Z</time>
      </trkpt>
      <trkpt lat="43.25846" lon="-1.62197">
        <ele>435</ele>
        <time>2026-08-23T14:24:16.000Z</time>
      </trkpt>
      <trkpt lat="43.25852" lon="-1.62159">
        <ele>439</ele>
        <time>2026-08-23T14:24:21.000Z</time>
      </trkpt>
      <trkpt lat="43.25855" lon="-1.62113">
        <ele>441</ele>
        <time>2026-08-23T14:24:27.000Z</time>
      </trkpt>
      <trkpt lat="43.25859" lon="-1.62093">
        <ele>441</ele>
        <time>2026-08-23T14:24:30.000Z</time>
      </trkpt>
      <trkpt lat="43.25866" lon="-1.62075">
        <ele>440</ele>
        <time>2026-08-23T14:24:32.000Z</time>
      </trkpt>
      <trkpt lat="43.25881" lon="-1.62046">
        <ele>440</ele>
        <time>2026-08-23T14:24:37.000Z</time>
      </trkpt>
      <trkpt lat="43.25901" lon="-1.62018">
        <ele>438</ele>
        <time>2026-08-23T14:24:42.000Z</time>
      </trkpt>
      <trkpt lat="43.2591" lon="-1.62">
        <ele>439</ele>
        <time>2026-08-23T14:24:45.000Z</time>
      </trkpt>
      <trkpt lat="43.25925" lon="-1.61943">
        <ele>444</ele>
        <time>2026-08-23T14:24:53.000Z</time>
      </trkpt>
      <trkpt lat="43.25934" lon="-1.61896">
        <ele>449</ele>
        <time>2026-08-23T14:24:59.000Z</time>
      </trkpt>
      <trkpt lat="43.25941" lon="-1.61882">
        <ele>448</ele>
        <time>2026-08-23T14:25:01.000Z</time>
      </trkpt>
      <trkpt lat="43.25952" lon="-1.61872">
        <ele>448</ele>
        <time>2026-08-23T14:25:03.000Z</time>
      </trkpt>
      <trkpt lat="43.25962" lon="-1.61875">
        <ele>446</ele>
        <time>2026-08-23T14:25:05.000Z</time>
      </trkpt>
      <trkpt lat="43.25979" lon="-1.61884">
        <ele>443</ele>
        <time>2026-08-23T14:25:08.000Z</time>
      </trkpt>
      <trkpt lat="43.26012" lon="-1.61917">
        <ele>436</ele>
        <time>2026-08-23T14:25:16.000Z</time>
      </trkpt>
      <trkpt lat="43.26028" lon="-1.61924">
        <ele>435</ele>
        <time>2026-08-23T14:25:19.000Z</time>
      </trkpt>
      <trkpt lat="43.26042" lon="-1.61925">
        <ele>435</ele>
        <time>2026-08-23T14:25:21.000Z</time>
      </trkpt>
      <trkpt lat="43.26049" lon="-1.61922">
        <ele>436</ele>
        <time>2026-08-23T14:25:23.000Z</time>
      </trkpt>
      <trkpt lat="43.26062" lon="-1.61912">
        <ele>437</ele>
        <time>2026-08-23T14:25:25.000Z</time>
      </trkpt>
      <trkpt lat="43.26066" lon="-1.61909">
        <ele>437</ele>
        <time>2026-08-23T14:25:26.000Z</time>
      </trkpt>
      <trkpt lat="43.26073" lon="-1.61898">
        <ele>437</ele>
        <time>2026-08-23T14:25:28.000Z</time>
      </trkpt>
      <trkpt lat="43.26085" lon="-1.61884">
        <ele>435</ele>
        <time>2026-08-23T14:25:31.000Z</time>
      </trkpt>
      <trkpt lat="43.26091" lon="-1.61882">
        <ele>434</ele>
        <time>2026-08-23T14:25:32.000Z</time>
      </trkpt>
      <trkpt lat="43.26104" lon="-1.61884">
        <ele>432</ele>
        <time>2026-08-23T14:25:34.000Z</time>
      </trkpt>
      <trkpt lat="43.26116" lon="-1.61887">
        <ele>431</ele>
        <time>2026-08-23T14:25:36.000Z</time>
      </trkpt>
      <trkpt lat="43.26126" lon="-1.61894">
        <ele>431</ele>
        <time>2026-08-23T14:25:38.000Z</time>
      </trkpt>
      <trkpt lat="43.26152" lon="-1.61922">
        <ele>432</ele>
        <time>2026-08-23T14:25:44.000Z</time>
      </trkpt>
      <trkpt lat="43.26165" lon="-1.61929">
        <ele>432</ele>
        <time>2026-08-23T14:25:47.000Z</time>
      </trkpt>
      <trkpt lat="43.26193" lon="-1.61934">
        <ele>431</ele>
        <time>2026-08-23T14:25:52.000Z</time>
      </trkpt>
      <trkpt lat="43.26216" lon="-1.61945">
        <ele>432</ele>
        <time>2026-08-23T14:25:56.000Z</time>
      </trkpt>
      <trkpt lat="43.26226" lon="-1.61944">
        <ele>431</ele>
        <time>2026-08-23T14:25:58.000Z</time>
      </trkpt>
      <trkpt lat="43.26255" lon="-1.61935">
        <ele>430</ele>
        <time>2026-08-23T14:26:03.000Z</time>
      </trkpt>
      <trkpt lat="43.26259" lon="-1.61931">
        <ele>429</ele>
        <time>2026-08-23T14:26:04.000Z</time>
      </trkpt>
      <trkpt lat="43.26261" lon="-1.61923">
        <ele>428</ele>
        <time>2026-08-23T14:26:05.000Z</time>
      </trkpt>
      <trkpt lat="43.26262" lon="-1.61882">
        <ele>422</ele>
        <time>2026-08-23T14:26:10.000Z</time>
      </trkpt>
      <trkpt lat="43.26266" lon="-1.61858">
        <ele>418</ele>
        <time>2026-08-23T14:26:14.000Z</time>
      </trkpt>
      <trkpt lat="43.26273" lon="-1.61845">
        <ele>417</ele>
        <time>2026-08-23T14:26:16.000Z</time>
      </trkpt>
      <trkpt lat="43.26287" lon="-1.61828">
        <ele>415</ele>
        <time>2026-08-23T14:26:19.000Z</time>
      </trkpt>
      <trkpt lat="43.26292" lon="-1.61819">
        <ele>414</ele>
        <time>2026-08-23T14:26:20.000Z</time>
      </trkpt>
      <trkpt lat="43.26295" lon="-1.61812">
        <ele>413</ele>
        <time>2026-08-23T14:26:21.000Z</time>
      </trkpt>
      <trkpt lat="43.26293" lon="-1.61805">
        <ele>412</ele>
        <time>2026-08-23T14:26:22.000Z</time>
      </trkpt>
      <trkpt lat="43.2629" lon="-1.61799">
        <ele>411</ele>
        <time>2026-08-23T14:26:23.000Z</time>
      </trkpt>
      <trkpt lat="43.26284" lon="-1.61797">
        <ele>411</ele>
        <time>2026-08-23T14:26:24.000Z</time>
      </trkpt>
      <trkpt lat="43.26276" lon="-1.61799">
        <ele>411</ele>
        <time>2026-08-23T14:26:26.000Z</time>
      </trkpt>
      <trkpt lat="43.26266" lon="-1.61812">
        <ele>412</ele>
        <time>2026-08-23T14:26:28.000Z</time>
      </trkpt>
      <trkpt lat="43.26252" lon="-1.61838">
        <ele>415</ele>
        <time>2026-08-23T14:26:33.000Z</time>
      </trkpt>
      <trkpt lat="43.26244" lon="-1.61862">
        <ele>418</ele>
        <time>2026-08-23T14:26:36.000Z</time>
      </trkpt>
      <trkpt lat="43.26237" lon="-1.61881">
        <ele>421</ele>
        <time>2026-08-23T14:26:39.000Z</time>
      </trkpt>
      <trkpt lat="43.26231" lon="-1.61892">
        <ele>423</ele>
        <time>2026-08-23T14:26:41.000Z</time>
      </trkpt>
      <trkpt lat="43.26222" lon="-1.61892">
        <ele>424</ele>
        <time>2026-08-23T14:26:42.000Z</time>
      </trkpt>
      <trkpt lat="43.26191" lon="-1.6187">
        <ele>420</ele>
        <time>2026-08-23T14:26:48.000Z</time>
      </trkpt>
      <trkpt lat="43.26187" lon="-1.61862">
        <ele>419</ele>
        <time>2026-08-23T14:26:50.000Z</time>
      </trkpt>
      <trkpt lat="43.26185" lon="-1.61845">
        <ele>416</ele>
        <time>2026-08-23T14:26:52.000Z</time>
      </trkpt>
      <trkpt lat="43.26178" lon="-1.61822">
        <ele>411</ele>
        <time>2026-08-23T14:26:55.000Z</time>
      </trkpt>
      <trkpt lat="43.26167" lon="-1.61794">
        <ele>405</ele>
        <time>2026-08-23T14:26:59.000Z</time>
      </trkpt>
      <trkpt lat="43.26155" lon="-1.61777">
        <ele>404</ele>
        <time>2026-08-23T14:27:02.000Z</time>
      </trkpt>
      <trkpt lat="43.26145" lon="-1.61766">
        <ele>403</ele>
        <time>2026-08-23T14:27:05.000Z</time>
      </trkpt>
      <trkpt lat="43.26132" lon="-1.61758">
        <ele>404</ele>
        <time>2026-08-23T14:27:07.000Z</time>
      </trkpt>
      <trkpt lat="43.26114" lon="-1.61756">
        <ele>407</ele>
        <time>2026-08-23T14:27:10.000Z</time>
      </trkpt>
      <trkpt lat="43.26107" lon="-1.61752">
        <ele>407</ele>
        <time>2026-08-23T14:27:12.000Z</time>
      </trkpt>
      <trkpt lat="43.26102" lon="-1.61743">
        <ele>406</ele>
        <time>2026-08-23T14:27:13.000Z</time>
      </trkpt>
      <trkpt lat="43.26097" lon="-1.61724">
        <ele>403</ele>
        <time>2026-08-23T14:27:16.000Z</time>
      </trkpt>
      <trkpt lat="43.26084" lon="-1.61714">
        <ele>403</ele>
        <time>2026-08-23T14:27:18.000Z</time>
      </trkpt>
      <trkpt lat="43.26081" lon="-1.61705">
        <ele>402</ele>
        <time>2026-08-23T14:27:20.000Z</time>
      </trkpt>
      <trkpt lat="43.26082" lon="-1.61678">
        <ele>396</ele>
        <time>2026-08-23T14:27:23.000Z</time>
      </trkpt>
      <trkpt lat="43.2608" lon="-1.61669">
        <ele>395</ele>
        <time>2026-08-23T14:27:24.000Z</time>
      </trkpt>
      <trkpt lat="43.26065" lon="-1.61638">
        <ele>394</ele>
        <time>2026-08-23T14:27:29.000Z</time>
      </trkpt>
      <trkpt lat="43.26046" lon="-1.61608">
        <ele>395</ele>
        <time>2026-08-23T14:27:34.000Z</time>
      </trkpt>
      <trkpt lat="43.26039" lon="-1.61592">
        <ele>394</ele>
        <time>2026-08-23T14:27:37.000Z</time>
      </trkpt>
      <trkpt lat="43.26035" lon="-1.61554">
        <ele>386</ele>
        <time>2026-08-23T14:27:42.000Z</time>
      </trkpt>
      <trkpt lat="43.2603" lon="-1.61543">
        <ele>385</ele>
        <time>2026-08-23T14:27:43.000Z</time>
      </trkpt>
      <trkpt lat="43.26015" lon="-1.61526">
        <ele>385</ele>
        <time>2026-08-23T14:27:47.000Z</time>
      </trkpt>
      <trkpt lat="43.26012" lon="-1.61516">
        <ele>384</ele>
        <time>2026-08-23T14:27:48.000Z</time>
      </trkpt>
      <trkpt lat="43.26011" lon="-1.615">
        <ele>379</ele>
        <time>2026-08-23T14:27:50.000Z</time>
      </trkpt>
      <trkpt lat="43.26007" lon="-1.61492">
        <ele>379</ele>
        <time>2026-08-23T14:27:52.000Z</time>
      </trkpt>
      <trkpt lat="43.25998" lon="-1.61487">
        <ele>380</ele>
        <time>2026-08-23T14:27:53.000Z</time>
      </trkpt>
      <trkpt lat="43.25983" lon="-1.61485">
        <ele>382</ele>
        <time>2026-08-23T14:27:56.000Z</time>
      </trkpt>
      <trkpt lat="43.25976" lon="-1.61481">
        <ele>382</ele>
        <time>2026-08-23T14:27:57.000Z</time>
      </trkpt>
      <trkpt lat="43.25955" lon="-1.61459">
        <ele>381</ele>
        <time>2026-08-23T14:28:02.000Z</time>
      </trkpt>
      <trkpt lat="43.25937" lon="-1.61456">
        <ele>383</ele>
        <time>2026-08-23T14:28:05.000Z</time>
      </trkpt>
      <trkpt lat="43.25931" lon="-1.61448">
        <ele>382</ele>
        <time>2026-08-23T14:28:07.000Z</time>
      </trkpt>
      <trkpt lat="43.25929" lon="-1.61437">
        <ele>379</ele>
        <time>2026-08-23T14:28:08.000Z</time>
      </trkpt>
      <trkpt lat="43.2593" lon="-1.6142">
        <ele>375</ele>
        <time>2026-08-23T14:28:10.000Z</time>
      </trkpt>
      <trkpt lat="43.25926" lon="-1.61399">
        <ele>370</ele>
        <time>2026-08-23T14:28:13.000Z</time>
      </trkpt>
      <trkpt lat="43.25926" lon="-1.61386">
        <ele>367</ele>
        <time>2026-08-23T14:28:15.000Z</time>
      </trkpt>
      <trkpt lat="43.2593" lon="-1.61377">
        <ele>365</ele>
        <time>2026-08-23T14:28:16.000Z</time>
      </trkpt>
      <trkpt lat="43.25936" lon="-1.61371">
        <ele>362</ele>
        <time>2026-08-23T14:28:18.000Z</time>
      </trkpt>
      <trkpt lat="43.25945" lon="-1.61373">
        <ele>361</ele>
        <time>2026-08-23T14:28:19.000Z</time>
      </trkpt>
      <trkpt lat="43.2595" lon="-1.61381">
        <ele>362</ele>
        <time>2026-08-23T14:28:21.000Z</time>
      </trkpt>
      <trkpt lat="43.25949" lon="-1.6143">
        <ele>374</ele>
        <time>2026-08-23T14:28:27.000Z</time>
      </trkpt>
      <trkpt lat="43.2596" lon="-1.61441">
        <ele>375</ele>
        <time>2026-08-23T14:28:29.000Z</time>
      </trkpt>
      <trkpt lat="43.25972" lon="-1.61443">
        <ele>373</ele>
        <time>2026-08-23T14:28:32.000Z</time>
      </trkpt>
      <trkpt lat="43.25995" lon="-1.6145">
        <ele>371</ele>
        <time>2026-08-23T14:28:36.000Z</time>
      </trkpt>
      <trkpt lat="43.26009" lon="-1.61448">
        <ele>368</ele>
        <time>2026-08-23T14:28:38.000Z</time>
      </trkpt>
      <trkpt lat="43.26021" lon="-1.61448">
        <ele>364</ele>
        <time>2026-08-23T14:28:40.000Z</time>
      </trkpt>
      <trkpt lat="43.26025" lon="-1.6145">
        <ele>364</ele>
        <time>2026-08-23T14:28:41.000Z</time>
      </trkpt>
      <trkpt lat="43.26033" lon="-1.6146">
        <ele>364</ele>
        <time>2026-08-23T14:28:43.000Z</time>
      </trkpt>
      <trkpt lat="43.26047" lon="-1.61488">
        <ele>365</ele>
        <time>2026-08-23T14:28:47.000Z</time>
      </trkpt>
      <trkpt lat="43.26066" lon="-1.61517">
        <ele>366</ele>
        <time>2026-08-23T14:28:53.000Z</time>
      </trkpt>
      <trkpt lat="43.26071" lon="-1.61527">
        <ele>367</ele>
        <time>2026-08-23T14:28:54.000Z</time>
      </trkpt>
      <trkpt lat="43.26079" lon="-1.61553">
        <ele>370</ele>
        <time>2026-08-23T14:28:58.000Z</time>
      </trkpt>
      <trkpt lat="43.26084" lon="-1.61562">
        <ele>371</ele>
        <time>2026-08-23T14:28:59.000Z</time>
      </trkpt>
      <trkpt lat="43.26097" lon="-1.61571">
        <ele>373</ele>
        <time>2026-08-23T14:29:02.000Z</time>
      </trkpt>
      <trkpt lat="43.26104" lon="-1.6158">
        <ele>375</ele>
        <time>2026-08-23T14:29:04.000Z</time>
      </trkpt>
      <trkpt lat="43.26112" lon="-1.61601">
        <ele>378</ele>
        <time>2026-08-23T14:29:07.000Z</time>
      </trkpt>
      <trkpt lat="43.26119" lon="-1.61606">
        <ele>378</ele>
        <time>2026-08-23T14:29:08.000Z</time>
      </trkpt>
      <trkpt lat="43.26125" lon="-1.61606">
        <ele>378</ele>
        <time>2026-08-23T14:29:09.000Z</time>
      </trkpt>
      <trkpt lat="43.26128" lon="-1.61598">
        <ele>377</ele>
        <time>2026-08-23T14:29:10.000Z</time>
      </trkpt>
      <trkpt lat="43.26128" lon="-1.61584">
        <ele>374</ele>
        <time>2026-08-23T14:29:12.000Z</time>
      </trkpt>
      <trkpt lat="43.26126" lon="-1.61554">
        <ele>370</ele>
        <time>2026-08-23T14:29:16.000Z</time>
      </trkpt>
      <trkpt lat="43.26122" lon="-1.61539">
        <ele>368</ele>
        <time>2026-08-23T14:29:18.000Z</time>
      </trkpt>
      <trkpt lat="43.26124" lon="-1.61496">
        <ele>362</ele>
        <time>2026-08-23T14:29:24.000Z</time>
      </trkpt>
      <trkpt lat="43.26118" lon="-1.61441">
        <ele>355</ele>
        <time>2026-08-23T14:29:31.000Z</time>
      </trkpt>
      <trkpt lat="43.26114" lon="-1.61425">
        <ele>352</ele>
        <time>2026-08-23T14:29:33.000Z</time>
      </trkpt>
      <trkpt lat="43.26106" lon="-1.61355">
        <ele>341</ele>
        <time>2026-08-23T14:29:42.000Z</time>
      </trkpt>
      <trkpt lat="43.26107" lon="-1.61337">
        <ele>338</ele>
        <time>2026-08-23T14:29:45.000Z</time>
      </trkpt>
      <trkpt lat="43.26113" lon="-1.61321">
        <ele>337</ele>
        <time>2026-08-23T14:29:47.000Z</time>
      </trkpt>
      <trkpt lat="43.26127" lon="-1.61298">
        <ele>336</ele>
        <time>2026-08-23T14:29:51.000Z</time>
      </trkpt>
      <trkpt lat="43.26153" lon="-1.6126">
        <ele>333</ele>
        <time>2026-08-23T14:29:57.000Z</time>
      </trkpt>
      <trkpt lat="43.2616" lon="-1.61252">
        <ele>333</ele>
        <time>2026-08-23T14:29:59.000Z</time>
      </trkpt>
      <trkpt lat="43.26167" lon="-1.61252">
        <ele>335</ele>
        <time>2026-08-23T14:30:00.000Z</time>
      </trkpt>
      <trkpt lat="43.26185" lon="-1.61263">
        <ele>342</ele>
        <time>2026-08-23T14:30:04.000Z</time>
      </trkpt>
      <trkpt lat="43.26199" lon="-1.61263">
        <ele>346</ele>
        <time>2026-08-23T14:30:06.000Z</time>
      </trkpt>
      <trkpt lat="43.26206" lon="-1.6126">
        <ele>347</ele>
        <time>2026-08-23T14:30:08.000Z</time>
      </trkpt>
      <trkpt lat="43.26207" lon="-1.61253">
        <ele>346</ele>
        <time>2026-08-23T14:30:09.000Z</time>
      </trkpt>
      <trkpt lat="43.26198" lon="-1.61179">
        <ele>332</ele>
        <time>2026-08-23T14:30:18.000Z</time>
      </trkpt>
      <trkpt lat="43.26199" lon="-1.61155">
        <ele>329</ele>
        <time>2026-08-23T14:30:21.000Z</time>
      </trkpt>
      <trkpt lat="43.26205" lon="-1.61136">
        <ele>329</ele>
        <time>2026-08-23T14:30:24.000Z</time>
      </trkpt>
      <trkpt lat="43.26221" lon="-1.61101">
        <ele>329</ele>
        <time>2026-08-23T14:30:29.000Z</time>
      </trkpt>
      <trkpt lat="43.26231" lon="-1.6106">
        <ele>326</ele>
        <time>2026-08-23T14:30:35.000Z</time>
      </trkpt>
      <trkpt lat="43.26258" lon="-1.60981">
        <ele>316</ele>
        <time>2026-08-23T14:30:46.000Z</time>
      </trkpt>
      <trkpt lat="43.26266" lon="-1.60963">
        <ele>315</ele>
        <time>2026-08-23T14:30:49.000Z</time>
      </trkpt>
      <trkpt lat="43.2628" lon="-1.60947">
        <ele>316</ele>
        <time>2026-08-23T14:30:52.000Z</time>
      </trkpt>
      <trkpt lat="43.26284" lon="-1.60933">
        <ele>315</ele>
        <time>2026-08-23T14:30:54.000Z</time>
      </trkpt>
      <trkpt lat="43.26279" lon="-1.6092">
        <ele>312</ele>
        <time>2026-08-23T14:30:56.000Z</time>
      </trkpt>
      <trkpt lat="43.26263" lon="-1.60904">
        <ele>306</ele>
        <time>2026-08-23T14:31:00.000Z</time>
      </trkpt>
      <trkpt lat="43.26248" lon="-1.60866">
        <ele>301</ele>
        <time>2026-08-23T14:31:05.000Z</time>
      </trkpt>
      <trkpt lat="43.26241" lon="-1.60828">
        <ele>299</ele>
        <time>2026-08-23T14:31:10.000Z</time>
      </trkpt>
      <trkpt lat="43.26235" lon="-1.60803">
        <ele>297</ele>
        <time>2026-08-23T14:31:14.000Z</time>
      </trkpt>
      <trkpt lat="43.26238" lon="-1.60788">
        <ele>295</ele>
        <time>2026-08-23T14:31:16.000Z</time>
      </trkpt>
      <trkpt lat="43.26256" lon="-1.60757">
        <ele>294</ele>
        <time>2026-08-23T14:31:21.000Z</time>
      </trkpt>
      <trkpt lat="43.26258" lon="-1.60746">
        <ele>293</ele>
        <time>2026-08-23T14:31:22.000Z</time>
      </trkpt>
      <trkpt lat="43.26254" lon="-1.60738">
        <ele>291</ele>
        <time>2026-08-23T14:31:24.000Z</time>
      </trkpt>
      <trkpt lat="43.26249" lon="-1.60734">
        <ele>289</ele>
        <time>2026-08-23T14:31:25.000Z</time>
      </trkpt>
      <trkpt lat="43.26241" lon="-1.60731">
        <ele>289</ele>
        <time>2026-08-23T14:31:26.000Z</time>
      </trkpt>
      <trkpt lat="43.26233" lon="-1.60735">
        <ele>289</ele>
        <time>2026-08-23T14:31:28.000Z</time>
      </trkpt>
      <trkpt lat="43.26226" lon="-1.60748">
        <ele>290</ele>
        <time>2026-08-23T14:31:30.000Z</time>
      </trkpt>
      <trkpt lat="43.26217" lon="-1.60777">
        <ele>293</ele>
        <time>2026-08-23T14:31:34.000Z</time>
      </trkpt>
      <trkpt lat="43.26215" lon="-1.60793">
        <ele>295</ele>
        <time>2026-08-23T14:31:36.000Z</time>
      </trkpt>
      <trkpt lat="43.26212" lon="-1.60822">
        <ele>298</ele>
        <time>2026-08-23T14:31:40.000Z</time>
      </trkpt>
      <trkpt lat="43.26216" lon="-1.60885">
        <ele>302</ele>
        <time>2026-08-23T14:31:48.000Z</time>
      </trkpt>
      <trkpt lat="43.26225" lon="-1.60921">
        <ele>304</ele>
        <time>2026-08-23T14:31:53.000Z</time>
      </trkpt>
      <trkpt lat="43.26224" lon="-1.60931">
        <ele>306</ele>
        <time>2026-08-23T14:31:54.000Z</time>
      </trkpt>
      <trkpt lat="43.26218" lon="-1.60932">
        <ele>306</ele>
        <time>2026-08-23T14:31:55.000Z</time>
      </trkpt>
      <trkpt lat="43.26212" lon="-1.60927">
        <ele>306</ele>
        <time>2026-08-23T14:31:57.000Z</time>
      </trkpt>
      <trkpt lat="43.26193" lon="-1.6083">
        <ele>299</ele>
        <time>2026-08-23T14:32:10.000Z</time>
      </trkpt>
      <trkpt lat="43.26188" lon="-1.60786">
        <ele>293</ele>
        <time>2026-08-23T14:32:15.000Z</time>
      </trkpt>
      <trkpt lat="43.26187" lon="-1.60772">
        <ele>291</ele>
        <time>2026-08-23T14:32:17.000Z</time>
      </trkpt>
      <trkpt lat="43.26189" lon="-1.60726">
        <ele>285</ele>
        <time>2026-08-23T14:32:23.000Z</time>
      </trkpt>
      <trkpt lat="43.26195" lon="-1.60669">
        <ele>279</ele>
        <time>2026-08-23T14:32:31.000Z</time>
      </trkpt>
      <trkpt lat="43.26209" lon="-1.60616">
        <ele>270</ele>
        <time>2026-08-23T14:32:38.000Z</time>
      </trkpt>
      <trkpt lat="43.26212" lon="-1.60594">
        <ele>267</ele>
        <time>2026-08-23T14:32:41.000Z</time>
      </trkpt>
      <trkpt lat="43.26211" lon="-1.60571">
        <ele>264</ele>
        <time>2026-08-23T14:32:44.000Z</time>
      </trkpt>
      <trkpt lat="43.26208" lon="-1.60579">
        <ele>265</ele>
        <time>2026-08-23T14:32:45.000Z</time>
      </trkpt>
      <trkpt lat="43.26201" lon="-1.60609">
        <ele>269</ele>
        <time>2026-08-23T14:32:49.000Z</time>
      </trkpt>
      <trkpt lat="43.26199" lon="-1.60614">
        <ele>270</ele>
        <time>2026-08-23T14:32:50.000Z</time>
      </trkpt>
      <trkpt lat="43.26191" lon="-1.60615">
        <ele>271</ele>
        <time>2026-08-23T14:32:51.000Z</time>
      </trkpt>
      <trkpt lat="43.26189" lon="-1.6061">
        <ele>270</ele>
        <time>2026-08-23T14:32:52.000Z</time>
      </trkpt>
      <trkpt lat="43.26195" lon="-1.60555">
        <ele>263</ele>
        <time>2026-08-23T14:32:59.000Z</time>
      </trkpt>
      <trkpt lat="43.26198" lon="-1.60545">
        <ele>262</ele>
        <time>2026-08-23T14:33:01.000Z</time>
      </trkpt>
      <trkpt lat="43.26205" lon="-1.60537">
        <ele>260</ele>
        <time>2026-08-23T14:33:02.000Z</time>
      </trkpt>
      <trkpt lat="43.26211" lon="-1.60533">
        <ele>260</ele>
        <time>2026-08-23T14:33:03.000Z</time>
      </trkpt>
      <trkpt lat="43.26218" lon="-1.60524">
        <ele>259</ele>
        <time>2026-08-23T14:33:05.000Z</time>
      </trkpt>
      <trkpt lat="43.26232" lon="-1.60516">
        <ele>257</ele>
        <time>2026-08-23T14:33:08.000Z</time>
      </trkpt>
      <trkpt lat="43.26248" lon="-1.60514">
        <ele>256</ele>
        <time>2026-08-23T14:33:11.000Z</time>
      </trkpt>
      <trkpt lat="43.26266" lon="-1.60523">
        <ele>257</ele>
        <time>2026-08-23T14:33:14.000Z</time>
      </trkpt>
      <trkpt lat="43.26285" lon="-1.60522">
        <ele>256</ele>
        <time>2026-08-23T14:33:17.000Z</time>
      </trkpt>
      <trkpt lat="43.26288" lon="-1.60522">
        <ele>256</ele>
        <time>2026-08-23T14:33:18.000Z</time>
      </trkpt>
      <trkpt lat="43.26304" lon="-1.60522">
        <ele>256</ele>
        <time>2026-08-23T14:33:21.000Z</time>
      </trkpt>
      <trkpt lat="43.26314" lon="-1.60516">
        <ele>255</ele>
        <time>2026-08-23T14:33:23.000Z</time>
      </trkpt>
      <trkpt lat="43.26321" lon="-1.60516">
        <ele>255</ele>
        <time>2026-08-23T14:33:24.000Z</time>
      </trkpt>
      <trkpt lat="43.26325" lon="-1.6052">
        <ele>256</ele>
        <time>2026-08-23T14:33:25.000Z</time>
      </trkpt>
      <trkpt lat="43.26331" lon="-1.60517">
        <ele>255</ele>
        <time>2026-08-23T14:33:26.000Z</time>
      </trkpt>
      <trkpt lat="43.26343" lon="-1.60501">
        <ele>253</ele>
        <time>2026-08-23T14:33:29.000Z</time>
      </trkpt>
      <trkpt lat="43.26331" lon="-1.60517">
        <ele>255</ele>
        <time>2026-08-23T14:33:32.000Z</time>
      </trkpt>
      <trkpt lat="43.26325" lon="-1.6052">
        <ele>256</ele>
        <time>2026-08-23T14:33:33.000Z</time>
      </trkpt>
      <trkpt lat="43.26321" lon="-1.60516">
        <ele>255</ele>
        <time>2026-08-23T14:33:34.000Z</time>
      </trkpt>
      <trkpt lat="43.26314" lon="-1.60516">
        <ele>255</ele>
        <time>2026-08-23T14:33:35.000Z</time>
      </trkpt>
      <trkpt lat="43.26304" lon="-1.60522">
        <ele>256</ele>
        <time>2026-08-23T14:33:37.000Z</time>
      </trkpt>
      <trkpt lat="43.26288" lon="-1.60522">
        <ele>256</ele>
        <time>2026-08-23T14:33:40.000Z</time>
      </trkpt>
      <trkpt lat="43.26285" lon="-1.60522">
        <ele>256</ele>
        <time>2026-08-23T14:33:41.000Z</time>
      </trkpt>
      <trkpt lat="43.26266" lon="-1.60523">
        <ele>257</ele>
        <time>2026-08-23T14:33:44.000Z</time>
      </trkpt>
      <trkpt lat="43.26248" lon="-1.60514">
        <ele>256</ele>
        <time>2026-08-23T14:33:47.000Z</time>
      </trkpt>
      <trkpt lat="43.26232" lon="-1.60516">
        <ele>257</ele>
        <time>2026-08-23T14:33:50.000Z</time>
      </trkpt>
      <trkpt lat="43.26218" lon="-1.60524">
        <ele>259</ele>
        <time>2026-08-23T14:33:53.000Z</time>
      </trkpt>
      <trkpt lat="43.26211" lon="-1.60533">
        <ele>260</ele>
        <time>2026-08-23T14:33:55.000Z</time>
      </trkpt>
      <trkpt lat="43.26205" lon="-1.60537">
        <ele>260</ele>
        <time>2026-08-23T14:33:56.000Z</time>
      </trkpt>
      <trkpt lat="43.26198" lon="-1.60545">
        <ele>262</ele>
        <time>2026-08-23T14:33:57.000Z</time>
      </trkpt>
      <trkpt lat="43.26195" lon="-1.60555">
        <ele>263</ele>
        <time>2026-08-23T14:33:59.000Z</time>
      </trkpt>
      <trkpt lat="43.26189" lon="-1.6061">
        <ele>270</ele>
        <time>2026-08-23T14:34:06.000Z</time>
      </trkpt>
      <trkpt lat="43.26191" lon="-1.60615">
        <ele>271</ele>
        <time>2026-08-23T14:34:07.000Z</time>
      </trkpt>
      <trkpt lat="43.26199" lon="-1.60614">
        <ele>270</ele>
        <time>2026-08-23T14:34:08.000Z</time>
      </trkpt>
      <trkpt lat="43.26201" lon="-1.60609">
        <ele>269</ele>
        <time>2026-08-23T14:34:09.000Z</time>
      </trkpt>
      <trkpt lat="43.26208" lon="-1.60579">
        <ele>265</ele>
        <time>2026-08-23T14:34:13.000Z</time>
      </trkpt>
      <trkpt lat="43.26211" lon="-1.60571">
        <ele>264</ele>
        <time>2026-08-23T14:34:14.000Z</time>
      </trkpt>
      <trkpt lat="43.26217" lon="-1.60556">
        <ele>262</ele>
        <time>2026-08-23T14:34:16.000Z</time>
      </trkpt>
      <trkpt lat="43.26228" lon="-1.60554">
        <ele>261</ele>
        <time>2026-08-23T14:34:18.000Z</time>
      </trkpt>
      <trkpt lat="43.26232" lon="-1.60556">
        <ele>261</ele>
        <time>2026-08-23T14:34:19.000Z</time>
      </trkpt>
      <trkpt lat="43.26244" lon="-1.60577">
        <ele>263</ele>
        <time>2026-08-23T14:34:23.000Z</time>
      </trkpt>
      <trkpt lat="43.26251" lon="-1.60583">
        <ele>263</ele>
        <time>2026-08-23T14:34:24.000Z</time>
      </trkpt>
      <trkpt lat="43.26259" lon="-1.60586">
        <ele>264</ele>
        <time>2026-08-23T14:34:26.000Z</time>
      </trkpt>
      <trkpt lat="43.26281" lon="-1.6057">
        <ele>262</ele>
        <time>2026-08-23T14:34:30.000Z</time>
      </trkpt>
      <trkpt lat="43.2629" lon="-1.60572">
        <ele>262</ele>
        <time>2026-08-23T14:34:32.000Z</time>
      </trkpt>
      <trkpt lat="43.263" lon="-1.60573">
        <ele>262</ele>
        <time>2026-08-23T14:34:33.000Z</time>
      </trkpt>
      <trkpt lat="43.2632" lon="-1.60585">
        <ele>263</ele>
        <time>2026-08-23T14:34:37.000Z</time>
      </trkpt>
      <trkpt lat="43.26331" lon="-1.60588">
        <ele>264</ele>
        <time>2026-08-23T14:34:39.000Z</time>
      </trkpt>
      <trkpt lat="43.26354" lon="-1.60584">
        <ele>267</ele>
        <time>2026-08-23T14:34:43.000Z</time>
      </trkpt>
      <trkpt lat="43.26366" lon="-1.60571">
        <ele>267</ele>
        <time>2026-08-23T14:34:46.000Z</time>
      </trkpt>
      <trkpt lat="43.26401" lon="-1.60507">
        <ele>256</ele>
        <time>2026-08-23T14:34:56.000Z</time>
      </trkpt>
      <trkpt lat="43.26413" lon="-1.60498">
        <ele>255</ele>
        <time>2026-08-23T14:34:59.000Z</time>
      </trkpt>
      <trkpt lat="43.2644" lon="-1.60497">
        <ele>256</ele>
        <time>2026-08-23T14:35:04.000Z</time>
      </trkpt>
      <trkpt lat="43.265" lon="-1.60483">
        <ele>255</ele>
        <time>2026-08-23T14:35:14.000Z</time>
      </trkpt>
      <trkpt lat="43.26515" lon="-1.60481">
        <ele>254</ele>
        <time>2026-08-23T14:35:17.000Z</time>
      </trkpt>
      <trkpt lat="43.26556" lon="-1.60489">
        <ele>250</ele>
        <time>2026-08-23T14:35:25.000Z</time>
      </trkpt>
      <trkpt lat="43.26587" lon="-1.6048">
        <ele>246</ele>
        <time>2026-08-23T14:35:30.000Z</time>
      </trkpt>
      <trkpt lat="43.26614" lon="-1.60478">
        <ele>242</ele>
        <time>2026-08-23T14:35:35.000Z</time>
      </trkpt>
      <trkpt lat="43.26634" lon="-1.6048">
        <ele>239</ele>
        <time>2026-08-23T14:35:39.000Z</time>
      </trkpt>
      <trkpt lat="43.26677" lon="-1.60492">
        <ele>236</ele>
        <time>2026-08-23T14:35:46.000Z</time>
      </trkpt>
      <trkpt lat="43.267" lon="-1.60492">
        <ele>236</ele>
        <time>2026-08-23T14:35:50.000Z</time>
      </trkpt>
      <trkpt lat="43.26712" lon="-1.60489">
        <ele>235</ele>
        <time>2026-08-23T14:35:53.000Z</time>
      </trkpt>
      <trkpt lat="43.26723" lon="-1.60478">
        <ele>233</ele>
        <time>2026-08-23T14:35:55.000Z</time>
      </trkpt>
      <trkpt lat="43.26743" lon="-1.60463">
        <ele>229</ele>
        <time>2026-08-23T14:35:59.000Z</time>
      </trkpt>
      <trkpt lat="43.26771" lon="-1.60448">
        <ele>223</ele>
        <time>2026-08-23T14:36:04.000Z</time>
      </trkpt>
      <trkpt lat="43.26811" lon="-1.60435">
        <ele>217</ele>
        <time>2026-08-23T14:36:12.000Z</time>
      </trkpt>
      <trkpt lat="43.26847" lon="-1.60425">
        <ele>210</ele>
        <time>2026-08-23T14:36:18.000Z</time>
      </trkpt>
      <trkpt lat="43.2686" lon="-1.60423">
        <ele>206</ele>
        <time>2026-08-23T14:36:21.000Z</time>
      </trkpt>
      <trkpt lat="43.2687" lon="-1.60427">
        <ele>205</ele>
        <time>2026-08-23T14:36:22.000Z</time>
      </trkpt>
      <trkpt lat="43.26875" lon="-1.60433">
        <ele>204</ele>
        <time>2026-08-23T14:36:24.000Z</time>
      </trkpt>
      <trkpt lat="43.26877" lon="-1.6044">
        <ele>204</ele>
        <time>2026-08-23T14:36:25.000Z</time>
      </trkpt>
      <trkpt lat="43.26877" lon="-1.60453">
        <ele>206</ele>
        <time>2026-08-23T14:36:26.000Z</time>
      </trkpt>
      <trkpt lat="43.26874" lon="-1.60475">
        <ele>210</ele>
        <time>2026-08-23T14:36:29.000Z</time>
      </trkpt>
      <trkpt lat="43.2686" lon="-1.60521">
        <ele>218</ele>
        <time>2026-08-23T14:36:36.000Z</time>
      </trkpt>
      <trkpt lat="43.26821" lon="-1.60606">
        <ele>231</ele>
        <time>2026-08-23T14:36:49.000Z</time>
      </trkpt>
      <trkpt lat="43.26821" lon="-1.60613">
        <ele>232</ele>
        <time>2026-08-23T14:36:50.000Z</time>
      </trkpt>
      <trkpt lat="43.26823" lon="-1.60617">
        <ele>233</ele>
        <time>2026-08-23T14:36:50.000Z</time>
      </trkpt>
      <trkpt lat="43.26828" lon="-1.60618">
        <ele>232</ele>
        <time>2026-08-23T14:36:51.000Z</time>
      </trkpt>
      <trkpt lat="43.26877" lon="-1.60578">
        <ele>224</ele>
        <time>2026-08-23T14:37:01.000Z</time>
      </trkpt>
      <trkpt lat="43.26897" lon="-1.60549">
        <ele>218</ele>
        <time>2026-08-23T14:37:06.000Z</time>
      </trkpt>
      <trkpt lat="43.26972" lon="-1.60476">
        <ele>205</ele>
        <time>2026-08-23T14:37:23.000Z</time>
      </trkpt>
      <trkpt lat="43.26999" lon="-1.60445">
        <ele>199</ele>
        <time>2026-08-23T14:37:29.000Z</time>
      </trkpt>
      <trkpt lat="43.2701" lon="-1.60428">
        <ele>195</ele>
        <time>2026-08-23T14:37:32.000Z</time>
      </trkpt>
      <trkpt lat="43.2702" lon="-1.60418">
        <ele>193</ele>
        <time>2026-08-23T14:37:34.000Z</time>
      </trkpt>
      <trkpt lat="43.27028" lon="-1.60412">
        <ele>193</ele>
        <time>2026-08-23T14:37:36.000Z</time>
      </trkpt>
      <trkpt lat="43.27049" lon="-1.60409">
        <ele>193</ele>
        <time>2026-08-23T14:37:40.000Z</time>
      </trkpt>
      <trkpt lat="43.27061" lon="-1.60411">
        <ele>194</ele>
        <time>2026-08-23T14:37:42.000Z</time>
      </trkpt>
      <trkpt lat="43.27082" lon="-1.60419">
        <ele>197</ele>
        <time>2026-08-23T14:37:46.000Z</time>
      </trkpt>
      <trkpt lat="43.27096" lon="-1.6043">
        <ele>199</ele>
        <time>2026-08-23T14:37:48.000Z</time>
      </trkpt>
      <trkpt lat="43.27108" lon="-1.60435">
        <ele>200</ele>
        <time>2026-08-23T14:37:51.000Z</time>
      </trkpt>
      <trkpt lat="43.2714" lon="-1.60422">
        <ele>195</ele>
        <time>2026-08-23T14:37:57.000Z</time>
      </trkpt>
      <trkpt lat="43.27169" lon="-1.60416">
        <ele>192</ele>
        <time>2026-08-23T14:38:02.000Z</time>
      </trkpt>
      <trkpt lat="43.27198" lon="-1.6041">
        <ele>189</ele>
        <time>2026-08-23T14:38:07.000Z</time>
      </trkpt>
      <trkpt lat="43.27208" lon="-1.60402">
        <ele>186</ele>
        <time>2026-08-23T14:38:09.000Z</time>
      </trkpt>
      <trkpt lat="43.27221" lon="-1.60389">
        <ele>182</ele>
        <time>2026-08-23T14:38:12.000Z</time>
      </trkpt>
      <trkpt lat="43.27227" lon="-1.60386">
        <ele>181</ele>
        <time>2026-08-23T14:38:13.000Z</time>
      </trkpt>
      <trkpt lat="43.27236" lon="-1.60385">
        <ele>180</ele>
        <time>2026-08-23T14:38:15.000Z</time>
      </trkpt>
      <trkpt lat="43.27264" lon="-1.60392">
        <ele>180</ele>
        <time>2026-08-23T14:38:20.000Z</time>
      </trkpt>
      <trkpt lat="43.27279" lon="-1.6039">
        <ele>178</ele>
        <time>2026-08-23T14:38:23.000Z</time>
      </trkpt>
      <trkpt lat="43.27304" lon="-1.60381">
        <ele>174</ele>
        <time>2026-08-23T14:38:27.000Z</time>
      </trkpt>
      <trkpt lat="43.27324" lon="-1.60379">
        <ele>172</ele>
        <time>2026-08-23T14:38:31.000Z</time>
      </trkpt>
      <trkpt lat="43.27351" lon="-1.60366">
        <ele>168</ele>
        <time>2026-08-23T14:38:36.000Z</time>
      </trkpt>
      <trkpt lat="43.27373" lon="-1.60365">
        <ele>167</ele>
        <time>2026-08-23T14:38:40.000Z</time>
      </trkpt>
      <trkpt lat="43.2741" lon="-1.60379">
        <ele>169</ele>
        <time>2026-08-23T14:38:47.000Z</time>
      </trkpt>
      <trkpt lat="43.27451" lon="-1.60372">
        <ele>162</ele>
        <time>2026-08-23T14:38:54.000Z</time>
      </trkpt>
      <trkpt lat="43.27458" lon="-1.60373">
        <ele>161</ele>
        <time>2026-08-23T14:38:55.000Z</time>
      </trkpt>
      <trkpt lat="43.27496" lon="-1.60419">
        <ele>162</ele>
        <time>2026-08-23T14:39:04.000Z</time>
      </trkpt>
      <trkpt lat="43.27509" lon="-1.60446">
        <ele>161</ele>
        <time>2026-08-23T14:39:08.000Z</time>
      </trkpt>
      <trkpt lat="43.27523" lon="-1.60479">
        <ele>159</ele>
        <time>2026-08-23T14:39:13.000Z</time>
      </trkpt>
      <trkpt lat="43.27529" lon="-1.60514">
        <ele>160</ele>
        <time>2026-08-23T14:39:18.000Z</time>
      </trkpt>
      <trkpt lat="43.27526" lon="-1.60558">
        <ele>164</ele>
        <time>2026-08-23T14:39:24.000Z</time>
      </trkpt>
      <trkpt lat="43.27529" lon="-1.60582">
        <ele>165</ele>
        <time>2026-08-23T14:39:27.000Z</time>
      </trkpt>
      <trkpt lat="43.27534" lon="-1.60596">
        <ele>167</ele>
        <time>2026-08-23T14:39:29.000Z</time>
      </trkpt>
      <trkpt lat="43.2754" lon="-1.60603">
        <ele>168</ele>
        <time>2026-08-23T14:39:30.000Z</time>
      </trkpt>
      <trkpt lat="43.27552" lon="-1.60606">
        <ele>166</ele>
        <time>2026-08-23T14:39:32.000Z</time>
      </trkpt>
      <trkpt lat="43.27585" lon="-1.60601">
        <ele>161</ele>
        <time>2026-08-23T14:39:38.000Z</time>
      </trkpt>
      <trkpt lat="43.2759" lon="-1.60594">
        <ele>161</ele>
        <time>2026-08-23T14:39:40.000Z</time>
      </trkpt>
      <trkpt lat="43.27588" lon="-1.60563">
        <ele>156</ele>
        <time>2026-08-23T14:39:44.000Z</time>
      </trkpt>
      <trkpt lat="43.2759" lon="-1.60492">
        <ele>151</ele>
        <time>2026-08-23T14:39:53.000Z</time>
      </trkpt>
      <trkpt lat="43.2759" lon="-1.60469">
        <ele>150</ele>
        <time>2026-08-23T14:39:56.000Z</time>
      </trkpt>
      <trkpt lat="43.27579" lon="-1.60423">
        <ele>148</ele>
        <time>2026-08-23T14:40:02.000Z</time>
      </trkpt>
      <trkpt lat="43.27574" lon="-1.60392">
        <ele>146</ele>
        <time>2026-08-23T14:40:06.000Z</time>
      </trkpt>
      <trkpt lat="43.27575" lon="-1.60365">
        <ele>144</ele>
        <time>2026-08-23T14:40:10.000Z</time>
      </trkpt>
      <trkpt lat="43.27583" lon="-1.60325">
        <ele>140</ele>
        <time>2026-08-23T14:40:15.000Z</time>
      </trkpt>
      <trkpt lat="43.27591" lon="-1.60307">
        <ele>139</ele>
        <time>2026-08-23T14:40:18.000Z</time>
      </trkpt>
      <trkpt lat="43.276" lon="-1.60299">
        <ele>140</ele>
        <time>2026-08-23T14:40:20.000Z</time>
      </trkpt>
      <trkpt lat="43.27639" lon="-1.60288">
        <ele>142</ele>
        <time>2026-08-23T14:40:27.000Z</time>
      </trkpt>
      <trkpt lat="43.27652" lon="-1.60278">
        <ele>142</ele>
        <time>2026-08-23T14:40:29.000Z</time>
      </trkpt>
      <trkpt lat="43.27675" lon="-1.60254">
        <ele>138</ele>
        <time>2026-08-23T14:40:35.000Z</time>
      </trkpt>
      <trkpt lat="43.27689" lon="-1.60244">
        <ele>137</ele>
        <time>2026-08-23T14:40:37.000Z</time>
      </trkpt>
      <trkpt lat="43.27708" lon="-1.60237">
        <ele>137</ele>
        <time>2026-08-23T14:40:41.000Z</time>
      </trkpt>
      <trkpt lat="43.27727" lon="-1.60234">
        <ele>137</ele>
        <time>2026-08-23T14:40:44.000Z</time>
      </trkpt>
      <trkpt lat="43.27757" lon="-1.60233">
        <ele>136</ele>
        <time>2026-08-23T14:40:50.000Z</time>
      </trkpt>
      <trkpt lat="43.27785" lon="-1.60223">
        <ele>132</ele>
        <time>2026-08-23T14:40:55.000Z</time>
      </trkpt>
      <trkpt lat="43.27835" lon="-1.60192">
        <ele>124</ele>
        <time>2026-08-23T14:41:05.000Z</time>
      </trkpt>
      <trkpt lat="43.2785" lon="-1.60192">
        <ele>123</ele>
        <time>2026-08-23T14:41:07.000Z</time>
      </trkpt>
      <trkpt lat="43.27863" lon="-1.60193">
        <ele>122</ele>
        <time>2026-08-23T14:41:10.000Z</time>
      </trkpt>
      <trkpt lat="43.27877" lon="-1.60195">
        <ele>121</ele>
        <time>2026-08-23T14:41:12.000Z</time>
      </trkpt>
      <trkpt lat="43.27898" lon="-1.60199">
        <ele>121</ele>
        <time>2026-08-23T14:41:16.000Z</time>
      </trkpt>
      <trkpt lat="43.27925" lon="-1.60201">
        <ele>121</ele>
        <time>2026-08-23T14:41:21.000Z</time>
      </trkpt>
      <trkpt lat="43.27936" lon="-1.60191">
        <ele>123</ele>
        <time>2026-08-23T14:41:23.000Z</time>
      </trkpt>
      <trkpt lat="43.27943" lon="-1.60176">
        <ele>123</ele>
        <time>2026-08-23T14:41:25.000Z</time>
      </trkpt>
      <trkpt lat="43.27948" lon="-1.60145">
        <ele>122</ele>
        <time>2026-08-23T14:41:29.000Z</time>
      </trkpt>
      <trkpt lat="43.27955" lon="-1.60085">
        <ele>119</ele>
        <time>2026-08-23T14:41:37.000Z</time>
      </trkpt>
      <trkpt lat="43.27956" lon="-1.60069">
        <ele>118</ele>
        <time>2026-08-23T14:41:39.000Z</time>
      </trkpt>
      <trkpt lat="43.27956" lon="-1.60039">
        <ele>117</ele>
        <time>2026-08-23T14:41:43.000Z</time>
      </trkpt>
      <trkpt lat="43.27952" lon="-1.60018">
        <ele>116</ele>
        <time>2026-08-23T14:41:46.000Z</time>
      </trkpt>
      <trkpt lat="43.27944" lon="-1.59994">
        <ele>115</ele>
        <time>2026-08-23T14:41:49.000Z</time>
      </trkpt>
      <trkpt lat="43.27939" lon="-1.59981">
        <ele>114</ele>
        <time>2026-08-23T14:41:51.000Z</time>
      </trkpt>
      <trkpt lat="43.27934" lon="-1.59924">
        <ele>111</ele>
        <time>2026-08-23T14:41:59.000Z</time>
      </trkpt>
      <trkpt lat="43.27933" lon="-1.5989">
        <ele>109</ele>
        <time>2026-08-23T14:42:03.000Z</time>
      </trkpt>
      <trkpt lat="43.27936" lon="-1.598">
        <ele>108</ele>
        <time>2026-08-23T14:42:15.000Z</time>
      </trkpt>
      <trkpt lat="43.27932" lon="-1.5972">
        <ele>109</ele>
        <time>2026-08-23T14:42:25.000Z</time>
      </trkpt>
      <trkpt lat="43.27926" lon="-1.59668">
        <ele>111</ele>
        <time>2026-08-23T14:42:32.000Z</time>
      </trkpt>
      <trkpt lat="43.27925" lon="-1.59631">
        <ele>112</ele>
        <time>2026-08-23T14:42:37.000Z</time>
      </trkpt>
      <trkpt lat="43.27929" lon="-1.59614">
        <ele>112</ele>
        <time>2026-08-23T14:42:39.000Z</time>
      </trkpt>
      <trkpt lat="43.27976" lon="-1.5956">
        <ele>108</ele>
        <time>2026-08-23T14:42:50.000Z</time>
      </trkpt>
      <trkpt lat="43.28029" lon="-1.59479">
        <ele>100</ele>
        <time>2026-08-23T14:43:04.000Z</time>
      </trkpt>
      <trkpt lat="43.28088" lon="-1.59396">
        <ele>96</ele>
        <time>2026-08-23T14:43:19.000Z</time>
      </trkpt>
      <trkpt lat="43.28141" lon="-1.59292">
        <ele>99</ele>
        <time>2026-08-23T14:43:36.000Z</time>
      </trkpt>
      <trkpt lat="43.28154" lon="-1.5926">
        <ele>97</ele>
        <time>2026-08-23T14:43:40.000Z</time>
      </trkpt>
      <trkpt lat="43.28156" lon="-1.5925">
        <ele>96</ele>
        <time>2026-08-23T14:43:42.000Z</time>
      </trkpt>
      <trkpt lat="43.28158" lon="-1.59218">
        <ele>95</ele>
        <time>2026-08-23T14:43:46.000Z</time>
      </trkpt>
      <trkpt lat="43.28159" lon="-1.59185">
        <ele>93</ele>
        <time>2026-08-23T14:43:50.000Z</time>
      </trkpt>
      <trkpt lat="43.2816" lon="-1.59158">
        <ele>92</ele>
        <time>2026-08-23T14:43:54.000Z</time>
      </trkpt>
      <trkpt lat="43.28163" lon="-1.59143">
        <ele>91</ele>
        <time>2026-08-23T14:43:56.000Z</time>
      </trkpt>
      <trkpt lat="43.28173" lon="-1.59115">
        <ele>90</ele>
        <time>2026-08-23T14:44:00.000Z</time>
      </trkpt>
      <trkpt lat="43.2818" lon="-1.59103">
        <ele>90</ele>
        <time>2026-08-23T14:44:02.000Z</time>
      </trkpt>
      <trkpt lat="43.28237" lon="-1.59004">
        <ele>89</ele>
        <time>2026-08-23T14:44:18.000Z</time>
      </trkpt>
      <trkpt lat="43.28255" lon="-1.58969">
        <ele>87</ele>
        <time>2026-08-23T14:44:24.000Z</time>
      </trkpt>
      <trkpt lat="43.28283" lon="-1.58918">
        <ele>85</ele>
        <time>2026-08-23T14:44:32.000Z</time>
      </trkpt>
      <trkpt lat="43.28309" lon="-1.58876">
        <ele>85</ele>
        <time>2026-08-23T14:44:39.000Z</time>
      </trkpt>
      <trkpt lat="43.28314" lon="-1.58867">
        <ele>85</ele>
        <time>2026-08-23T14:44:41.000Z</time>
      </trkpt>
      <trkpt lat="43.2834" lon="-1.58823">
        <ele>83</ele>
        <time>2026-08-23T14:44:48.000Z</time>
      </trkpt>
      <trkpt lat="43.28355" lon="-1.58791">
        <ele>84</ele>
        <time>2026-08-23T14:44:53.000Z</time>
      </trkpt>
      <trkpt lat="43.2841" lon="-1.58664">
        <ele>84</ele>
        <time>2026-08-23T14:45:12.000Z</time>
      </trkpt>
      <trkpt lat="43.28425" lon="-1.58635">
        <ele>83</ele>
        <time>2026-08-23T14:45:17.000Z</time>
      </trkpt>
      <trkpt lat="43.28439" lon="-1.58607">
        <ele>82</ele>
        <time>2026-08-23T14:45:21.000Z</time>
      </trkpt>
      <trkpt lat="43.28527" lon="-1.58436">
        <ele>76</ele>
        <time>2026-08-23T14:45:48.000Z</time>
      </trkpt>
      <trkpt lat="43.28648" lon="-1.58243">
        <ele>77</ele>
        <time>2026-08-23T14:46:21.000Z</time>
      </trkpt>
      <trkpt lat="43.28706" lon="-1.58158">
        <ele>75</ele>
        <time>2026-08-23T14:46:36.000Z</time>
      </trkpt>
      <trkpt lat="43.28737" lon="-1.58121">
        <ele>74</ele>
        <time>2026-08-23T14:46:43.000Z</time>
      </trkpt>
      <trkpt lat="43.28784" lon="-1.58093">
        <ele>72</ele>
        <time>2026-08-23T14:46:53.000Z</time>
      </trkpt>
      <trkpt lat="43.28851" lon="-1.58062">
        <ele>70</ele>
        <time>2026-08-23T14:47:05.000Z</time>
      </trkpt>
      <trkpt lat="43.28885" lon="-1.58043">
        <ele>69</ele>
        <time>2026-08-23T14:47:12.000Z</time>
      </trkpt>
      <trkpt lat="43.28995" lon="-1.57963">
        <ele>66</ele>
        <time>2026-08-23T14:47:34.000Z</time>
      </trkpt>
      <trkpt lat="43.29031" lon="-1.57936">
        <ele>65</ele>
        <time>2026-08-23T14:47:41.000Z</time>
      </trkpt>
      <trkpt lat="43.29048" lon="-1.57926">
        <ele>65</ele>
        <time>2026-08-23T14:47:44.000Z</time>
      </trkpt>
      <trkpt lat="43.29157" lon="-1.57909">
        <ele>63</ele>
        <time>2026-08-23T14:48:04.000Z</time>
      </trkpt>
      <trkpt lat="43.29177" lon="-1.57898">
        <ele>65</ele>
        <time>2026-08-23T14:48:08.000Z</time>
      </trkpt>
      <trkpt lat="43.29245" lon="-1.57844">
        <ele>66</ele>
        <time>2026-08-23T14:48:22.000Z</time>
      </trkpt>
      <trkpt lat="43.29299" lon="-1.57811">
        <ele>68</ele>
        <time>2026-08-23T14:48:32.000Z</time>
      </trkpt>
      <trkpt lat="43.29344" lon="-1.5777">
        <ele>67</ele>
        <time>2026-08-23T14:48:42.000Z</time>
      </trkpt>
      <trkpt lat="43.29395" lon="-1.5772">
        <ele>65</ele>
        <time>2026-08-23T14:48:53.000Z</time>
      </trkpt>
      <trkpt lat="43.29479" lon="-1.57628">
        <ele>59</ele>
        <time>2026-08-23T14:49:12.000Z</time>
      </trkpt>
      <trkpt lat="43.29496" lon="-1.57602">
        <ele>58</ele>
        <time>2026-08-23T14:49:17.000Z</time>
      </trkpt>
      <trkpt lat="43.29543" lon="-1.57489">
        <ele>57</ele>
        <time>2026-08-23T14:49:33.000Z</time>
      </trkpt>
      <trkpt lat="43.29566" lon="-1.57447">
        <ele>56</ele>
        <time>2026-08-23T14:49:40.000Z</time>
      </trkpt>
      <trkpt lat="43.29611" lon="-1.57386">
        <ele>56</ele>
        <time>2026-08-23T14:49:52.000Z</time>
      </trkpt>
      <trkpt lat="43.29634" lon="-1.57366">
        <ele>56</ele>
        <time>2026-08-23T14:49:56.000Z</time>
      </trkpt>
      <trkpt lat="43.29723" lon="-1.57347">
        <ele>55</ele>
        <time>2026-08-23T14:50:12.000Z</time>
      </trkpt>
      <trkpt lat="43.29812" lon="-1.57304">
        <ele>57</ele>
        <time>2026-08-23T14:50:29.000Z</time>
      </trkpt>
      <trkpt lat="43.29828" lon="-1.57283">
        <ele>57</ele>
        <time>2026-08-23T14:50:33.000Z</time>
      </trkpt>
      <trkpt lat="43.29835" lon="-1.57267">
        <ele>57</ele>
        <time>2026-08-23T14:50:36.000Z</time>
      </trkpt>
      <trkpt lat="43.29844" lon="-1.57232">
        <ele>56</ele>
        <time>2026-08-23T14:50:40.000Z</time>
      </trkpt>
      <trkpt lat="43.29853" lon="-1.57218">
        <ele>56</ele>
        <time>2026-08-23T14:50:43.000Z</time>
      </trkpt>
      <trkpt lat="43.29866" lon="-1.5721">
        <ele>56</ele>
        <time>2026-08-23T14:50:45.000Z</time>
      </trkpt>
      <trkpt lat="43.29896" lon="-1.57202">
        <ele>56</ele>
        <time>2026-08-23T14:50:51.000Z</time>
      </trkpt>
      <trkpt lat="43.29956" lon="-1.57166">
        <ele>51</ele>
        <time>2026-08-23T14:51:02.000Z</time>
      </trkpt>
      <trkpt lat="43.29968" lon="-1.57164">
        <ele>50</ele>
        <time>2026-08-23T14:51:05.000Z</time>
      </trkpt>
      <trkpt lat="43.29977" lon="-1.57164">
        <ele>50</ele>
        <time>2026-08-23T14:51:06.000Z</time>
      </trkpt>
      <trkpt lat="43.29987" lon="-1.57167">
        <ele>50</ele>
        <time>2026-08-23T14:51:08.000Z</time>
      </trkpt>
      <trkpt lat="43.29996" lon="-1.57171">
        <ele>50</ele>
        <time>2026-08-23T14:51:10.000Z</time>
      </trkpt>
      <trkpt lat="43.30018" lon="-1.57189">
        <ele>52</ele>
        <time>2026-08-23T14:51:14.000Z</time>
      </trkpt>
      <trkpt lat="43.30046" lon="-1.57219">
        <ele>52</ele>
        <time>2026-08-23T14:51:21.000Z</time>
      </trkpt>
      <trkpt lat="43.30077" lon="-1.57259">
        <ele>51</ele>
        <time>2026-08-23T14:51:28.000Z</time>
      </trkpt>
      <trkpt lat="43.30108" lon="-1.57286">
        <ele>53</ele>
        <time>2026-08-23T14:51:35.000Z</time>
      </trkpt>
      <trkpt lat="43.30127" lon="-1.57309">
        <ele>53</ele>
        <time>2026-08-23T14:51:39.000Z</time>
      </trkpt>
      <trkpt lat="43.30133" lon="-1.5732">
        <ele>53</ele>
        <time>2026-08-23T14:51:41.000Z</time>
      </trkpt>
      <trkpt lat="43.30167" lon="-1.57388">
        <ele>53</ele>
        <time>2026-08-23T14:51:52.000Z</time>
      </trkpt>
      <trkpt lat="43.30176" lon="-1.57403">
        <ele>54</ele>
        <time>2026-08-23T14:51:54.000Z</time>
      </trkpt>
      <trkpt lat="43.3021" lon="-1.57449">
        <ele>56</ele>
        <time>2026-08-23T14:52:03.000Z</time>
      </trkpt>
      <trkpt lat="43.30215" lon="-1.57454">
        <ele>56</ele>
        <time>2026-08-23T14:52:04.000Z</time>
      </trkpt>
      <trkpt lat="43.30223" lon="-1.57458">
        <ele>55</ele>
        <time>2026-08-23T14:52:05.000Z</time>
      </trkpt>
      <trkpt lat="43.30252" lon="-1.57461">
        <ele>50</ele>
        <time>2026-08-23T14:52:10.000Z</time>
      </trkpt>
      <trkpt lat="43.3026" lon="-1.57461">
        <ele>50</ele>
        <time>2026-08-23T14:52:12.000Z</time>
      </trkpt>
      <trkpt lat="43.30282" lon="-1.57459">
        <ele>51</ele>
        <time>2026-08-23T14:52:16.000Z</time>
      </trkpt>
      <trkpt lat="43.30303" lon="-1.57455">
        <ele>53</ele>
        <time>2026-08-23T14:52:20.000Z</time>
      </trkpt>
      <trkpt lat="43.30313" lon="-1.57448">
        <ele>53</ele>
        <time>2026-08-23T14:52:22.000Z</time>
      </trkpt>
      <trkpt lat="43.30329" lon="-1.57434">
        <ele>53</ele>
        <time>2026-08-23T14:52:25.000Z</time>
      </trkpt>
      <trkpt lat="43.30353" lon="-1.57406">
        <ele>53</ele>
        <time>2026-08-23T14:52:30.000Z</time>
      </trkpt>
      <trkpt lat="43.30367" lon="-1.57388">
        <ele>52</ele>
        <time>2026-08-23T14:52:34.000Z</time>
      </trkpt>
      <trkpt lat="43.30381" lon="-1.57373">
        <ele>51</ele>
        <time>2026-08-23T14:52:37.000Z</time>
      </trkpt>
      <trkpt lat="43.30399" lon="-1.57356">
        <ele>50</ele>
        <time>2026-08-23T14:52:41.000Z</time>
      </trkpt>
      <trkpt lat="43.30416" lon="-1.57342">
        <ele>48</ele>
        <time>2026-08-23T14:52:44.000Z</time>
      </trkpt>
      <trkpt lat="43.30479" lon="-1.57306">
        <ele>50</ele>
        <time>2026-08-23T14:52:57.000Z</time>
      </trkpt>
      <trkpt lat="43.30509" lon="-1.57281">
        <ele>49</ele>
        <time>2026-08-23T14:53:03.000Z</time>
      </trkpt>
      <trkpt lat="43.30548" lon="-1.57263">
        <ele>47</ele>
        <time>2026-08-23T14:53:10.000Z</time>
      </trkpt>
      <trkpt lat="43.30566" lon="-1.57252">
        <ele>46</ele>
        <time>2026-08-23T14:53:14.000Z</time>
      </trkpt>
      <trkpt lat="43.30576" lon="-1.57247">
        <ele>45</ele>
        <time>2026-08-23T14:53:16.000Z</time>
      </trkpt>
      <trkpt lat="43.30587" lon="-1.57241">
        <ele>45</ele>
        <time>2026-08-23T14:53:18.000Z</time>
      </trkpt>
      <trkpt lat="43.30609" lon="-1.57238">
        <ele>45</ele>
        <time>2026-08-23T14:53:22.000Z</time>
      </trkpt>
      <trkpt lat="43.30655" lon="-1.5724">
        <ele>45</ele>
        <time>2026-08-23T14:53:30.000Z</time>
      </trkpt>
      <trkpt lat="43.30667" lon="-1.57243">
        <ele>45</ele>
        <time>2026-08-23T14:53:32.000Z</time>
      </trkpt>
      <trkpt lat="43.30718" lon="-1.57268">
        <ele>47</ele>
        <time>2026-08-23T14:53:42.000Z</time>
      </trkpt>
      <trkpt lat="43.30732" lon="-1.57272">
        <ele>47</ele>
        <time>2026-08-23T14:53:44.000Z</time>
      </trkpt>
      <trkpt lat="43.30747" lon="-1.57272">
        <ele>48</ele>
        <time>2026-08-23T14:53:47.000Z</time>
      </trkpt>
      <trkpt lat="43.30782" lon="-1.57268">
        <ele>48</ele>
        <time>2026-08-23T14:53:53.000Z</time>
      </trkpt>
      <trkpt lat="43.30792" lon="-1.57267">
        <ele>48</ele>
        <time>2026-08-23T14:53:55.000Z</time>
      </trkpt>
      <trkpt lat="43.30797" lon="-1.57266">
        <ele>48</ele>
        <time>2026-08-23T14:53:56.000Z</time>
      </trkpt>
      <trkpt lat="43.30856" lon="-1.57271">
        <ele>48</ele>
        <time>2026-08-23T14:54:06.000Z</time>
      </trkpt>
      <trkpt lat="43.30864" lon="-1.57271">
        <ele>48</ele>
        <time>2026-08-23T14:54:08.000Z</time>
      </trkpt>
      <trkpt lat="43.30869" lon="-1.5727">
        <ele>48</ele>
        <time>2026-08-23T14:54:09.000Z</time>
      </trkpt>
      <trkpt lat="43.30882" lon="-1.57267">
        <ele>48</ele>
        <time>2026-08-23T14:54:11.000Z</time>
      </trkpt>
      <trkpt lat="43.30908" lon="-1.57256">
        <ele>47</ele>
        <time>2026-08-23T14:54:16.000Z</time>
      </trkpt>
      <trkpt lat="43.30936" lon="-1.57242">
        <ele>47</ele>
        <time>2026-08-23T14:54:21.000Z</time>
      </trkpt>
      <trkpt lat="43.30943" lon="-1.57239">
        <ele>47</ele>
        <time>2026-08-23T14:54:22.000Z</time>
      </trkpt>
      <trkpt lat="43.30952" lon="-1.57225">
        <ele>47</ele>
        <time>2026-08-23T14:54:25.000Z</time>
      </trkpt>
      <trkpt lat="43.30953" lon="-1.57219">
        <ele>47</ele>
        <time>2026-08-23T14:54:26.000Z</time>
      </trkpt>
      <trkpt lat="43.30955" lon="-1.57215">
        <ele>47</ele>
        <time>2026-08-23T14:54:26.000Z</time>
      </trkpt>
      <trkpt lat="43.30959" lon="-1.57213">
        <ele>47</ele>
        <time>2026-08-23T14:54:27.000Z</time>
      </trkpt>
      <trkpt lat="43.30968" lon="-1.57201">
        <ele>47</ele>
        <time>2026-08-23T14:54:29.000Z</time>
      </trkpt>
      <trkpt lat="43.30984" lon="-1.57152">
        <ele>48</ele>
        <time>2026-08-23T14:54:36.000Z</time>
      </trkpt>
      <trkpt lat="43.30987" lon="-1.57138">
        <ele>48</ele>
        <time>2026-08-23T14:54:38.000Z</time>
      </trkpt>
      <trkpt lat="43.30992" lon="-1.57122">
        <ele>49</ele>
        <time>2026-08-23T14:54:40.000Z</time>
      </trkpt>
      <trkpt lat="43.31016" lon="-1.5704">
        <ele>53</ele>
        <time>2026-08-23T14:54:52.000Z</time>
      </trkpt>
      <trkpt lat="43.31036" lon="-1.57021">
        <ele>56</ele>
        <time>2026-08-23T14:54:56.000Z</time>
      </trkpt>
      <trkpt lat="43.31086" lon="-1.5699">
        <ele>63</ele>
        <time>2026-08-23T14:55:06.000Z</time>
      </trkpt>
      <trkpt lat="43.31105" lon="-1.56974">
        <ele>64</ele>
        <time>2026-08-23T14:55:10.000Z</time>
      </trkpt>
      <trkpt lat="43.31136" lon="-1.56937">
        <ele>68</ele>
        <time>2026-08-23T14:55:17.000Z</time>
      </trkpt>
      <trkpt lat="43.313" lon="-1.56728">
        <ele>70</ele>
        <time>2026-08-23T14:55:57.000Z</time>
      </trkpt>
      <trkpt lat="43.31317" lon="-1.56719">
        <ele>70</ele>
        <time>2026-08-23T14:56:00.000Z</time>
      </trkpt>
      <trkpt lat="43.31347" lon="-1.56722">
        <ele>70</ele>
        <time>2026-08-23T14:56:05.000Z</time>
      </trkpt>
      <trkpt lat="43.31371" lon="-1.56728">
        <ele>70</ele>
        <time>2026-08-23T14:56:10.000Z</time>
      </trkpt>
      <trkpt lat="43.31385" lon="-1.56735">
        <ele>69</ele>
        <time>2026-08-23T14:56:12.000Z</time>
      </trkpt>
      <trkpt lat="43.31393" lon="-1.56744">
        <ele>70</ele>
        <time>2026-08-23T14:56:14.000Z</time>
      </trkpt>
      <trkpt lat="43.31398" lon="-1.56747">
        <ele>70</ele>
        <time>2026-08-23T14:56:15.000Z</time>
      </trkpt>
      <trkpt lat="43.31413" lon="-1.56743">
        <ele>69</ele>
        <time>2026-08-23T14:56:18.000Z</time>
      </trkpt>
      <trkpt lat="43.31425" lon="-1.56729">
        <ele>67</ele>
        <time>2026-08-23T14:56:21.000Z</time>
      </trkpt>
      <trkpt lat="43.3144" lon="-1.56704">
        <ele>65</ele>
        <time>2026-08-23T14:56:25.000Z</time>
      </trkpt>
      <trkpt lat="43.31458" lon="-1.56642">
        <ele>61</ele>
        <time>2026-08-23T14:56:34.000Z</time>
      </trkpt>
      <trkpt lat="43.31483" lon="-1.56578">
        <ele>60</ele>
        <time>2026-08-23T14:56:43.000Z</time>
      </trkpt>
      <trkpt lat="43.31506" lon="-1.56527">
        <ele>61</ele>
        <time>2026-08-23T14:56:51.000Z</time>
      </trkpt>
      <trkpt lat="43.31526" lon="-1.56448">
        <ele>61</ele>
        <time>2026-08-23T14:57:02.000Z</time>
      </trkpt>
      <trkpt lat="43.3154" lon="-1.56403">
        <ele>59</ele>
        <time>2026-08-23T14:57:08.000Z</time>
      </trkpt>
      <trkpt lat="43.31593" lon="-1.56278">
        <ele>59</ele>
        <time>2026-08-23T14:57:27.000Z</time>
      </trkpt>
      <trkpt lat="43.31622" lon="-1.56198">
        <ele>57</ele>
        <time>2026-08-23T14:57:38.000Z</time>
      </trkpt>
      <trkpt lat="43.31642" lon="-1.56131">
        <ele>56</ele>
        <time>2026-08-23T14:57:48.000Z</time>
      </trkpt>
      <trkpt lat="43.31662" lon="-1.56079">
        <ele>57</ele>
        <time>2026-08-23T14:57:55.000Z</time>
      </trkpt>
      <trkpt lat="43.317" lon="-1.56038">
        <ele>55</ele>
        <time>2026-08-23T14:58:04.000Z</time>
      </trkpt>
      <trkpt lat="43.31735" lon="-1.56002">
        <ele>53</ele>
        <time>2026-08-23T14:58:12.000Z</time>
      </trkpt>
      <trkpt lat="43.31745" lon="-1.55991">
        <ele>53</ele>
        <time>2026-08-23T14:58:14.000Z</time>
      </trkpt>
      <trkpt lat="43.31754" lon="-1.55974">
        <ele>52</ele>
        <time>2026-08-23T14:58:17.000Z</time>
      </trkpt>
      <trkpt lat="43.31763" lon="-1.55933">
        <ele>51</ele>
        <time>2026-08-23T14:58:22.000Z</time>
      </trkpt>
      <trkpt lat="43.3177" lon="-1.55915">
        <ele>50</ele>
        <time>2026-08-23T14:58:25.000Z</time>
      </trkpt>
      <trkpt lat="43.31791" lon="-1.55887">
        <ele>50</ele>
        <time>2026-08-23T14:58:30.000Z</time>
      </trkpt>
      <trkpt lat="43.31795" lon="-1.5588">
        <ele>50</ele>
        <time>2026-08-23T14:58:31.000Z</time>
      </trkpt>
      <trkpt lat="43.31803" lon="-1.55869">
        <ele>49</ele>
        <time>2026-08-23T14:58:33.000Z</time>
      </trkpt>
      <trkpt lat="43.31861" lon="-1.55769">
        <ele>46</ele>
        <time>2026-08-23T14:58:50.000Z</time>
      </trkpt>
      <trkpt lat="43.31864" lon="-1.55764">
        <ele>46</ele>
        <time>2026-08-23T14:58:51.000Z</time>
      </trkpt>
      <trkpt lat="43.31872" lon="-1.55753">
        <ele>45</ele>
        <time>2026-08-23T14:58:53.000Z</time>
      </trkpt>
      <trkpt lat="43.31879" lon="-1.55743">
        <ele>45</ele>
        <time>2026-08-23T14:58:54.000Z</time>
      </trkpt>
      <trkpt lat="43.31904" lon="-1.5571">
        <ele>44</ele>
        <time>2026-08-23T14:59:01.000Z</time>
      </trkpt>
      <trkpt lat="43.3192" lon="-1.55689">
        <ele>43</ele>
        <time>2026-08-23T14:59:05.000Z</time>
      </trkpt>
      <trkpt lat="43.31935" lon="-1.55665">
        <ele>41</ele>
        <time>2026-08-23T14:59:09.000Z</time>
      </trkpt>
      <trkpt lat="43.31941" lon="-1.55653">
        <ele>41</ele>
        <time>2026-08-23T14:59:11.000Z</time>
      </trkpt>
      <trkpt lat="43.31945" lon="-1.55643">
        <ele>40</ele>
        <time>2026-08-23T14:59:12.000Z</time>
      </trkpt>
      <trkpt lat="43.31962" lon="-1.55573">
        <ele>37</ele>
        <time>2026-08-23T14:59:22.000Z</time>
      </trkpt>
      <trkpt lat="43.31993" lon="-1.55427">
        <ele>35</ele>
        <time>2026-08-23T14:59:41.000Z</time>
      </trkpt>
      <trkpt lat="43.32003" lon="-1.55401">
        <ele>35</ele>
        <time>2026-08-23T14:59:45.000Z</time>
      </trkpt>
      <trkpt lat="43.32012" lon="-1.5539">
        <ele>35</ele>
        <time>2026-08-23T14:59:47.000Z</time>
      </trkpt>
      <trkpt lat="43.3203" lon="-1.55373">
        <ele>34</ele>
        <time>2026-08-23T14:59:51.000Z</time>
      </trkpt>
      <trkpt lat="43.32044" lon="-1.5536">
        <ele>34</ele>
        <time>2026-08-23T14:59:54.000Z</time>
      </trkpt>
      <trkpt lat="43.32064" lon="-1.55338">
        <ele>34</ele>
        <time>2026-08-23T14:59:59.000Z</time>
      </trkpt>
      <trkpt lat="43.32078" lon="-1.55312">
        <ele>33</ele>
        <time>2026-08-23T15:00:03.000Z</time>
      </trkpt>
      <trkpt lat="43.32085" lon="-1.55294">
        <ele>33</ele>
        <time>2026-08-23T15:00:05.000Z</time>
      </trkpt>
      <trkpt lat="43.32091" lon="-1.55274">
        <ele>33</ele>
        <time>2026-08-23T15:00:08.000Z</time>
      </trkpt>
      <trkpt lat="43.3214" lon="-1.55075">
        <ele>32</ele>
        <time>2026-08-23T15:00:35.000Z</time>
      </trkpt>
      <trkpt lat="43.3215" lon="-1.55051">
        <ele>31</ele>
        <time>2026-08-23T15:00:39.000Z</time>
      </trkpt>
      <trkpt lat="43.32152" lon="-1.55048">
        <ele>31</ele>
        <time>2026-08-23T15:00:40.000Z</time>
      </trkpt>
      <trkpt lat="43.32156" lon="-1.55044">
        <ele>31</ele>
        <time>2026-08-23T15:00:40.000Z</time>
      </trkpt>
      <trkpt lat="43.32183" lon="-1.55023">
        <ele>30</ele>
        <time>2026-08-23T15:00:46.000Z</time>
      </trkpt>
      <trkpt lat="43.32245" lon="-1.54992">
        <ele>30</ele>
        <time>2026-08-23T15:00:58.000Z</time>
      </trkpt>
      <trkpt lat="43.32324" lon="-1.54956">
        <ele>30</ele>
        <time>2026-08-23T15:01:13.000Z</time>
      </trkpt>
      <trkpt lat="43.32378" lon="-1.54933">
        <ele>32</ele>
        <time>2026-08-23T15:01:23.000Z</time>
      </trkpt>
      <trkpt lat="43.32414" lon="-1.54918">
        <ele>32</ele>
        <time>2026-08-23T15:01:29.000Z</time>
      </trkpt>
      <trkpt lat="43.32445" lon="-1.54904">
        <ele>34</ele>
        <time>2026-08-23T15:01:35.000Z</time>
      </trkpt>
      <trkpt lat="43.32463" lon="-1.54893">
        <ele>34</ele>
        <time>2026-08-23T15:01:39.000Z</time>
      </trkpt>
      <trkpt lat="43.32464" lon="-1.54892">
        <ele>34</ele>
        <time>2026-08-23T15:01:39.000Z</time>
      </trkpt>
      <trkpt lat="43.32482" lon="-1.54878">
        <ele>34</ele>
        <time>2026-08-23T15:01:42.000Z</time>
      </trkpt>
      <trkpt lat="43.32564" lon="-1.54806">
        <ele>36</ele>
        <time>2026-08-23T15:02:00.000Z</time>
      </trkpt>
      <trkpt lat="43.32608" lon="-1.54762">
        <ele>35</ele>
        <time>2026-08-23T15:02:09.000Z</time>
      </trkpt>
      <trkpt lat="43.32637" lon="-1.54734">
        <ele>35</ele>
        <time>2026-08-23T15:02:16.000Z</time>
      </trkpt>
      <trkpt lat="43.32679" lon="-1.54692">
        <ele>37</ele>
        <time>2026-08-23T15:02:25.000Z</time>
      </trkpt>
      <trkpt lat="43.32846" lon="-1.54527">
        <ele>37</ele>
        <time>2026-08-23T15:03:02.000Z</time>
      </trkpt>
      <trkpt lat="43.32876" lon="-1.54504">
        <ele>34</ele>
        <time>2026-08-23T15:03:08.000Z</time>
      </trkpt>
      <trkpt lat="43.32897" lon="-1.54492">
        <ele>33</ele>
        <time>2026-08-23T15:03:12.000Z</time>
      </trkpt>
      <trkpt lat="43.32935" lon="-1.54467">
        <ele>32</ele>
        <time>2026-08-23T15:03:19.000Z</time>
      </trkpt>
      <trkpt lat="43.32973" lon="-1.54445">
        <ele>31</ele>
        <time>2026-08-23T15:03:27.000Z</time>
      </trkpt>
      <trkpt lat="43.32992" lon="-1.54437">
        <ele>31</ele>
        <time>2026-08-23T15:03:30.000Z</time>
      </trkpt>
      <trkpt lat="43.33014" lon="-1.54435">
        <ele>31</ele>
        <time>2026-08-23T15:03:34.000Z</time>
      </trkpt>
      <trkpt lat="43.33034" lon="-1.54441">
        <ele>31</ele>
        <time>2026-08-23T15:03:38.000Z</time>
      </trkpt>
      <trkpt lat="43.33052" lon="-1.54449">
        <ele>32</ele>
        <time>2026-08-23T15:03:41.000Z</time>
      </trkpt>
      <trkpt lat="43.3308" lon="-1.54478">
        <ele>32</ele>
        <time>2026-08-23T15:03:47.000Z</time>
      </trkpt>
      <trkpt lat="43.331" lon="-1.54501">
        <ele>33</ele>
        <time>2026-08-23T15:03:52.000Z</time>
      </trkpt>
      <trkpt lat="43.33131" lon="-1.54538">
        <ele>34</ele>
        <time>2026-08-23T15:03:59.000Z</time>
      </trkpt>
      <trkpt lat="43.33146" lon="-1.54555">
        <ele>34</ele>
        <time>2026-08-23T15:04:03.000Z</time>
      </trkpt>
      <trkpt lat="43.3317" lon="-1.54594">
        <ele>35</ele>
        <time>2026-08-23T15:04:09.000Z</time>
      </trkpt>
      <trkpt lat="43.33195" lon="-1.54663">
        <ele>37</ele>
        <time>2026-08-23T15:04:19.000Z</time>
      </trkpt>
      <trkpt lat="43.332" lon="-1.54673">
        <ele>38</ele>
        <time>2026-08-23T15:04:21.000Z</time>
      </trkpt>
      <trkpt lat="43.3321" lon="-1.54694">
        <ele>39</ele>
        <time>2026-08-23T15:04:24.000Z</time>
      </trkpt>
      <trkpt lat="43.33231" lon="-1.54721">
        <ele>41</ele>
        <time>2026-08-23T15:04:29.000Z</time>
      </trkpt>
      <trkpt lat="43.33316" lon="-1.54798">
        <ele>42</ele>
        <time>2026-08-23T15:04:47.000Z</time>
      </trkpt>
      <trkpt lat="43.33342" lon="-1.5481">
        <ele>40</ele>
        <time>2026-08-23T15:04:52.000Z</time>
      </trkpt>
      <trkpt lat="43.33397" lon="-1.54823">
        <ele>36</ele>
        <time>2026-08-23T15:05:02.000Z</time>
      </trkpt>
      <trkpt lat="43.33451" lon="-1.54835">
        <ele>35</ele>
        <time>2026-08-23T15:05:12.000Z</time>
      </trkpt>
      <trkpt lat="43.33477" lon="-1.54844">
        <ele>35</ele>
        <time>2026-08-23T15:05:17.000Z</time>
      </trkpt>
      <trkpt lat="43.33499" lon="-1.54853">
        <ele>35</ele>
        <time>2026-08-23T15:05:21.000Z</time>
      </trkpt>
      <trkpt lat="43.33506" lon="-1.54856">
        <ele>36</ele>
        <time>2026-08-23T15:05:22.000Z</time>
      </trkpt>
      <trkpt lat="43.33528" lon="-1.54864">
        <ele>36</ele>
        <time>2026-08-23T15:05:26.000Z</time>
      </trkpt>
      <trkpt lat="43.33544" lon="-1.54872">
        <ele>36</ele>
        <time>2026-08-23T15:05:29.000Z</time>
      </trkpt>
      <trkpt lat="43.33558" lon="-1.54878">
        <ele>37</ele>
        <time>2026-08-23T15:05:32.000Z</time>
      </trkpt>
      <trkpt lat="43.33606" lon="-1.54902">
        <ele>38</ele>
        <time>2026-08-23T15:05:41.000Z</time>
      </trkpt>
      <trkpt lat="43.33689" lon="-1.54934">
        <ele>34</ele>
        <time>2026-08-23T15:05:56.000Z</time>
      </trkpt>
      <trkpt lat="43.33855" lon="-1.5503">
        <ele>39</ele>
        <time>2026-08-23T15:06:28.000Z</time>
      </trkpt>
      <trkpt lat="43.33886" lon="-1.55044">
        <ele>42</ele>
        <time>2026-08-23T15:06:34.000Z</time>
      </trkpt>
      <trkpt lat="43.33903" lon="-1.55043">
        <ele>44</ele>
        <time>2026-08-23T15:06:37.000Z</time>
      </trkpt>
      <trkpt lat="43.33917" lon="-1.55038">
        <ele>45</ele>
        <time>2026-08-23T15:06:40.000Z</time>
      </trkpt>
      <trkpt lat="43.33939" lon="-1.55026">
        <ele>44</ele>
        <time>2026-08-23T15:06:44.000Z</time>
      </trkpt>
      <trkpt lat="43.33954" lon="-1.55017">
        <ele>43</ele>
        <time>2026-08-23T15:06:47.000Z</time>
      </trkpt>
      <trkpt lat="43.34099" lon="-1.54928">
        <ele>38</ele>
        <time>2026-08-23T15:07:15.000Z</time>
      </trkpt>
      <trkpt lat="43.34103" lon="-1.54925">
        <ele>38</ele>
        <time>2026-08-23T15:07:16.000Z</time>
      </trkpt>
      <trkpt lat="43.34136" lon="-1.54905">
        <ele>37</ele>
        <time>2026-08-23T15:07:22.000Z</time>
      </trkpt>
      <trkpt lat="43.34187" lon="-1.54872">
        <ele>34</ele>
        <time>2026-08-23T15:07:32.000Z</time>
      </trkpt>
      <trkpt lat="43.34212" lon="-1.54863">
        <ele>33</ele>
        <time>2026-08-23T15:07:37.000Z</time>
      </trkpt>
      <trkpt lat="43.34239" lon="-1.54859">
        <ele>32</ele>
        <time>2026-08-23T15:07:42.000Z</time>
      </trkpt>
      <trkpt lat="43.34268" lon="-1.54861">
        <ele>31</ele>
        <time>2026-08-23T15:07:47.000Z</time>
      </trkpt>
      <trkpt lat="43.34293" lon="-1.54871">
        <ele>30</ele>
        <time>2026-08-23T15:07:51.000Z</time>
      </trkpt>
      <trkpt lat="43.34313" lon="-1.54884">
        <ele>30</ele>
        <time>2026-08-23T15:07:55.000Z</time>
      </trkpt>
      <trkpt lat="43.3434" lon="-1.5491">
        <ele>30</ele>
        <time>2026-08-23T15:08:01.000Z</time>
      </trkpt>
      <trkpt lat="43.34391" lon="-1.54981">
        <ele>24</ele>
        <time>2026-08-23T15:08:14.000Z</time>
      </trkpt>
      <trkpt lat="43.34419" lon="-1.55018">
        <ele>22</ele>
        <time>2026-08-23T15:08:21.000Z</time>
      </trkpt>
      <trkpt lat="43.34427" lon="-1.55029">
        <ele>23</ele>
        <time>2026-08-23T15:08:23.000Z</time>
      </trkpt>
      <trkpt lat="43.34446" lon="-1.55055">
        <ele>23</ele>
        <time>2026-08-23T15:08:28.000Z</time>
      </trkpt>
      <trkpt lat="43.3449" lon="-1.55114">
        <ele>22</ele>
        <time>2026-08-23T15:08:39.000Z</time>
      </trkpt>
      <trkpt lat="43.34548" lon="-1.55189">
        <ele>20</ele>
        <time>2026-08-23T15:08:53.000Z</time>
      </trkpt>
      <trkpt lat="43.34561" lon="-1.55198">
        <ele>20</ele>
        <time>2026-08-23T15:08:56.000Z</time>
      </trkpt>
      <trkpt lat="43.34571" lon="-1.55205">
        <ele>19</ele>
        <time>2026-08-23T15:08:58.000Z</time>
      </trkpt>
      <trkpt lat="43.34597" lon="-1.55214">
        <ele>19</ele>
        <time>2026-08-23T15:09:02.000Z</time>
      </trkpt>
      <trkpt lat="43.3463" lon="-1.55218">
        <ele>19</ele>
        <time>2026-08-23T15:09:08.000Z</time>
      </trkpt>
      <trkpt lat="43.34801" lon="-1.55235">
        <ele>19</ele>
        <time>2026-08-23T15:09:39.000Z</time>
      </trkpt>
      <trkpt lat="43.34821" lon="-1.55247">
        <ele>18</ele>
        <time>2026-08-23T15:09:43.000Z</time>
      </trkpt>
      <trkpt lat="43.34831" lon="-1.55248">
        <ele>18</ele>
        <time>2026-08-23T15:09:44.000Z</time>
      </trkpt>
      <trkpt lat="43.34847" lon="-1.55243">
        <ele>18</ele>
        <time>2026-08-23T15:09:47.000Z</time>
      </trkpt>
      <trkpt lat="43.34857" lon="-1.5523">
        <ele>19</ele>
        <time>2026-08-23T15:09:50.000Z</time>
      </trkpt>
      <trkpt lat="43.34859" lon="-1.55222">
        <ele>19</ele>
        <time>2026-08-23T15:09:51.000Z</time>
      </trkpt>
      <trkpt lat="43.34865" lon="-1.55186">
        <ele>20</ele>
        <time>2026-08-23T15:09:56.000Z</time>
      </trkpt>
      <trkpt lat="43.34869" lon="-1.55177">
        <ele>20</ele>
        <time>2026-08-23T15:09:57.000Z</time>
      </trkpt>
      <trkpt lat="43.34874" lon="-1.55162">
        <ele>21</ele>
        <time>2026-08-23T15:09:59.000Z</time>
      </trkpt>
      <trkpt lat="43.35004" lon="-1.55055">
        <ele>22</ele>
        <time>2026-08-23T15:10:26.000Z</time>
      </trkpt>
      <trkpt lat="43.35056" lon="-1.55009">
        <ele>20</ele>
        <time>2026-08-23T15:10:37.000Z</time>
      </trkpt>
      <trkpt lat="43.35078" lon="-1.54991">
        <ele>19</ele>
        <time>2026-08-23T15:10:42.000Z</time>
      </trkpt>
      <trkpt lat="43.35085" lon="-1.54978">
        <ele>19</ele>
        <time>2026-08-23T15:10:44.000Z</time>
      </trkpt>
      <trkpt lat="43.3509" lon="-1.54968">
        <ele>19</ele>
        <time>2026-08-23T15:10:45.000Z</time>
      </trkpt>
      <trkpt lat="43.3509" lon="-1.54959">
        <ele>19</ele>
        <time>2026-08-23T15:10:46.000Z</time>
      </trkpt>
      <trkpt lat="43.35092" lon="-1.54951">
        <ele>19</ele>
        <time>2026-08-23T15:10:48.000Z</time>
      </trkpt>
      <trkpt lat="43.35095" lon="-1.54944">
        <ele>19</ele>
        <time>2026-08-23T15:10:49.000Z</time>
      </trkpt>
      <trkpt lat="43.351" lon="-1.54938">
        <ele>19</ele>
        <time>2026-08-23T15:10:50.000Z</time>
      </trkpt>
      <trkpt lat="43.35106" lon="-1.54935">
        <ele>19</ele>
        <time>2026-08-23T15:10:51.000Z</time>
      </trkpt>
      <trkpt lat="43.35113" lon="-1.54934">
        <ele>19</ele>
        <time>2026-08-23T15:10:52.000Z</time>
      </trkpt>
      <trkpt lat="43.3512" lon="-1.54937">
        <ele>19</ele>
        <time>2026-08-23T15:10:53.000Z</time>
      </trkpt>
      <trkpt lat="43.35125" lon="-1.54942">
        <ele>19</ele>
        <time>2026-08-23T15:10:55.000Z</time>
      </trkpt>
      <trkpt lat="43.35129" lon="-1.54948">
        <ele>18</ele>
        <time>2026-08-23T15:10:56.000Z</time>
      </trkpt>
      <trkpt lat="43.35132" lon="-1.54956">
        <ele>18</ele>
        <time>2026-08-23T15:10:57.000Z</time>
      </trkpt>
      <trkpt lat="43.35133" lon="-1.54964">
        <ele>18</ele>
        <time>2026-08-23T15:10:58.000Z</time>
      </trkpt>
      <trkpt lat="43.35132" lon="-1.54974">
        <ele>18</ele>
        <time>2026-08-23T15:10:59.000Z</time>
      </trkpt>
      <trkpt lat="43.35128" lon="-1.54983">
        <ele>18</ele>
        <time>2026-08-23T15:11:01.000Z</time>
      </trkpt>
      <trkpt lat="43.35123" lon="-1.5499">
        <ele>18</ele>
        <time>2026-08-23T15:11:02.000Z</time>
      </trkpt>
      <trkpt lat="43.35126" lon="-1.54997">
        <ele>18</ele>
        <time>2026-08-23T15:11:03.000Z</time>
      </trkpt>
      <trkpt lat="43.35174" lon="-1.55105">
        <ele>16</ele>
        <time>2026-08-23T15:11:19.000Z</time>
      </trkpt>
      <trkpt lat="43.35211" lon="-1.55188">
        <ele>16</ele>
        <time>2026-08-23T15:11:32.000Z</time>
      </trkpt>
      <trkpt lat="43.35241" lon="-1.55255">
        <ele>17</ele>
        <time>2026-08-23T15:11:42.000Z</time>
      </trkpt>
      <trkpt lat="43.35261" lon="-1.55301">
        <ele>17</ele>
        <time>2026-08-23T15:11:49.000Z</time>
      </trkpt>
      <trkpt lat="43.35274" lon="-1.55324">
        <ele>18</ele>
        <time>2026-08-23T15:11:53.000Z</time>
      </trkpt>
      <trkpt lat="43.35293" lon="-1.55347">
        <ele>17</ele>
        <time>2026-08-23T15:11:57.000Z</time>
      </trkpt>
      <trkpt lat="43.35313" lon="-1.55363">
        <ele>17</ele>
        <time>2026-08-23T15:12:01.000Z</time>
      </trkpt>
      <trkpt lat="43.35338" lon="-1.55377">
        <ele>16</ele>
        <time>2026-08-23T15:12:06.000Z</time>
      </trkpt>
      <trkpt lat="43.35369" lon="-1.55382">
        <ele>16</ele>
        <time>2026-08-23T15:12:12.000Z</time>
      </trkpt>
      <trkpt lat="43.35398" lon="-1.5538">
        <ele>16</ele>
        <time>2026-08-23T15:12:17.000Z</time>
      </trkpt>
      <trkpt lat="43.35456" lon="-1.55371">
        <ele>16</ele>
        <time>2026-08-23T15:12:27.000Z</time>
      </trkpt>
      <trkpt lat="43.35483" lon="-1.5537">
        <ele>16</ele>
        <time>2026-08-23T15:12:32.000Z</time>
      </trkpt>
      <trkpt lat="43.35496" lon="-1.55373">
        <ele>16</ele>
        <time>2026-08-23T15:12:34.000Z</time>
      </trkpt>
      <trkpt lat="43.35509" lon="-1.55378">
        <ele>16</ele>
        <time>2026-08-23T15:12:37.000Z</time>
      </trkpt>
      <trkpt lat="43.35523" lon="-1.55388">
        <ele>16</ele>
        <time>2026-08-23T15:12:40.000Z</time>
      </trkpt>
      <trkpt lat="43.35533" lon="-1.55391">
        <ele>16</ele>
        <time>2026-08-23T15:12:41.000Z</time>
      </trkpt>
      <trkpt lat="43.35548" lon="-1.55396">
        <ele>16</ele>
        <time>2026-08-23T15:12:44.000Z</time>
      </trkpt>
      <trkpt lat="43.3555" lon="-1.55395">
        <ele>16</ele>
        <time>2026-08-23T15:12:45.000Z</time>
      </trkpt>
      <trkpt lat="43.35554" lon="-1.55395">
        <ele>16</ele>
        <time>2026-08-23T15:12:45.000Z</time>
      </trkpt>
      <trkpt lat="43.35557" lon="-1.55397">
        <ele>16</ele>
        <time>2026-08-23T15:12:46.000Z</time>
      </trkpt>
      <trkpt lat="43.35561" lon="-1.554">
        <ele>16</ele>
        <time>2026-08-23T15:12:47.000Z</time>
      </trkpt>
      <trkpt lat="43.35563" lon="-1.55404">
        <ele>16</ele>
        <time>2026-08-23T15:12:47.000Z</time>
      </trkpt>
      <trkpt lat="43.35565" lon="-1.55414">
        <ele>16</ele>
        <time>2026-08-23T15:12:49.000Z</time>
      </trkpt>
      <trkpt lat="43.35565" lon="-1.55416">
        <ele>16</ele>
        <time>2026-08-23T15:12:49.000Z</time>
      </trkpt>
      <trkpt lat="43.35565" lon="-1.55419">
        <ele>16</ele>
        <time>2026-08-23T15:12:49.000Z</time>
      </trkpt>
      <trkpt lat="43.35564" lon="-1.55422">
        <ele>16</ele>
        <time>2026-08-23T15:12:50.000Z</time>
      </trkpt>
      <trkpt lat="43.35574" lon="-1.55455">
        <ele>15</ele>
        <time>2026-08-23T15:12:54.000Z</time>
      </trkpt>
      <trkpt lat="43.35574" lon="-1.55465">
        <ele>14</ele>
        <time>2026-08-23T15:12:56.000Z</time>
      </trkpt>
      <trkpt lat="43.35577" lon="-1.55474">
        <ele>14</ele>
        <time>2026-08-23T15:12:57.000Z</time>
      </trkpt>
      <trkpt lat="43.35581" lon="-1.55514">
        <ele>13</ele>
        <time>2026-08-23T15:13:02.000Z</time>
      </trkpt>
      <trkpt lat="43.35585" lon="-1.55731">
        <ele>16</ele>
        <time>2026-08-23T15:13:30.000Z</time>
      </trkpt>
      <trkpt lat="43.35588" lon="-1.55791">
        <ele>16</ele>
        <time>2026-08-23T15:13:38.000Z</time>
      </trkpt>
      <trkpt lat="43.35592" lon="-1.55814">
        <ele>15</ele>
        <time>2026-08-23T15:13:41.000Z</time>
      </trkpt>
      <trkpt lat="43.35606" lon="-1.55857">
        <ele>15</ele>
        <time>2026-08-23T15:13:47.000Z</time>
      </trkpt>
      <trkpt lat="43.35632" lon="-1.55899">
        <ele>15</ele>
        <time>2026-08-23T15:13:54.000Z</time>
      </trkpt>
      <trkpt lat="43.35642" lon="-1.55909">
        <ele>15</ele>
        <time>2026-08-23T15:13:56.000Z</time>
      </trkpt>
      <trkpt lat="43.35687" lon="-1.55946">
        <ele>15</ele>
        <time>2026-08-23T15:14:06.000Z</time>
      </trkpt>
      <trkpt lat="43.35718" lon="-1.5597">
        <ele>16</ele>
        <time>2026-08-23T15:14:12.000Z</time>
      </trkpt>
      <trkpt lat="43.3573" lon="-1.55977">
        <ele>17</ele>
        <time>2026-08-23T15:14:14.000Z</time>
      </trkpt>
      <trkpt lat="43.35741" lon="-1.55983">
        <ele>17</ele>
        <time>2026-08-23T15:14:17.000Z</time>
      </trkpt>
      <trkpt lat="43.35745" lon="-1.55978">
        <ele>17</ele>
        <time>2026-08-23T15:14:18.000Z</time>
      </trkpt>
      <trkpt lat="43.35751" lon="-1.55976">
        <ele>17</ele>
        <time>2026-08-23T15:14:19.000Z</time>
      </trkpt>
      <trkpt lat="43.35756" lon="-1.55977">
        <ele>17</ele>
        <time>2026-08-23T15:14:20.000Z</time>
      </trkpt>
      <trkpt lat="43.35762" lon="-1.55982">
        <ele>18</ele>
        <time>2026-08-23T15:14:21.000Z</time>
      </trkpt>
      <trkpt lat="43.35766" lon="-1.55989">
        <ele>18</ele>
        <time>2026-08-23T15:14:22.000Z</time>
      </trkpt>
      <trkpt lat="43.35767" lon="-1.55997">
        <ele>18</ele>
        <time>2026-08-23T15:14:23.000Z</time>
      </trkpt>
      <trkpt lat="43.35764" lon="-1.56008">
        <ele>19</ele>
        <time>2026-08-23T15:14:24.000Z</time>
      </trkpt>
      <trkpt lat="43.3576" lon="-1.56015">
        <ele>19</ele>
        <time>2026-08-23T15:14:26.000Z</time>
      </trkpt>
      <trkpt lat="43.35753" lon="-1.56017">
        <ele>19</ele>
        <time>2026-08-23T15:14:27.000Z</time>
      </trkpt>
      <trkpt lat="43.35747" lon="-1.56016">
        <ele>19</ele>
        <time>2026-08-23T15:14:28.000Z</time>
      </trkpt>
      <trkpt lat="43.35742" lon="-1.56012">
        <ele>18</ele>
        <time>2026-08-23T15:14:29.000Z</time>
      </trkpt>
      <trkpt lat="43.35739" lon="-1.56006">
        <ele>18</ele>
        <time>2026-08-23T15:14:30.000Z</time>
      </trkpt>
      <trkpt lat="43.35737" lon="-1.55994">
        <ele>17</ele>
        <time>2026-08-23T15:14:32.000Z</time>
      </trkpt>
      <trkpt lat="43.35718" lon="-1.5597">
        <ele>16</ele>
        <time>2026-08-23T15:14:36.000Z</time>
      </trkpt>
      <trkpt lat="43.35741" lon="-1.55983">
        <ele>17</ele>
        <time>2026-08-23T15:14:41.000Z</time>
      </trkpt>
      <trkpt lat="43.35745" lon="-1.55978">
        <ele>17</ele>
        <time>2026-08-23T15:14:42.000Z</time>
      </trkpt>
      <trkpt lat="43.35751" lon="-1.55976">
        <ele>17</ele>
        <time>2026-08-23T15:14:43.000Z</time>
      </trkpt>
      <trkpt lat="43.35756" lon="-1.55977">
        <ele>17</ele>
        <time>2026-08-23T15:14:44.000Z</time>
      </trkpt>
      <trkpt lat="43.35762" lon="-1.55982">
        <ele>18</ele>
        <time>2026-08-23T15:14:45.000Z</time>
      </trkpt>
      <trkpt lat="43.35766" lon="-1.55989">
        <ele>18</ele>
        <time>2026-08-23T15:14:46.000Z</time>
      </trkpt>
      <trkpt lat="43.35767" lon="-1.55997">
        <ele>18</ele>
        <time>2026-08-23T15:14:47.000Z</time>
      </trkpt>
      <trkpt lat="43.35764" lon="-1.56008">
        <ele>19</ele>
        <time>2026-08-23T15:14:48.000Z</time>
      </trkpt>
      <trkpt lat="43.3576" lon="-1.56015">
        <ele>19</ele>
        <time>2026-08-23T15:14:50.000Z</time>
      </trkpt>
      <trkpt lat="43.35753" lon="-1.56017">
        <ele>19</ele>
        <time>2026-08-23T15:14:51.000Z</time>
      </trkpt>
      <trkpt lat="43.35747" lon="-1.56016">
        <ele>19</ele>
        <time>2026-08-23T15:14:52.000Z</time>
      </trkpt>
      <trkpt lat="43.35721" lon="-1.56041">
        <ele>19</ele>
        <time>2026-08-23T15:14:58.000Z</time>
      </trkpt>
      <trkpt lat="43.35652" lon="-1.56086">
        <ele>18</ele>
        <time>2026-08-23T15:15:11.000Z</time>
      </trkpt>
      <trkpt lat="43.35635" lon="-1.56106">
        <ele>18</ele>
        <time>2026-08-23T15:15:15.000Z</time>
      </trkpt>
      <trkpt lat="43.35625" lon="-1.56126">
        <ele>18</ele>
        <time>2026-08-23T15:15:18.000Z</time>
      </trkpt>
      <trkpt lat="43.35623" lon="-1.56133">
        <ele>18</ele>
        <time>2026-08-23T15:15:19.000Z</time>
      </trkpt>
      <trkpt lat="43.35617" lon="-1.5617">
        <ele>19</ele>
        <time>2026-08-23T15:15:24.000Z</time>
      </trkpt>
      <trkpt lat="43.35615" lon="-1.56214">
        <ele>19</ele>
        <time>2026-08-23T15:15:30.000Z</time>
      </trkpt>
      <trkpt lat="43.35622" lon="-1.56509">
        <ele>19</ele>
        <time>2026-08-23T15:16:08.000Z</time>
      </trkpt>
      <trkpt lat="43.35622" lon="-1.56558">
        <ele>19</ele>
        <time>2026-08-23T15:16:14.000Z</time>
      </trkpt>
      <trkpt lat="43.35624" lon="-1.56587">
        <ele>19</ele>
        <time>2026-08-23T15:16:18.000Z</time>
      </trkpt>
      <trkpt lat="43.35627" lon="-1.56588">
        <ele>19</ele>
        <time>2026-08-23T15:16:19.000Z</time>
      </trkpt>
      <trkpt lat="43.35633" lon="-1.56592">
        <ele>19</ele>
        <time>2026-08-23T15:16:20.000Z</time>
      </trkpt>
      <trkpt lat="43.35635" lon="-1.56599">
        <ele>19</ele>
        <time>2026-08-23T15:16:21.000Z</time>
      </trkpt>
      <trkpt lat="43.35635" lon="-1.56604">
        <ele>19</ele>
        <time>2026-08-23T15:16:22.000Z</time>
      </trkpt>
      <trkpt lat="43.3563" lon="-1.56613">
        <ele>19</ele>
        <time>2026-08-23T15:16:23.000Z</time>
      </trkpt>
      <trkpt lat="43.35624" lon="-1.56615">
        <ele>19</ele>
        <time>2026-08-23T15:16:24.000Z</time>
      </trkpt>
      <trkpt lat="43.35625" lon="-1.56642">
        <ele>19</ele>
        <time>2026-08-23T15:16:28.000Z</time>
      </trkpt>
      <trkpt lat="43.35617" lon="-1.56692">
        <ele>19</ele>
        <time>2026-08-23T15:16:34.000Z</time>
      </trkpt>
      <trkpt lat="43.35592" lon="-1.56778">
        <ele>17</ele>
        <time>2026-08-23T15:16:46.000Z</time>
      </trkpt>
      <trkpt lat="43.35587" lon="-1.56801">
        <ele>17</ele>
        <time>2026-08-23T15:16:49.000Z</time>
      </trkpt>
      <trkpt lat="43.35585" lon="-1.56823">
        <ele>17</ele>
        <time>2026-08-23T15:16:52.000Z</time>
      </trkpt>
      <trkpt lat="43.35588" lon="-1.56851">
        <ele>17</ele>
        <time>2026-08-23T15:16:56.000Z</time>
      </trkpt>
      <trkpt lat="43.35593" lon="-1.56864">
        <ele>17</ele>
        <time>2026-08-23T15:16:58.000Z</time>
      </trkpt>
      <trkpt lat="43.35608" lon="-1.56893">
        <ele>17</ele>
        <time>2026-08-23T15:17:02.000Z</time>
      </trkpt>
      <trkpt lat="43.35625" lon="-1.56922">
        <ele>17</ele>
        <time>2026-08-23T15:17:07.000Z</time>
      </trkpt>
      <trkpt lat="43.35723" lon="-1.5713">
        <ele>15</ele>
        <time>2026-08-23T15:17:39.000Z</time>
      </trkpt>
      <trkpt lat="43.35733" lon="-1.5716">
        <ele>15</ele>
        <time>2026-08-23T15:17:44.000Z</time>
      </trkpt>
      <trkpt lat="43.3574" lon="-1.57189">
        <ele>15</ele>
        <time>2026-08-23T15:17:47.000Z</time>
      </trkpt>
      <trkpt lat="43.35745" lon="-1.57225">
        <ele>14</ele>
        <time>2026-08-23T15:17:52.000Z</time>
      </trkpt>
      <trkpt lat="43.35763" lon="-1.57418">
        <ele>13</ele>
        <time>2026-08-23T15:18:17.000Z</time>
      </trkpt>
      <trkpt lat="43.35767" lon="-1.57433">
        <ele>13</ele>
        <time>2026-08-23T15:18:19.000Z</time>
      </trkpt>
      <trkpt lat="43.35781" lon="-1.57455">
        <ele>13</ele>
        <time>2026-08-23T15:18:23.000Z</time>
      </trkpt>
      <trkpt lat="43.35786" lon="-1.57459">
        <ele>13</ele>
        <time>2026-08-23T15:18:24.000Z</time>
      </trkpt>
      <trkpt lat="43.35788" lon="-1.57464">
        <ele>13</ele>
        <time>2026-08-23T15:18:25.000Z</time>
      </trkpt>
      <trkpt lat="43.35789" lon="-1.5747">
        <ele>13</ele>
        <time>2026-08-23T15:18:26.000Z</time>
      </trkpt>
      <trkpt lat="43.35784" lon="-1.57479">
        <ele>13</ele>
        <time>2026-08-23T15:18:27.000Z</time>
      </trkpt>
      <trkpt lat="43.35781" lon="-1.57496">
        <ele>13</ele>
        <time>2026-08-23T15:18:30.000Z</time>
      </trkpt>
      <trkpt lat="43.35779" lon="-1.57526">
        <ele>13</ele>
        <time>2026-08-23T15:18:33.000Z</time>
      </trkpt>
      <trkpt lat="43.35779" lon="-1.57552">
        <ele>13</ele>
        <time>2026-08-23T15:18:37.000Z</time>
      </trkpt>
      <trkpt lat="43.35782" lon="-1.57586">
        <ele>13</ele>
        <time>2026-08-23T15:18:41.000Z</time>
      </trkpt>
      <trkpt lat="43.35827" lon="-1.57821">
        <ele>11</ele>
        <time>2026-08-23T15:19:13.000Z</time>
      </trkpt>
      <trkpt lat="43.35838" lon="-1.57869">
        <ele>11</ele>
        <time>2026-08-23T15:19:19.000Z</time>
      </trkpt>
      <trkpt lat="43.35852" lon="-1.57913">
        <ele>12</ele>
        <time>2026-08-23T15:19:25.000Z</time>
      </trkpt>
      <trkpt lat="43.35864" lon="-1.57937">
        <ele>12</ele>
        <time>2026-08-23T15:19:29.000Z</time>
      </trkpt>
      <trkpt lat="43.35894" lon="-1.57993">
        <ele>11</ele>
        <time>2026-08-23T15:19:38.000Z</time>
      </trkpt>
      <trkpt lat="43.36003" lon="-1.58148">
        <ele>11</ele>
        <time>2026-08-23T15:20:06.000Z</time>
      </trkpt>
      <trkpt lat="43.36109" lon="-1.58303">
        <ele>12</ele>
        <time>2026-08-23T15:20:34.000Z</time>
      </trkpt>
      <trkpt lat="43.36129" lon="-1.58341">
        <ele>12</ele>
        <time>2026-08-23T15:20:40.000Z</time>
      </trkpt>
      <trkpt lat="43.36139" lon="-1.58363">
        <ele>12</ele>
        <time>2026-08-23T15:20:43.000Z</time>
      </trkpt>
      <trkpt lat="43.36164" lon="-1.58429">
        <ele>12</ele>
        <time>2026-08-23T15:20:53.000Z</time>
      </trkpt>
      <trkpt lat="43.36257" lon="-1.58723">
        <ele>14</ele>
        <time>2026-08-23T15:21:34.000Z</time>
      </trkpt>
      <trkpt lat="43.3628" lon="-1.58766">
        <ele>18</ele>
        <time>2026-08-23T15:21:41.000Z</time>
      </trkpt>
      <trkpt lat="43.36308" lon="-1.58801">
        <ele>19</ele>
        <time>2026-08-23T15:21:48.000Z</time>
      </trkpt>
      <trkpt lat="43.36402" lon="-1.58885">
        <ele>17</ele>
        <time>2026-08-23T15:22:08.000Z</time>
      </trkpt>
      <trkpt lat="43.36427" lon="-1.58913">
        <ele>13</ele>
        <time>2026-08-23T15:22:13.000Z</time>
      </trkpt>
      <trkpt lat="43.36444" lon="-1.58941">
        <ele>12</ele>
        <time>2026-08-23T15:22:18.000Z</time>
      </trkpt>
      <trkpt lat="43.3646" lon="-1.58976">
        <ele>11</ele>
        <time>2026-08-23T15:22:24.000Z</time>
      </trkpt>
      <trkpt lat="43.36482" lon="-1.59044">
        <ele>9</ele>
        <time>2026-08-23T15:22:33.000Z</time>
      </trkpt>
      <trkpt lat="43.36581" lon="-1.59376">
        <ele>9</ele>
        <time>2026-08-23T15:23:20.000Z</time>
      </trkpt>
      <trkpt lat="43.36589" lon="-1.5943">
        <ele>9</ele>
        <time>2026-08-23T15:23:27.000Z</time>
      </trkpt>
      <trkpt lat="43.36592" lon="-1.59482">
        <ele>9</ele>
        <time>2026-08-23T15:23:33.000Z</time>
      </trkpt>
      <trkpt lat="43.36588" lon="-1.59546">
        <ele>11</ele>
        <time>2026-08-23T15:23:42.000Z</time>
      </trkpt>
      <trkpt lat="43.36567" lon="-1.59809">
        <ele>18</ele>
        <time>2026-08-23T15:24:16.000Z</time>
      </trkpt>
      <trkpt lat="43.36562" lon="-1.59843">
        <ele>18</ele>
        <time>2026-08-23T15:24:20.000Z</time>
      </trkpt>
      <trkpt lat="43.36549" lon="-1.59873">
        <ele>17</ele>
        <time>2026-08-23T15:24:25.000Z</time>
      </trkpt>
      <trkpt lat="43.36533" lon="-1.59897">
        <ele>16</ele>
        <time>2026-08-23T15:24:29.000Z</time>
      </trkpt>
      <trkpt lat="43.36476" lon="-1.5994">
        <ele>14</ele>
        <time>2026-08-23T15:24:41.000Z</time>
      </trkpt>
      <trkpt lat="43.36447" lon="-1.59965">
        <ele>14</ele>
        <time>2026-08-23T15:24:47.000Z</time>
      </trkpt>
      <trkpt lat="43.36418" lon="-1.59996">
        <ele>13</ele>
        <time>2026-08-23T15:24:53.000Z</time>
      </trkpt>
      <trkpt lat="43.36387" lon="-1.60042">
        <ele>15</ele>
        <time>2026-08-23T15:25:01.000Z</time>
      </trkpt>
      <trkpt lat="43.36371" lon="-1.60073">
        <ele>15</ele>
        <time>2026-08-23T15:25:06.000Z</time>
      </trkpt>
      <trkpt lat="43.36336" lon="-1.60166">
        <ele>16</ele>
        <time>2026-08-23T15:25:20.000Z</time>
      </trkpt>
      <trkpt lat="43.36316" lon="-1.60201">
        <ele>20</ele>
        <time>2026-08-23T15:25:26.000Z</time>
      </trkpt>
      <trkpt lat="43.36299" lon="-1.60225">
        <ele>21</ele>
        <time>2026-08-23T15:25:30.000Z</time>
      </trkpt>
      <trkpt lat="43.36264" lon="-1.60257">
        <ele>19</ele>
        <time>2026-08-23T15:25:38.000Z</time>
      </trkpt>
      <trkpt lat="43.36203" lon="-1.60308">
        <ele>15</ele>
        <time>2026-08-23T15:25:50.000Z</time>
      </trkpt>
      <trkpt lat="43.36173" lon="-1.60338">
        <ele>13</ele>
        <time>2026-08-23T15:25:57.000Z</time>
      </trkpt>
      <trkpt lat="43.36153" lon="-1.60362">
        <ele>14</ele>
        <time>2026-08-23T15:26:02.000Z</time>
      </trkpt>
      <trkpt lat="43.36138" lon="-1.60384">
        <ele>15</ele>
        <time>2026-08-23T15:26:05.000Z</time>
      </trkpt>
      <trkpt lat="43.36126" lon="-1.60409">
        <ele>15</ele>
        <time>2026-08-23T15:26:09.000Z</time>
      </trkpt>
      <trkpt lat="43.36109" lon="-1.60462">
        <ele>16</ele>
        <time>2026-08-23T15:26:17.000Z</time>
      </trkpt>
      <trkpt lat="43.36103" lon="-1.60494">
        <ele>17</ele>
        <time>2026-08-23T15:26:21.000Z</time>
      </trkpt>
      <trkpt lat="43.36102" lon="-1.60518">
        <ele>17</ele>
        <time>2026-08-23T15:26:24.000Z</time>
      </trkpt>
      <trkpt lat="43.36102" lon="-1.60551">
        <ele>17</ele>
        <time>2026-08-23T15:26:28.000Z</time>
      </trkpt>
      <trkpt lat="43.36104" lon="-1.60585">
        <ele>18</ele>
        <time>2026-08-23T15:26:33.000Z</time>
      </trkpt>
      <trkpt lat="43.36117" lon="-1.60699">
        <ele>18</ele>
        <time>2026-08-23T15:26:48.000Z</time>
      </trkpt>
      <trkpt lat="43.36119" lon="-1.6075">
        <ele>18</ele>
        <time>2026-08-23T15:26:54.000Z</time>
      </trkpt>
      <trkpt lat="43.36113" lon="-1.60838">
        <ele>16</ele>
        <time>2026-08-23T15:27:06.000Z</time>
      </trkpt>
      <trkpt lat="43.36105" lon="-1.61018">
        <ele>17</ele>
        <time>2026-08-23T15:27:29.000Z</time>
      </trkpt>
      <trkpt lat="43.36096" lon="-1.6111">
        <ele>14</ele>
        <time>2026-08-23T15:27:41.000Z</time>
      </trkpt>
      <trkpt lat="43.36091" lon="-1.61139">
        <ele>13</ele>
        <time>2026-08-23T15:27:45.000Z</time>
      </trkpt>
      <trkpt lat="43.36083" lon="-1.61166">
        <ele>12</ele>
        <time>2026-08-23T15:27:49.000Z</time>
      </trkpt>
      <trkpt lat="43.36066" lon="-1.61209">
        <ele>11</ele>
        <time>2026-08-23T15:27:55.000Z</time>
      </trkpt>
      <trkpt lat="43.36058" lon="-1.61226">
        <ele>11</ele>
        <time>2026-08-23T15:27:58.000Z</time>
      </trkpt>
      <trkpt lat="43.36043" lon="-1.61253">
        <ele>11</ele>
        <time>2026-08-23T15:28:02.000Z</time>
      </trkpt>
      <trkpt lat="43.36014" lon="-1.61293">
        <ele>11</ele>
        <time>2026-08-23T15:28:09.000Z</time>
      </trkpt>
      <trkpt lat="43.35934" lon="-1.61396">
        <ele>16</ele>
        <time>2026-08-23T15:28:29.000Z</time>
      </trkpt>
      <trkpt lat="43.35913" lon="-1.61419">
        <ele>16</ele>
        <time>2026-08-23T15:28:34.000Z</time>
      </trkpt>
      <trkpt lat="43.35815" lon="-1.61503">
        <ele>12</ele>
        <time>2026-08-23T15:28:54.000Z</time>
      </trkpt>
      <trkpt lat="43.35787" lon="-1.61535">
        <ele>14</ele>
        <time>2026-08-23T15:29:01.000Z</time>
      </trkpt>
      <trkpt lat="43.35515" lon="-1.61963">
        <ele>18</ele>
        <time>2026-08-23T15:30:14.000Z</time>
      </trkpt>
      <trkpt lat="43.35486" lon="-1.62001">
        <ele>18</ele>
        <time>2026-08-23T15:30:21.000Z</time>
      </trkpt>
      <trkpt lat="43.35432" lon="-1.62045">
        <ele>21</ele>
        <time>2026-08-23T15:30:33.000Z</time>
      </trkpt>
      <trkpt lat="43.35407" lon="-1.6206">
        <ele>21</ele>
        <time>2026-08-23T15:30:37.000Z</time>
      </trkpt>
      <trkpt lat="43.3524" lon="-1.62126">
        <ele>14</ele>
        <time>2026-08-23T15:31:08.000Z</time>
      </trkpt>
      <trkpt lat="43.35214" lon="-1.62143">
        <ele>12</ele>
        <time>2026-08-23T15:31:13.000Z</time>
      </trkpt>
      <trkpt lat="43.35191" lon="-1.62169">
        <ele>11</ele>
        <time>2026-08-23T15:31:19.000Z</time>
      </trkpt>
      <trkpt lat="43.35181" lon="-1.62185">
        <ele>11</ele>
        <time>2026-08-23T15:31:22.000Z</time>
      </trkpt>
      <trkpt lat="43.35118" lon="-1.62308">
        <ele>11</ele>
        <time>2026-08-23T15:31:41.000Z</time>
      </trkpt>
      <trkpt lat="43.35109" lon="-1.62334">
        <ele>10</ele>
        <time>2026-08-23T15:31:45.000Z</time>
      </trkpt>
      <trkpt lat="43.35103" lon="-1.62402">
        <ele>11</ele>
        <time>2026-08-23T15:31:54.000Z</time>
      </trkpt>
      <trkpt lat="43.35103" lon="-1.62461">
        <ele>10</ele>
        <time>2026-08-23T15:32:01.000Z</time>
      </trkpt>
      <trkpt lat="43.35108" lon="-1.62493">
        <ele>11</ele>
        <time>2026-08-23T15:32:05.000Z</time>
      </trkpt>
      <trkpt lat="43.35118" lon="-1.62528">
        <ele>12</ele>
        <time>2026-08-23T15:32:10.000Z</time>
      </trkpt>
      <trkpt lat="43.35207" lon="-1.62759">
        <ele>8</ele>
        <time>2026-08-23T15:32:44.000Z</time>
      </trkpt>
      <trkpt lat="43.35258" lon="-1.62906">
        <ele>6</ele>
        <time>2026-08-23T15:33:05.000Z</time>
      </trkpt>
      <trkpt lat="43.3528" lon="-1.62956">
        <ele>6</ele>
        <time>2026-08-23T15:33:13.000Z</time>
      </trkpt>
      <trkpt lat="43.35289" lon="-1.62974">
        <ele>6</ele>
        <time>2026-08-23T15:33:16.000Z</time>
      </trkpt>
      <trkpt lat="43.35306" lon="-1.62998">
        <ele>6</ele>
        <time>2026-08-23T15:33:20.000Z</time>
      </trkpt>
      <trkpt lat="43.35332" lon="-1.63028">
        <ele>7</ele>
        <time>2026-08-23T15:33:26.000Z</time>
      </trkpt>
      <trkpt lat="43.35365" lon="-1.63059">
        <ele>7</ele>
        <time>2026-08-23T15:33:33.000Z</time>
      </trkpt>
      <trkpt lat="43.35403" lon="-1.63082">
        <ele>7</ele>
        <time>2026-08-23T15:33:40.000Z</time>
      </trkpt>
      <trkpt lat="43.3544" lon="-1.63096">
        <ele>6</ele>
        <time>2026-08-23T15:33:47.000Z</time>
      </trkpt>
      <trkpt lat="43.35615" lon="-1.63147">
        <ele>5</ele>
        <time>2026-08-23T15:34:19.000Z</time>
      </trkpt>
      <trkpt lat="43.35639" lon="-1.63145">
        <ele>6</ele>
        <time>2026-08-23T15:34:23.000Z</time>
      </trkpt>
      <trkpt lat="43.35647" lon="-1.63139">
        <ele>6</ele>
        <time>2026-08-23T15:34:25.000Z</time>
      </trkpt>
      <trkpt lat="43.35653" lon="-1.63131">
        <ele>7</ele>
        <time>2026-08-23T15:34:27.000Z</time>
      </trkpt>
      <trkpt lat="43.35661" lon="-1.63129">
        <ele>7</ele>
        <time>2026-08-23T15:34:28.000Z</time>
      </trkpt>
      <trkpt lat="43.35668" lon="-1.63133">
        <ele>7</ele>
        <time>2026-08-23T15:34:29.000Z</time>
      </trkpt>
      <trkpt lat="43.3567" lon="-1.63137">
        <ele>7</ele>
        <time>2026-08-23T15:34:30.000Z</time>
      </trkpt>
      <trkpt lat="43.35673" lon="-1.63149">
        <ele>7</ele>
        <time>2026-08-23T15:34:32.000Z</time>
      </trkpt>
      <trkpt lat="43.35676" lon="-1.63154">
        <ele>7</ele>
        <time>2026-08-23T15:34:32.000Z</time>
      </trkpt>
      <trkpt lat="43.35699" lon="-1.63173">
        <ele>6</ele>
        <time>2026-08-23T15:34:37.000Z</time>
      </trkpt>
      <trkpt lat="43.35728" lon="-1.63183">
        <ele>7</ele>
        <time>2026-08-23T15:34:43.000Z</time>
      </trkpt>
      <trkpt lat="43.3575" lon="-1.63192">
        <ele>7</ele>
        <time>2026-08-23T15:34:47.000Z</time>
      </trkpt>
      <trkpt lat="43.35789" lon="-1.63219">
        <ele>9</ele>
        <time>2026-08-23T15:34:54.000Z</time>
      </trkpt>
      <trkpt lat="43.35859" lon="-1.6328">
        <ele>9</ele>
        <time>2026-08-23T15:35:09.000Z</time>
      </trkpt>
      <trkpt lat="43.35921" lon="-1.63341">
        <ele>8</ele>
        <time>2026-08-23T15:35:23.000Z</time>
      </trkpt>
      <trkpt lat="43.35935" lon="-1.63358">
        <ele>9</ele>
        <time>2026-08-23T15:35:26.000Z</time>
      </trkpt>
      <trkpt lat="43.35984" lon="-1.63434">
        <ele>8</ele>
        <time>2026-08-23T15:35:39.000Z</time>
      </trkpt>
      <trkpt lat="43.35993" lon="-1.63424">
        <ele>9</ele>
        <time>2026-08-23T15:35:41.000Z</time>
      </trkpt>
      <trkpt lat="43.35987" lon="-1.63363">
        <ele>13</ele>
        <time>2026-08-23T15:35:49.000Z</time>
      </trkpt>
      <trkpt lat="43.35993" lon="-1.63424">
        <ele>9</ele>
        <time>2026-08-23T15:35:57.000Z</time>
      </trkpt>
      <trkpt lat="43.35984" lon="-1.63434">
        <ele>8</ele>
        <time>2026-08-23T15:35:59.000Z</time>
      </trkpt>
      <trkpt lat="43.35995" lon="-1.63453">
        <ele>8</ele>
        <time>2026-08-23T15:36:02.000Z</time>
      </trkpt>
      <trkpt lat="43.36014" lon="-1.63501">
        <ele>6</ele>
        <time>2026-08-23T15:36:09.000Z</time>
      </trkpt>
      <trkpt lat="43.36029" lon="-1.63531">
        <ele>6</ele>
        <time>2026-08-23T15:36:14.000Z</time>
      </trkpt>
      <trkpt lat="43.36039" lon="-1.63549">
        <ele>6</ele>
        <time>2026-08-23T15:36:17.000Z</time>
      </trkpt>
      <trkpt lat="43.36061" lon="-1.63577">
        <ele>5</ele>
        <time>2026-08-23T15:36:22.000Z</time>
      </trkpt>
      <trkpt lat="43.36075" lon="-1.63589">
        <ele>5</ele>
        <time>2026-08-23T15:36:25.000Z</time>
      </trkpt>
      <trkpt lat="43.36097" lon="-1.63603">
        <ele>5</ele>
        <time>2026-08-23T15:36:30.000Z</time>
      </trkpt>
      <trkpt lat="43.36255" lon="-1.63666">
        <ele>6</ele>
        <time>2026-08-23T15:36:59.000Z</time>
      </trkpt>
      <trkpt lat="43.3629" lon="-1.63673">
        <ele>6</ele>
        <time>2026-08-23T15:37:05.000Z</time>
      </trkpt>
      <trkpt lat="43.36308" lon="-1.63673">
        <ele>7</ele>
        <time>2026-08-23T15:37:08.000Z</time>
      </trkpt>
      <trkpt lat="43.36349" lon="-1.63669">
        <ele>7</ele>
        <time>2026-08-23T15:37:16.000Z</time>
      </trkpt>
      <trkpt lat="43.36367" lon="-1.63664">
        <ele>7</ele>
        <time>2026-08-23T15:37:19.000Z</time>
      </trkpt>
      <trkpt lat="43.36626" lon="-1.6358">
        <ele>7</ele>
        <time>2026-08-23T15:38:06.000Z</time>
      </trkpt>
      <trkpt lat="43.36644" lon="-1.63577">
        <ele>7</ele>
        <time>2026-08-23T15:38:10.000Z</time>
      </trkpt>
      <trkpt lat="43.36675" lon="-1.63576">
        <ele>8</ele>
        <time>2026-08-23T15:38:15.000Z</time>
      </trkpt>
      <trkpt lat="43.36722" lon="-1.63585">
        <ele>7</ele>
        <time>2026-08-23T15:38:23.000Z</time>
      </trkpt>
      <trkpt lat="43.36753" lon="-1.63597">
        <ele>7</ele>
        <time>2026-08-23T15:38:29.000Z</time>
      </trkpt>
      <trkpt lat="43.37063" lon="-1.63793">
        <ele>6</ele>
        <time>2026-08-23T15:39:30.000Z</time>
      </trkpt>
      <trkpt lat="43.37085" lon="-1.63801">
        <ele>6</ele>
        <time>2026-08-23T15:39:34.000Z</time>
      </trkpt>
      <trkpt lat="43.37111" lon="-1.63806">
        <ele>5</ele>
        <time>2026-08-23T15:39:39.000Z</time>
      </trkpt>
      <trkpt lat="43.37409" lon="-1.63788">
        <ele>4</ele>
        <time>2026-08-23T15:40:32.000Z</time>
      </trkpt>
      <trkpt lat="43.37444" lon="-1.63779">
        <ele>4</ele>
        <time>2026-08-23T15:40:38.000Z</time>
      </trkpt>
      <trkpt lat="43.37508" lon="-1.63777">
        <ele>4</ele>
        <time>2026-08-23T15:40:49.000Z</time>
      </trkpt>
      <trkpt lat="43.37526" lon="-1.63781">
        <ele>5</ele>
        <time>2026-08-23T15:40:53.000Z</time>
      </trkpt>
      <trkpt lat="43.37541" lon="-1.63773">
        <ele>5</ele>
        <time>2026-08-23T15:40:56.000Z</time>
      </trkpt>
      <trkpt lat="43.37607" lon="-1.63771">
        <ele>6</ele>
        <time>2026-08-23T15:41:07.000Z</time>
      </trkpt>
      <trkpt lat="43.37642" lon="-1.63776">
        <ele>6</ele>
        <time>2026-08-23T15:41:14.000Z</time>
      </trkpt>
      <trkpt lat="43.37738" lon="-1.63772">
        <ele>8</ele>
        <time>2026-08-23T15:41:31.000Z</time>
      </trkpt>
      <trkpt lat="43.37759" lon="-1.63774">
        <ele>8</ele>
        <time>2026-08-23T15:41:34.000Z</time>
      </trkpt>
      <trkpt lat="43.37776" lon="-1.63786">
        <ele>8</ele>
        <time>2026-08-23T15:41:38.000Z</time>
      </trkpt>
      <trkpt lat="43.37906" lon="-1.63917">
        <ele>6</ele>
        <time>2026-08-23T15:42:06.000Z</time>
      </trkpt>
      <trkpt lat="43.38056" lon="-1.64058">
        <ele>9</ele>
        <time>2026-08-23T15:42:39.000Z</time>
      </trkpt>
      <trkpt lat="43.3812" lon="-1.64193">
        <ele>6</ele>
        <time>2026-08-23T15:43:00.000Z</time>
      </trkpt>
      <trkpt lat="43.38155" lon="-1.6423">
        <ele>6</ele>
        <time>2026-08-23T15:43:07.000Z</time>
      </trkpt>
      <trkpt lat="43.38212" lon="-1.64283">
        <ele>5</ele>
        <time>2026-08-23T15:43:20.000Z</time>
      </trkpt>
      <trkpt lat="43.38232" lon="-1.64309">
        <ele>5</ele>
        <time>2026-08-23T15:43:25.000Z</time>
      </trkpt>
      <trkpt lat="43.3825" lon="-1.64341">
        <ele>5</ele>
        <time>2026-08-23T15:43:30.000Z</time>
      </trkpt>
      <trkpt lat="43.38264" lon="-1.64383">
        <ele>7</ele>
        <time>2026-08-23T15:43:36.000Z</time>
      </trkpt>
      <trkpt lat="43.38272" lon="-1.64424">
        <ele>8</ele>
        <time>2026-08-23T15:43:41.000Z</time>
      </trkpt>
      <trkpt lat="43.38277" lon="-1.64488">
        <ele>10</ele>
        <time>2026-08-23T15:43:50.000Z</time>
      </trkpt>
      <trkpt lat="43.3828" lon="-1.64595">
        <ele>8</ele>
        <time>2026-08-23T15:44:03.000Z</time>
      </trkpt>
      <trkpt lat="43.38277" lon="-1.64656">
        <ele>7</ele>
        <time>2026-08-23T15:44:11.000Z</time>
      </trkpt>
      <trkpt lat="43.38255" lon="-1.6488">
        <ele>9</ele>
        <time>2026-08-23T15:44:41.000Z</time>
      </trkpt>
      <trkpt lat="43.38252" lon="-1.64928">
        <ele>8</ele>
        <time>2026-08-23T15:44:47.000Z</time>
      </trkpt>
      <trkpt lat="43.38256" lon="-1.64957">
        <ele>8</ele>
        <time>2026-08-23T15:44:51.000Z</time>
      </trkpt>
      <trkpt lat="43.3826" lon="-1.64971">
        <ele>8</ele>
        <time>2026-08-23T15:44:53.000Z</time>
      </trkpt>
      <trkpt lat="43.38275" lon="-1.65015">
        <ele>9</ele>
        <time>2026-08-23T15:44:59.000Z</time>
      </trkpt>
      <trkpt lat="43.38343" lon="-1.652">
        <ele>12</ele>
        <time>2026-08-23T15:45:26.000Z</time>
      </trkpt>
      <trkpt lat="43.38356" lon="-1.65227">
        <ele>13</ele>
        <time>2026-08-23T15:45:30.000Z</time>
      </trkpt>
      <trkpt lat="43.38363" lon="-1.65232">
        <ele>13</ele>
        <time>2026-08-23T15:45:31.000Z</time>
      </trkpt>
      <trkpt lat="43.38379" lon="-1.65254">
        <ele>14</ele>
        <time>2026-08-23T15:45:35.000Z</time>
      </trkpt>
      <trkpt lat="43.384" lon="-1.6527">
        <ele>14</ele>
        <time>2026-08-23T15:45:40.000Z</time>
      </trkpt>
      <trkpt lat="43.38412" lon="-1.65283">
        <ele>13</ele>
        <time>2026-08-23T15:45:42.000Z</time>
      </trkpt>
      <trkpt lat="43.38412" lon="-1.65303">
        <ele>10</ele>
        <time>2026-08-23T15:45:45.000Z</time>
      </trkpt>
      <trkpt lat="43.38407" lon="-1.65318">
        <ele>8</ele>
        <time>2026-08-23T15:45:47.000Z</time>
      </trkpt>
      <trkpt lat="43.38404" lon="-1.65322">
        <ele>7</ele>
        <time>2026-08-23T15:45:48.000Z</time>
      </trkpt>
      <trkpt lat="43.38343" lon="-1.65446">
        <ele>5</ele>
        <time>2026-08-23T15:46:07.000Z</time>
      </trkpt>
      <trkpt lat="43.38341" lon="-1.65462">
        <ele>4</ele>
        <time>2026-08-23T15:46:09.000Z</time>
      </trkpt>
      <trkpt lat="43.38361" lon="-1.65489">
        <ele>4</ele>
        <time>2026-08-23T15:46:14.000Z</time>
      </trkpt>
      <trkpt lat="43.38364" lon="-1.655">
        <ele>4</ele>
        <time>2026-08-23T15:46:16.000Z</time>
      </trkpt>
      <trkpt lat="43.3836" lon="-1.65509">
        <ele>4</ele>
        <time>2026-08-23T15:46:17.000Z</time>
      </trkpt>
      <trkpt lat="43.38357" lon="-1.65509">
        <ele>4</ele>
        <time>2026-08-23T15:46:18.000Z</time>
      </trkpt>
      <trkpt lat="43.38351" lon="-1.65522">
        <ele>4</ele>
        <time>2026-08-23T15:46:20.000Z</time>
      </trkpt>
      <trkpt lat="43.38236" lon="-1.65679">
        <ele>4</ele>
        <time>2026-08-23T15:46:48.000Z</time>
      </trkpt>
      <trkpt lat="43.38233" lon="-1.65687">
        <ele>4</ele>
        <time>2026-08-23T15:46:50.000Z</time>
      </trkpt>
      <trkpt lat="43.38234" lon="-1.65703">
        <ele>4</ele>
        <time>2026-08-23T15:46:52.000Z</time>
      </trkpt>
      <trkpt lat="43.38298" lon="-1.65877">
        <ele>4</ele>
        <time>2026-08-23T15:47:17.000Z</time>
      </trkpt>
      <trkpt lat="43.38309" lon="-1.65902">
        <ele>5</ele>
        <time>2026-08-23T15:47:21.000Z</time>
      </trkpt>
      <trkpt lat="43.38324" lon="-1.65923">
        <ele>6</ele>
        <time>2026-08-23T15:47:25.000Z</time>
      </trkpt>
      <trkpt lat="43.3833" lon="-1.65928">
        <ele>6</ele>
        <time>2026-08-23T15:47:26.000Z</time>
      </trkpt>
      <trkpt lat="43.38334" lon="-1.65923">
        <ele>6</ele>
        <time>2026-08-23T15:47:27.000Z</time>
      </trkpt>
      <trkpt lat="43.3834" lon="-1.65924">
        <ele>6</ele>
        <time>2026-08-23T15:47:28.000Z</time>
      </trkpt>
      <trkpt lat="43.38342" lon="-1.65926">
        <ele>6</ele>
        <time>2026-08-23T15:47:28.000Z</time>
      </trkpt>
      <trkpt lat="43.38344" lon="-1.6593">
        <ele>6</ele>
        <time>2026-08-23T15:47:29.000Z</time>
      </trkpt>
      <trkpt lat="43.38344" lon="-1.65938">
        <ele>6</ele>
        <time>2026-08-23T15:47:30.000Z</time>
      </trkpt>
      <trkpt lat="43.3834" lon="-1.65943">
        <ele>6</ele>
        <time>2026-08-23T15:47:31.000Z</time>
      </trkpt>
      <trkpt lat="43.38347" lon="-1.65961">
        <ele>6</ele>
        <time>2026-08-23T15:47:33.000Z</time>
      </trkpt>
      <trkpt lat="43.38445" lon="-1.66095">
        <ele>5</ele>
        <time>2026-08-23T15:47:58.000Z</time>
      </trkpt>
      <trkpt lat="43.38462" lon="-1.66121">
        <ele>5</ele>
        <time>2026-08-23T15:48:03.000Z</time>
      </trkpt>
      <trkpt lat="43.38479" lon="-1.66155">
        <ele>5</ele>
        <time>2026-08-23T15:48:08.000Z</time>
      </trkpt>
      <trkpt lat="43.38485" lon="-1.66152">
        <ele>5</ele>
        <time>2026-08-23T15:48:09.000Z</time>
      </trkpt>
      <trkpt lat="43.38491" lon="-1.66155">
        <ele>5</ele>
        <time>2026-08-23T15:48:10.000Z</time>
      </trkpt>
      <trkpt lat="43.38493" lon="-1.6616">
        <ele>5</ele>
        <time>2026-08-23T15:48:11.000Z</time>
      </trkpt>
      <trkpt lat="43.38493" lon="-1.66166">
        <ele>5</ele>
        <time>2026-08-23T15:48:12.000Z</time>
      </trkpt>
      <trkpt lat="43.38491" lon="-1.66171">
        <ele>5</ele>
        <time>2026-08-23T15:48:12.000Z</time>
      </trkpt>
      <trkpt lat="43.38487" lon="-1.66173">
        <ele>5</ele>
        <time>2026-08-23T15:48:13.000Z</time>
      </trkpt>
      <trkpt lat="43.38493" lon="-1.66191">
        <ele>5</ele>
        <time>2026-08-23T15:48:16.000Z</time>
      </trkpt>
      <trkpt lat="43.38503" lon="-1.66208">
        <ele>4</ele>
        <time>2026-08-23T15:48:19.000Z</time>
      </trkpt>
      <trkpt lat="43.38616" lon="-1.66309">
        <ele>1</ele>
        <time>2026-08-23T15:48:43.000Z</time>
      </trkpt>
      <trkpt lat="43.38636" lon="-1.66319">
        <ele>3.9</ele>
        <time>2026-08-23T15:48:46.000Z</time>
      </trkpt>
      <trkpt lat="43.38667" lon="-1.66322">
        <ele>1</ele>
        <time>2026-08-23T15:48:52.000Z</time>
      </trkpt>
      <trkpt lat="43.38667" lon="-1.66317">
        <ele>1</ele>
        <time>2026-08-23T15:48:53.000Z</time>
      </trkpt>
      <trkpt lat="43.38671" lon="-1.66309">
        <ele>1</ele>
        <time>2026-08-23T15:48:54.000Z</time>
      </trkpt>
      <trkpt lat="43.38677" lon="-1.66305">
        <ele>2</ele>
        <time>2026-08-23T15:48:55.000Z</time>
      </trkpt>
      <trkpt lat="43.38683" lon="-1.66307">
        <ele>2</ele>
        <time>2026-08-23T15:48:56.000Z</time>
      </trkpt>
      <trkpt lat="43.38687" lon="-1.66313">
        <ele>2</ele>
        <time>2026-08-23T15:48:57.000Z</time>
      </trkpt>
      <trkpt lat="43.38689" lon="-1.66321">
        <ele>2</ele>
        <time>2026-08-23T15:48:58.000Z</time>
      </trkpt>
      <trkpt lat="43.38688" lon="-1.66325">
        <ele>2</ele>
        <time>2026-08-23T15:48:59.000Z</time>
      </trkpt>
      <trkpt lat="43.38682" lon="-1.66334">
        <ele>1</ele>
        <time>2026-08-23T15:49:00.000Z</time>
      </trkpt>
      <trkpt lat="43.38675" lon="-1.66335">
        <ele>4</ele>
        <time>2026-08-23T15:49:02.000Z</time>
      </trkpt>
      <trkpt lat="43.3867" lon="-1.66331">
        <ele>4</ele>
        <time>2026-08-23T15:49:03.000Z</time>
      </trkpt>
      <trkpt lat="43.38668" lon="-1.66327">
        <ele>4</ele>
        <time>2026-08-23T15:49:03.000Z</time>
      </trkpt>
      <trkpt lat="43.38658" lon="-1.66327">
        <ele>4</ele>
        <time>2026-08-23T15:49:05.000Z</time>
      </trkpt>
    </trkseg>
  </trk>
</gpx>